     2              OBSERVATION DATA    GPS                 RINEX VERSION / TYPE
teqc 1997Jun30 19970702                                     PGM / RUN BY / DATE
                                                            COMMENT
Original Marker Name: CAMP                                  COMMENT
Campaign Name: HMC San Gabriel Valley 1993-1996             COMMENT
4-Character Station Name: CAMP                              COMMENT
6-Character Antenna Code: DMRCHT                            COMMENT
Vertical Measurement Point: BPA                             COMMENT
Vertical Offset to Rinex Ref. Point: 0.0000                 COMMENT
Radial Measurement Point: RRP                               COMMENT
Radial Offset to Rinex Ref. Point: 0.0000                   COMMENT
Antenna Height from Field Measurement: 0.0610 m             COMMENT
Additional Antenna Identification Info.:                    COMMENT
Turborogue and Ashtech Choke Ring                           COMMENT
Monument produces significant deflection of the             COMMENT
compass needle, due to magnetic materials in its            COMMENT
construction. As a result, the N orientation of             COMMENT
antenna could be in error by about 15-20 degrees.           COMMENT
Original XYZ: -2459894.4550 -4672268.2975 3567350.6559      COMMENT
New XYZ position is based on association with SCEC monument COMMENT
E1D0R4Q8+0011. Position of that monument is believed to be  COMMENT
valid to within 1 m horizontally; vertical accuracy         COMMENT
should be no worse than 3-times this value.                 COMMENT
                                                            COMMENT
Revised Rinex header created by UCSD GPS archive for        COMMENT
GSAC on 13-Apr-1999 (1999:103) 22:25:57 GMT                 COMMENT
For assistance contact dagnew@ucsd.edu or hjohnson@ucsd.edu COMMENT
                                                            COMMENT
CAMP BONITA                                                 MARKER NAME
GAL HARVEY MUDD COLLEGE                                     OBSERVER / AGENCY
262 TURBOROGUE SNR-8000 94.10.09                            REC # / TYPE / VERS
260 DORNE-MARGOL. TYPE T                                    ANT # / TYPE
 -2459892.0000 -4672264.0000  3567347.0000                  APPROX POSITION XYZ
        0.0610        0.0000        0.0000                  ANTENNA: DELTA H/E/N
     1     1     0                                          WAVELENGTH FACT L1/2
     5    L1    L2    C1    P2    P1                        # / TYPES OF OBSERV
     0                                                      INTERVAL
  1995     2    22     0     0    0.000000                  TIME OF FIRST OBS
  1995     2    22    23    59   30.000000                  TIME OF LAST OBS
     0                                                      # OF SATELLITES
                                                            END OF HEADER
 95  2 22  0  0  0.0000000  0  8G12G 7G 2G26G27G15G19G 4
  -4148120.031 4  -3232296.413 4  23562164.122    23562161.270
  -3673727.77744  -2862641.95144  20231788.3854   20231788.8654
    663942.43844    517358.16844  21071150.3584   21071150.7934
  -2891868.20744  -2253402.03544  22680856.2354   22680857.3914
   4570992.07644   3561810.94544  21175302.6934   21175303.0054
    -65233.95244    -50827.95144  23733716.3474   23733716.9904
   8249749.39844                  24261395.0764
   -600017.96444   -467544.54744  24437311.6974
 95  2 22  0  0 30.0000000  0  8G12G 7G 2G26G27G15G19G 4
  -4225192.706 4  -3292352.936 4  23547497.848    23547494.816
  -3692234.97244  -2877063.12344  20228266.4584   20228267.0574
    678474.15544    528681.59444  21073915.4944   21073915.9694
  -2899225.17344  -2259134.73944  22679455.7224   22679457.3004
   4641183.30544   3616505.40144  21188659.6444   21188660.1374
    -40317.40644    -31412.44144  23738457.8994   23738459.8704
   8348636.71244                  24280212.6184
   -700220.42544   -545624.24444  24418243.5614
 95  2 22  0  1  0.0000000  0  7G12G 7G 2G26G27G15G 4
  -4302270.409 4  -3352413.383 4  23532830.483    23532827.444
  -3710287.27644  -2891129.83444  20224831.2354   20224831.6704
    693152.77844    540119.48644  21076708.6694   21076709.1734
  -2906054.70744  -2264456.45244  22678155.9664   22678157.4994
   4711796.79144   3671528.88044  21202097.1774   21202097.6714
    -14854.62444    -11571.27744  23743302.6714   23743301.7114
   -800493.79244                  24399161.3844
 95  2 22  0  1 30.0000000  0  7G12G 7G 2G26G27G15G 4
  -4379372.614 4  -3412492.920 4  23518158.319    23518155.268
  -3727890.01544  -2904846.23544  20221481.6144   20221481.9914
    707971.35444    551666.43344  21079528.6404   21079529.0204
  -2912384.71844  -2269388.92844  22676951.6024   22676952.7294
   4782805.56044   3726860.37044  21215609.7354   21215609.9324
     11133.47544      8679.21044  23748247.9354   23748251.0884
   -900872.59144   -701976.41444  24380059.2724
 95  2 22  0  2  0.0000000  0  8G12G 7G 2G26G27G15G 9G 4
  -4456459.807 4  -3472560.757 4  23503488.947    23503485.869
  -3744998.61144  -2918177.59144  20218225.9234   20218226.3004
    722962.05344    563347.50244  21082381.2014   21082381.6204
  -2918191.29544  -2273913.52744  22675846.8544   22675848.2044
   4854245.67644   3782527.97644  21229204.3994   21229204.6064
     37684.96844     29368.69644  23753301.1964   23753302.6454
        -0.85454                  25329181.5734
  -1001308.70844                  24360946.5474
 95  2 22  0  2 30.0000000  0  8G12G 7G 2G26G27G15G 9G 4
  -4533535.003 4  -3532619.250 4  23488821.907    23488818.649
  -3761598.68944  -2931112.69544  20215066.9554   20215067.4854
    738110.72044    575151.65844  21085263.8714   21085264.4874
  -2923479.73744  -2278034.38544  22674840.4014   22674841.5984
   4926090.69744   3838511.09744  21242875.9744   21242876.6104
     64795.32944     50493.68544  23758460.0404   23758461.0934
   -100209.06744                  25310112.0504
  -1101804.65844   -858546.67444  24341823.6734   24341826.5384
 95  2 22  0  3  0.0000000  0  8G12G 7G 2G26G27G15G 9G 4
  -4610595.889 4  -3592666.597 4  23474157.345    23474154.225
  -3777693.68544  -2943654.23044  20212004.1274   20212004.6454
    753424.93644    587084.81744  21088178.0554   21088178.5534
  -2928260.95744  -2281760.01044  22673930.5734   22673931.7234
   4998330.12244   3894801.53844  21256622.6114   21256622.8144
     92464.84244     72054.35244  23763725.3684   23763726.6864
   -200452.30544                  25291036.0394
  -1202365.43744   -936905.66444  24322688.0594   24322688.4104
 95  2 22  0  3 30.0000000  0  8G12G 7G 2G26G27G15G 9G 4
  -4687623.744 4  -3652688.207 4  23459499.231    23459496.234
  -3793280.99244  -2955800.16244  20209038.0144   20209038.4084
    768918.14144    599157.44844  21091126.3334   21091126.9404
  -2932514.79044  -2285074.67844  22673121.2124   22673122.3254
   5070987.71344   3951417.82244  21270448.7714   21270449.1944
    120710.91744     94064.30544  23769100.8334   23769098.2954
   -300702.86844                  25271958.5994
  -1302964.06744  -1015294.10744  24303544.6784   24303548.7884
 95  2 22  0  4  0.0000000  0  8G12G 7G 2G26G27G15G 9G 4
  -4764622.929 4  -3712687.474 4  23444846.654    23444843.859
  -3808392.73844  -2967575.52844  20206162.2904   20206162.6144
    784581.13544    611362.37744  21094106.6904   21094107.4504
  -2936249.12244  -2287984.54344  22672410.7284   22672411.5254
   5144064.87944   4008361.04344  21284354.8544   21284355.4024
    149527.40044    116518.66644  23774583.8944   23774586.7614
   -400968.31644                  25252878.2944
  -1403590.80344  -1093704.49544  24284396.0134   24284399.8504
 95  2 22  0  4 30.0000000  0  8G12G 7G 2G26G27G15G 9G 4
  -4841589.169 4  -3772661.071 4  23430200.253    23430197.667
  -3823037.75044  -2978987.20444  20203375.5634   20203375.8304
    800420.57044    623704.79444  21097120.8244   21097121.7644
  -2939440.72144  -2290471.49444  22671803.3644   22671804.3564
   5217572.55744   4065639.73644  21298343.0334   21298343.5344
    178917.25144    139419.88544  23780176.2864   23780179.8174
   -501251.93244                  25233794.8254
  -1504239.25244  -1172131.77844  24265243.2624   24265246.7894
 95  2 22  0  5  0.0000000  0  8G12G 7G 2G26G27G15G 9G 4
  -4918540.620 4  -3832623.143 4  23415556.761    23415554.198
  -3837238.51644  -2990052.71844  20200673.2964   20200673.8074
    816416.79344    636169.38844  21100165.0234   21100165.6664
  -2942094.96044  -2292539.72544  22671298.3054   22671298.9524
   5291514.96644   4123257.18344  21312413.8044   21312414.2644
    208859.87844    162751.83744  23785874.2814   23785877.4894
   -601553.25244                  25214708.0284
  -1604909.71144  -1250576.18144  24246086.2964   24246085.7294
 95  2 22  0  5 30.0000000  0  8G12G 7G 2G26G27G15G 9G 4
  -4995489.514 4  -3892583.230 4  23400913.696    23400911.303
  -3850996.13644  -3000772.92044  20198055.1224   20198055.6644
    832566.67344    648753.71844  21103238.2264   21103238.6414
  -2944209.59744  -2294187.48444  22670895.8554   22670897.0404
   5365889.94344   4181211.68844  21326566.9104   21326567.4414
    239341.87644    186504.03344  23791674.6374   23791678.4764
   -701866.88044                  25195618.8364
  -1705596.61144  -1329033.41744  24226926.2394   24226927.2524
 95  2 22  0  6  0.0000000  0  8G12G 7G 2G26G27G15G 9G 4
  -5072437.929 4  -3952542.950 4  23386270.754    23386268.458
  -3864287.10844  -3011129.50044  20195525.9204   20195526.2804
    848877.43044    661463.40744  21106342.0844   21106342.5574
  -2945791.91344  -2295420.44944  22670594.5694   22670595.9534
   5440687.34644   4239495.35444  21340800.6604   21340801.3734
    270359.29644    210673.47544  23797577.0114   23797579.2944
   -802203.16444                  25176525.1214
  -1806306.21544  -1407508.28944  24207761.4584   24207761.2424
 95  2 22  0  6 30.0000000  0  8G12G 7G 2G26G27G15G 9G 4
  -5149377.633 4  -4012495.885 4  23371629.533    23371627.292
  -3877079.84644  -3021097.84644  20193091.4434   20193091.8794
    865354.89744    674303.00144  21109477.3934   21109478.1204
  -2946825.89644  -2296226.14344  22670397.8934   22670398.6694
   5515904.83044   4298106.36444  21355114.0534   21355114.4914
    301918.49144    235265.06944  23803582.4214   23803584.0394
   -902542.63244                  25157431.3174
  -1907033.62844  -1485997.06244  24188593.1104   24188596.3504
 95  2 22  0  7  0.0000000  0  8G12G 7G 2G26G27G15G 9G 4
  -5226301.037 4  -4072436.122 4  23356991.504    23356989.229
  -3889366.69444  -3030671.99044  20190753.3144   20190753.7204
    882007.32844    687278.92744  21112646.2924   21112647.2104
  -2947329.96344  -2296618.91144  22670302.1494   22670303.1384
   5591540.06844   4357042.89844  21369506.9174   21369507.4104
    334025.16744    260283.24344  23809692.4144   23809694.4614
  -1002872.41144                  25138339.7134
  -2007786.79044  -1564505.86644  24169420.0774   24169421.6094
 95  2 22  0  7 30.0000000  0  8G12G 7G 2G26G27G15G 9G 4
  -5303209.841 4  -4132364.986 4  23342356.469    23342353.943
  -3901166.04744  -3039866.26644  20188508.0534   20188508.4354
    898818.76244    700378.75344  21115845.5334   21115846.2964
  -2947332.99444  -2296621.26444  22670301.6334   22670302.4284
   5667559.83444   4416279.06344  21383972.9684   21383973.6844
    366675.68144    285725.22344  23815905.2584   23815908.0344
  -1103209.69944                  25119246.2014
  -2108588.64144  -1643052.59044  24150237.9134   24150241.2254
 95  2 22  0  8  0.0000000  0  7G12G 7G 2G26G27G15G 4
  -5380105.197 4  -4192283.377 4  23327723.875    23327721.248
  -3912500.92244  -3048698.61644  20186351.0984   20186351.4114
    915762.25544    713581.48444  21119069.7154   21119070.4984
  -2946848.62244  -2296243.82344  22670393.8594   22670394.8344
   5743945.39044   4475800.25744  21398508.6644   21398509.3104
    399867.32944    311588.82344  23822221.0994   23822224.2204
  -2209105.80644                  24131049.0934
 95  2 22  0  8 30.0000000  0  6G12G 7G 2G26G27G15
  -5456994.522 4  -4252197.073 4  23313092.342    23313089.680
  -3923404.88644  -3057195.19244  20184275.8704   20184276.2524
    932815.46444    726869.70644  21122314.7064   21122315.1664
  -2945893.35544  -2295499.45144  22670575.6984   22670577.1194
   5820685.56644   4535597.78044  21413111.8564   21413112.7284
    433590.69744    337866.79344  23828639.0454   23828640.4904
 95  2 22  0  9  0.0000000  0  6G12G 7G 2G26G27G15
  -5533868.864 4  -4312099.096 4  23298463.573    23298460.906
  -3933878.65144  -3065356.54844  20182282.8894   20182283.3474
    949987.77644    740250.73844  21125582.6154   21125583.0534
  -2944473.40144  -2294392.98644  22670845.5484   22670846.5624
   5897789.48044   4595678.74144  21427784.1314   21427785.0564
    467852.48044    364564.31144  23835159.3244   23835160.6364
 95  2 22  0  9 30.0000000  0  7G12G 7G 2G26G27G15G 4
  -5610708.355 4  -4371973.963 4  23283841.247    23283838.763
  -3943901.03844  -3073166.18044  20180375.6704   20180376.2594
    967296.45144    753738.02444  21128876.2744   21128876.7194
  -2942557.55244  -2292900.09944  22671209.7964   22671210.2814
   5975278.98044   4656060.15244  21442529.9274   21442530.7324
    502670.42144    391695.16144  23841784.8994   23841785.5284
        -1.14554        -0.54354  24073446.2064   24073450.3504
 95  2 22  0 10  0.0000000  0  8G12G 7G 2G26G27G15G 9G 4
  -5687512.442 4  -4431821.253 4  23269225.913    23269223.358
  -3953455.94344  -3080611.54544  20178557.3164   20178557.9894
    984765.47944    767350.26744  21132200.5044   21132200.9374
  -2940126.59744  -2291005.83844  22671672.3034   22671674.1164
   6053161.09144   4716747.49944  21457350.4704   21457350.8474
    538043.10044    419258.30844  23848515.7744   23848516.8194
         0.26054                  25023709.4254
   -100861.06144    -78593.26944  24054253.0894   24054252.2554
 95  2 22  0 10 30.0000000  0  8G12G 7G 2G26G27G15G 9G 4
  -5764238.013 4  -4491607.362 4  23254625.471    23254622.846
  -3962487.70244  -3087649.26244  20176838.5124   20176839.0594
   1002463.94044    781141.28744  21135568.5274   21135568.9574
  -2937125.95844  -2288667.67444  22672243.5254   22672244.7514
   6131491.13744   4777783.88644  21472256.3294   21472256.7334
    574011.52344    447285.65044  23855359.5024   23855361.6594
   -100423.68744                  25004599.1774
   -201661.62744   -157139.02544  24035071.3874   24035073.4634
 95  2 22  0 11  0.0000000  0  8G12G 7G 2G26G27G15G 9G 4
  -5840938.469 4  -4551373.904 4  23240029.740    23240027.200
  -3971047.34844  -3094319.09944  20175209.8474   20175210.2834
   1020344.77544    795074.41544  21138971.0454   21138971.4954
  -2933589.11344  -2285911.69144  22672916.8034   22672917.5034
   6210219.06344   4839130.31244  21487237.7584   21487238.1124
    610520.53944    475734.21344  23862306.9504   23862310.3184
   -200861.96344                  24985485.7444
   -302478.70544   -235697.66344  24015886.2194   24015885.9934
 95  2 22  0 11 30.0000000  0  8G12G 7G 2G26G27G15G 9G 4
  -5917631.368 4  -4611134.550 4  23225435.555    23225433.017
  -3979152.65044  -3100634.89944  20173667.5464   20173667.9994
   1038390.01344    809135.64944  21142405.0134   21142405.4694
  -2929518.77544  -2282739.99444  22673691.4454   22673691.9454
   6289325.90644   4900771.98844  21502291.0714   21502291.6174
    647550.04744    504588.36044  23869354.2474   23869354.9494
   -301326.43744                  24966367.9554
   -403340.61444   -314291.21244  23996692.4414   23996695.6374
 95  2 22  0 12  0.0000000  0  8G12G 7G 2G26G27G15G 9G 4
  -5994319.244 4  -4670891.279 4  23210842.232    23210839.825
  -3986810.94244  -3106602.37944  20172210.2284   20172210.5584
   1056596.99044    823322.91144  21145869.6754   21145870.0844
  -2924913.48444  -2279151.45244  22674567.8814   22674568.9064
   6368811.77144   4962709.00544  21517416.7674   21517417.2434
    685095.13544    533844.27044  23876499.1734   23876501.6274
   -401803.48944                  24947247.4434
   -504259.00244   -392928.85044  23977488.2764   23977490.2374
 95  2 22  0 12 30.0000000  0  8G12G 7G 2G26G27G15G 9G 4
  -6070978.852 4  -4730625.978 4  23196254.251    23196251.981
  -3994003.20744  -3112206.72244  20170841.6614   20170841.9744
   1074968.03644    837638.02044  21149365.5454   21149365.9214
  -2919760.41244  -2275136.06744  22675548.6474   22675549.2914
   6448702.52744   5024961.53144  21532619.5044   21532620.3444
    723177.07544    563518.51544  23883745.7334   23883749.7784
   -502258.41144                  24928131.3864
   -605201.16844   -471584.98144  23958280.2214   23958278.1064
 95  2 22  0 13  0.0000000  0  8G12G 7G 2G26G27G15G 9G 4
  -6147593.892 4  -4790325.941 4  23181674.891    23181672.624
  -4000715.06644  -3117436.72544  20169564.3264   20169564.6674
   1093498.51844    852077.36444  21152891.9214   21152892.3154
  -2914058.57744  -2270693.07344  22676633.6204   22676634.1204
   6528997.55444   5087529.07344  21547899.1024   21547899.8404
    761810.09944    593622.20344  23891097.1774   23891098.9214
   -602667.16344                  24909024.1354
   -706142.20344   -550240.23844  23939072.0224   23939071.0784
 95  2 22  0 13 30.0000000  0  8G12G 7G 2G26G27G15G 9G 4
  -6224170.957 4  -4849996.311 4  23167102.715    23167100.437
  -4006942.72244  -3122289.42844  20168379.2114   20168379.5394
   1112180.18544    866634.51444  21156446.9814   21156447.4624
  -2907835.98944  -2265844.29544  22677817.3434   22677817.7344
   6609686.61644   5150403.65344  21563253.6774   21563254.2894
    800985.01644    624148.12244  23898551.4624   23898554.6724
   -703025.37044                  24889925.4384
   -807069.51044   -628884.78844  23919866.2944   23919864.8754
 95  2 22  0 14  0.0000000  0  8G12G 7G 2G26G27G15G 9G 4
  -6300710.595 4  -4909637.511 4  23152537.705    23152535.258
  -4012690.79644  -3126768.42644  20167285.4234   20167285.7754
   1131015.98644    881311.76444  21160031.1964   21160031.7204
  -2901101.95044  -2260596.99344  22679098.5184   22679099.3774
   6690765.09044   5213581.67144  21578682.6714   21578683.0964
    840699.04944    655094.11844  23906108.7844   23906110.5994
   -803351.96044   -625988.17044  24870834.8264
   -907983.66244   -707519.10844  23900662.3584   23900664.7734
 95  2 22  0 14 30.0000000  0  8G12G 7G 2G26G27G15G 9G 4
  -6377202.066 4  -4969241.177 4  23137981.898    23137979.304
  -4017948.09144  -3130865.00244  20166285.0774   20166285.4044
   1150017.32544    896118.00544  21163646.9024   21163647.2824
  -2893859.21844  -2254953.30544  22680477.1494   22680477.7294
   6772241.50844   5277069.78044  21594187.2444   21594187.7894
    880960.65644    686466.79944  23913770.3354   23913769.0444
   -903641.92044                  24851750.3524
  -1008880.57044   -786140.01244  23881461.6964   23881463.9534
 95  2 22  0 15  0.0000000  0  8G12G 7G 2G26G27G15G 9G 4
  -6453637.674 4  -5028801.312 4  23123436.628    23123433.997
  -4022722.10544  -3134584.99844  20165376.5734   20165376.9004
   1169209.36744    911072.84844  21167299.1174   21167299.4864
  -2886099.39844  -2248906.68944  22681953.8304   22681954.2924
   6854126.03944   5340875.88744  21609769.2054   21609769.7384
    921775.09144    718270.25344  23921537.7854   23921540.0984
  -1003905.79444                  24832671.1404
  -1109747.20844   -864737.32644  23862267.2074   23862268.5194
 95  2 22  0 15 30.0000000  0  8G12G 7G 2G26G27G15G 9G 4
  -6530032.292 4  -5088329.506 4  23108899.055    23108896.543
  -4027039.50044  -3137949.18844  20164554.9834   20164555.3264
   1188587.41144    926172.62344  21170986.6404   21170987.1064
  -2877831.17044  -2242463.91344  22683527.2824   22683527.6124
   6936405.22544   5404989.52144  21625426.4154   21625427.0734
    963124.90344    750490.92344  23929406.3014   23929407.5334
  -1104166.81044                  24813592.2794
  -1210593.41344   -943318.70244  23843077.5254   23843080.5834
 95  2 22  0 16  0.0000000  0  8G12G 7G 2G26G27G15G 9G 4
  -6606381.079 4  -5147821.986 4  23094370.244    23094367.842
  -4030912.43444  -3140967.04344  20163817.8294   20163818.2214
   1208151.53644    941417.40044  21174709.6074   21174709.9944
  -2869046.71944  -2235618.87644  22685199.2654   22685198.7974
   7019070.63344   5469404.10244  21641157.0944   21641157.6224
   1005012.52144    783130.64944  23937376.9784   23937379.7714
  -1204425.69044   -938512.75544  24794513.4394   24794516.5234
  -1311409.15044  -1021876.32244  23823893.0004   23823895.6734
 95  2 22  0 16 30.0000000  0  8G12G 7G 2G26G27G15G 9G 4
  -6682676.637 4  -5207272.991 4  23079851.586    23079849.137
  -4034336.91544  -3143635.45444  20163166.3294   20163166.5564
   1227901.09144    956806.66744  21178467.6734   21178468.1154
  -2859756.12244  -2228379.44844  22686967.0474   22686967.3424
   7102119.36844   5534117.37444  21656960.6074   21656961.5494
   1047443.18444    816193.52144  23945451.2004   23945452.2204
  -1304669.05644  -1016624.38144  24775437.4264
  -1412169.07844  -1100390.40744  23804718.6954   23804717.7684
 95  2 22  0 17  0.0000000  0  8G12G 7G 2G26G27G15G 9G 4
  -6758917.684 4  -5266681.521 4  23065343.387    23065340.945
  -4037312.04744  -3145953.72444  20162600.3844   20162600.4314
   1247825.28144    972332.01644  21182259.0444   21182259.5674
  -2849952.35944  -2220740.15044  22688832.2374   22688833.2084
   7185534.31144   5599116.00344  21672834.0014   21672834.6924
   1090415.23344    849678.22944  23953628.8194   23953632.0254
  -1404884.49844  -1094714.26244  24756366.8194   24756370.0404
  -1512860.03744  -1178850.78344  23785556.8154   23785559.0774
 95  2 22  0 17 30.0000000  0  8G12G 7G 2G26G27G15G 9G 4
  -6835110.767 4  -5326052.684 4  23050844.237    23050841.760
  -4039830.72744  -3147916.31744  20162121.0964   20162121.4644
   1267900.68744    987975.19344  21186079.3194   21186079.8824
  -2839648.06844  -2212710.82744  22690792.9584   22690793.9804
   7269305.52644   5664392.26444  21688775.2204   21688775.6404
   1133919.73644    883577.85344  23961907.2304   23961908.7924
  -1505061.79244  -1172774.37544  24737303.3164
  -1613493.41544  -1257266.27844  23766406.0294   23766412.9414
 95  2 22  0 18  0.0000000  0  8G12G 7G 2G26G27G15G 9G 4
  -6911251.694 4  -5385383.208 4  23036355.147    23036352.579
  -4041880.36044  -3149513.41844  20161730.7984   20161731.2704
   1288122.22744   1003732.24544  21189927.3914   21189928.0174
  -2828848.77944  -2204295.78944  22692848.0974   22692847.9294
   7353446.51844   5729956.65044  21704786.5884   21704787.7454
   1177958.23744    917893.56544  23970286.8664
  -1605200.59344  -1250804.43244  24718247.4614   24718247.6054
  -1714072.46944  -1335639.49544  23747266.6524   23747272.5624
 95  2 22  0 18 30.0000000  0  8G12G 7G 2G26G27G15G 9G 4
  -6987367.011 4  -5444693.784 4  23021870.920    23021868.411
  -4043480.78844  -3150760.49044  20161426.1804   20161426.6914
   1308461.09044   1019580.71444  21193797.9544   21193798.3494
  -2817575.06044  -2195511.07044  22694993.7524   22694994.1274
   7437935.34344   5795792.06844  21720864.0774   21720865.1424
   1222501.70744    952602.80344  23978763.1644
  -1705319.64644  -1328819.20044  24699195.2654
  -1814640.57244  -1414004.13344  23728129.9084   23728132.5974
 95  2 22  0 19  0.0000000  0  8G12G 7G 2G26G27G15G 9G 4
  -7063449.594 4  -5503978.852 4  23007392.903    23007390.466
  -4044631.90344  -3151657.44844  20161207.2594   20161207.7424
   1328927.97344   1035528.93844  21197692.5004   21197693.0634
  -2805798.81244  -2186334.75244  22697234.5454   22697235.1254
   7522787.01844   5861910.22844  21737010.7634   21737011.6364
   1267554.62244    987708.96444  23987336.9824   23987339.6034
  -1805406.00544  -1406808.46744  24680149.3424
  -1915199.10144  -1492361.30244  23708994.4484   23708996.1204
 95  2 22  0 19 30.0000000  0  8G12G 7G 2G26G27G15G 9G 4
  -7139494.777 4  -5563234.783 4  22992921.892    22992919.573
  -4045327.51844  -3152199.47144  20161074.8124   20161075.3814
   1349531.99344   1051584.02544  21201613.1824   21201613.7814
  -2793521.61044  -2176768.09544  22699570.7524   22699571.9234
   7608015.75644   5928322.20344  21753229.6174   21753230.3934
   1313118.91044   1023213.58444  23996007.6744   23996009.3484
  -1905465.42844  -1484776.73844  24661108.7664
  -2015746.07144  -1570709.47544  23689860.5954   23689863.6814
 95  2 22  0 20  0.0000000  0  8G12G 7G 2G26G27G15G 9G 4
  -7215480.002 4  -5622443.991 4  22978462.223    22978460.161
  -4045559.31144  -3152380.07144  20161030.6544   20161031.2824
   1370307.42944   1067772.68444  21205566.5194   21205567.2944
  -2780714.33144  -2166788.38344  22702007.4674   22702009.2844
   7693629.49144   5995034.18244  21769521.4634   21769522.3244
   1359214.32344   1059132.12444  24004779.2084   24004785.4014
  -2005480.88444  -1562710.71344  24642076.4854
  -2116261.81544  -1649033.31544  23670733.0124   23670732.2474
 95  2 22  0 20 30.0000000  0  8G12G 7G 2G26G27G15G 9G 4
  -7291395.596 4  -5681598.943 4  22964015.809    22964013.860
  -4045325.77444  -3152198.07744  20161075.0824   20161075.7084
   1391272.80144   1084109.34644  21209555.9434   21209556.7834
  -2767366.34444  -2156387.34944  22704547.6494   22704548.8284
   7779624.95844   6062043.61244  21785885.7994   21785886.3824
   1405847.71644   1095469.84844  24013653.2814   24013658.4564
  -2105429.10044  -1640592.33644  24623056.8254
  -2216723.71444  -1727315.21944  23651615.8854   23651617.5814
 95  2 22  0 21  0.0000000  0  8G12G 7G 2G26G27G15G 9G 4
  -7367248.958 4  -5740705.406 4  22949581.285    22949579.245
  -4044627.78844  -3151654.17244  20161208.0134   20161208.5344
   1412433.73344   1100598.39444  21213582.7874   21213583.4394
  -2753495.35944  -2145578.78244  22707187.6664   22707188.1994
   7866003.45744   6129351.50744  21802323.1614   21802323.7764
   1453009.16644   1132218.99944  24022627.8404   24022629.6704
  -2205327.04244  -1718434.79244  24604046.8194   24604045.8104
  -2317120.95644  -1805546.71444  23632511.1544   23632513.4624
 95  2 22  0 21 30.0000000  0  8G12G 7G 2G26G27G15G 9G 4
  -7443040.755 4  -5799763.897 4  22935158.658    22935156.279
  -4043462.11444  -3150745.83244  20161429.8234   20161430.2554
   1433791.76344   1117241.01944  21217647.1394   21217647.7384
  -2739112.76644  -2134371.56044  22709924.5154   22709925.1134
   7952761.97944   6196955.51244  21818832.8864   21818833.3974
   1500695.03244   1169376.86144  24031702.6194   24031701.0504
  -2305187.10044  -1796247.73544  24585044.0944   24585044.6114
  -2417452.44344  -1883727.00044  23613418.6694   23613420.1704
 95  2 22  0 22  0.0000000  0  8G12G 7G 2G26G27G15G 9G 4
  -7518773.675 4  -5858776.509 4  22920747.169    22920744.530
  -4041845.94744  -3149486.45744  20161737.2814   20161737.6474
   1455344.55144   1134035.40444  21221748.5064   21221749.0834
  -2724225.20244  -2122770.85044  22712757.4074   22712757.8954
   8039890.76044   6264848.04244  21835413.0794   21835413.8184
   1548899.89544   1206939.06544  24040875.8374   24040875.9564
  -2405003.07944  -1874026.26244  24566049.9934   24566050.5684
  -2517710.74344  -1961850.24344  23594339.8744   23594342.4964
 95  2 22  0 22 30.0000000  0  8G12G 7G 2G26G27G15G 9G 4
  -7594448.957 4  -5917744.211 4  22906346.575    22906343.927
  -4039773.78844  -3147871.76444  20162131.6444   20162131.9484
   1477072.28944   1150966.11844  21225883.1954   21225883.7264
  -2708843.62744  -2110785.19244  22715684.5624   22715685.0034
   8127383.69744   6333024.32444  21852062.6854   21852063.1674
   1597619.69744   1244902.58244  24050146.0534   24050153.0584
  -2504779.37644  -1951773.91144  24547063.2604   24547064.5474
  -2617887.63344  -2039910.09844  23575276.7854   23575279.2384
 95  2 22  0 23  0.0000000  0  8G12G 7G 2G26G27G15G 9G 4
  -7670059.043 4  -5976661.108 4  22891958.236    22891955.837
  -4037245.40444  -3145901.56944  20162612.8134   20162613.1114
   1498968.44844   1168028.06944  21230050.0664   21230050.5714
  -2692958.87144  -2098407.44344  22718706.7774   22718708.2384
   8215235.19744   6401480.01644  21868780.2964   21868780.9074
   1646858.86344   1283270.76444  24059516.2644   24059519.3544
  -2604522.81944  -2029496.00744  24528082.5384   24528081.0504
  -2717976.23044  -2117901.16544  23556230.6204   23556230.9234
 95  2 22  0 23 30.0000000  0  8G12G 7G 2G26G27G15G 9G 4
  -7745604.155 4  -6035527.372 4  22877582.332    22877580.002
  -4034283.17144  -3143593.31344  20163176.4264   20163176.7434
   1521015.90944   1185207.91844  21234245.4744   21234246.2594
  -2676584.46344  -2085648.15044  22721822.5214   22721824.2274
   8303424.40544   6470198.85644  21885562.0074   21885562.5034
   1696614.02644   1322041.05344  24068984.5434   24068985.3014
  -2704227.20444  -2107187.66644  24509109.2494   24509108.7304
  -2817973.37544  -2195820.92644  23537201.8044   23537203.4234
 95  2 22  0 24  0.0000000  0  8G12G 7G 2G26G27G15G 9G 4
  -7821087.649 4  -6094345.619 4  22863218.191    22863215.797
  -4030896.18544  -3140954.08144  20163820.7624   20163821.1504
   1543196.11844   1202491.20244  21238466.3054   21238467.3064
  -2659737.95844  -2072520.98944  22725028.6044   22725029.9514
   8391936.30944   6539169.15044  21902405.1554   21902406.0084
   1746879.14644   1361208.65244  24078549.3254   24078553.3174
  -2803897.80044  -2184852.96144  24490142.5704   24490142.8334
  -2917879.82144  -2273670.04044  23518189.9664   23518191.2324
 95  2 22  0 24 30.0000000  0  8G12G 7G 2G26G27G15G 9G 4
  -7896508.743 4  -6153115.243 4  22848865.960    22848863.592
  -4027088.06444  -3137986.69544  20164545.4714   20164545.8124
   1565517.19044   1219884.25044  21242713.7794   21242714.4524
  -2642419.02044  -2059025.69444  22728324.6574   22728325.6474
   8480770.37944   6608390.48644  21919309.5554   21919310.0224
   1797652.14144   1400772.03244  24088210.2284   24088212.2174
  -2903548.06644  -2262502.41944  24471179.3274   24471178.0504
  -3017704.64044  -2351455.52844  23499194.0404   23499194.6674
 95  2 22  0 25  0.0000000  0  8G12G 7G 2G26G27G15G 9G 4
  -7971852.955 4  -6211824.957 4  22834528.379    22834526.209
  -4022843.48544  -3134679.21544  20165353.3214   20165353.6814
   1588012.57644   1237413.12844  21246994.4904   21246995.0174
  -2624622.68244  -2045158.40644  22731711.1844   22731712.0194
   8569957.23744   6677886.71844  21936281.1914   21936282.0024
   1848944.30244   1440739.95644  24097971.2524   24097975.7594
  -3003152.30844  -2340115.98244  24452225.3084   24452226.3354
  -3117439.54744  -2429170.99044  23480214.8324   23480216.6544
 95  2 22  0 25 30.0000000  0  8G12G 7G 2G26G27G15G 9G 4
  -8047130.580 4  -6270482.786 4  22820203.424    22820201.608
  -4018166.59244  -3131034.86944  20166243.2904   20166243.7314
   1610679.88544   1255075.97644  21251307.9574   21251308.4694
  -2606366.59844  -2030932.89744  22735185.1874   22735185.4194
   8659497.67744   6747658.46744  21953320.3034   21953321.4894
   1900742.15844   1481101.94144  24107828.1164   24107829.9714
  -3102706.42944  -2417690.49644  24433280.3364   24433280.7984
  -3217104.35644  -2506831.81944  23461249.0324   23461251.0934
 95  2 22  0 26  0.0000000  0  8G12G 7G 2G26G27G15G 9G 4
  -8122347.972 4  -6329093.676 4  22805889.955    22805888.238
  -4013056.10644  -3127052.66044  20167215.7314   20167216.1974
   1633518.72644   1272872.48144  21255654.1264   21255654.6434
  -2587639.95644  -2016340.67444  22738748.6124   22738749.3704
   8749388.54044   6817703.26444  21970426.0784   21970426.8434
   1953036.66144   1521850.91044  24117779.6724
  -3202210.93744  -2495226.33244  24414344.7734   24414345.1944
  -3316722.19444  -2584456.08544  23442292.3414   23442294.2634
 95  2 22  0 26 30.0000000  0  8G12G 7G 2G26G27G15G 9G 4
  -8197491.505 4  -6387647.017 4  22791590.478    22791588.684
  -4007483.38744  -3122710.27044  20168276.3434   20168276.7794
   1656559.82344   1290826.59144  21260038.6574   21260039.2734
  -2568425.40344  -2001368.29044  22742404.9304   22742406.1074
   8839645.30344   6888033.17944  21987601.3454   21987602.3274
   2005838.07744                  24127827.5294
  -3301635.64344  -2572700.02344  24395424.6664   24395423.3774
  -3416287.23144  -2662039.16444  23423345.7484   23423346.8174
 95  2 22  0 27  0.0000000  0  8G12G 7G 2G26G27G15G 9G 4
  -8272542.880 4  -6446128.546 4  22777308.555    22777306.813
  -4001414.32844  -3117981.12444  20169431.1034   20169431.4774
   1679808.64344   1308942.56344  21264462.8514   21264463.2204
  -2548707.25844  -1986003.48944  22746157.2374   22746157.5424
   8930274.07044   6958652.96944  22004847.3944   22004848.4024
   2059161.49544   1604545.57044  24137974.3864
  -3400949.12144  -2650086.98544  24376525.7094   24376525.6334
  -3515777.57344  -2739564.05444  23404413.3634   23404413.3654
 95  2 22  0 27 30.0000000  0  8G12G 7G 2G26G27G15G 9G 4
  -8347518.911 4  -6504551.370 4  22763040.993    22763039.361
  -3994889.61044  -3112896.91644  20170672.5434   20170672.9694
   1703244.09344   1327203.96544  21268922.6164   21268923.0184
  -2528488.21444  -1970248.38644  22750005.0134   22750005.5794
   9021242.56344   7029537.48144  22022158.1944   22022159.1084
   2112986.80444   1646487.31344  24148217.3014
  -3500173.75044  -2727404.77644  24357643.8714   24357644.2964
  -3615200.31444  -2817036.26944  23385493.5164   23385495.1014
 95  2 22  0 28  0.0000000  0  8G12G 7G 2G26G27G15G 9G 4
  -8422404.469 4  -6562903.697 4  22748790.704    22748789.096
  -3987903.64644  -3107453.29844  20172002.1034   20172002.4304
   1726881.20944   1345622.50544  21273420.4914   21273420.9064
  -2507756.25444  -1954093.60444  22753950.0244   22753950.4214
   9112564.23144   7100697.19744  22039536.1974   22039536.9824
   2167326.09644   1688829.60844  24158558.0164
  -3599305.73244  -2804650.32844  24338779.6174   24338782.9194
  -3714527.40044  -2894433.94144  23366591.9844   23366593.3114
 95  2 22  0 28 30.0000000  0  8G12G 7G 2G26G27G15G 9G 4
  -8497196.969 4  -6621183.512 4  22734558.216    22734556.435
  -3980468.06344  -3101659.32644  20173417.1134   20173417.4384
   1750723.78944   1364201.14544  21277957.4634   21277957.9424
  -2486517.01544  -1937543.54144  22757991.6574   22757992.2504
   9204236.04744   7172129.75744  22056980.8184   22056981.5204
   2222178.87644   1731572.08044  24168996.1794   24168999.2364
  -3698349.21144  -2881826.94644  24319932.0864   24319935.2234
  -3813731.28044  -2971735.60244  23347714.1964   23347715.3804
 95  2 22  0 29  0.0000000  0  8G12G 7G 2G26G27G15G 9G 4
  -8571905.138 4  -6679397.618 4  22720341.880    22720339.892
  -3972628.08244  -3095550.23744  20174908.8164   20174909.0344
   1774747.92444   1382921.25744  21282529.0304   21282529.4054
  -2464772.06344  -1920599.42344  22762129.1444   22762130.5564
   9296255.54344   7243833.23644  22074491.5304   22074491.9604
   2277533.18744   1774705.31144  24179529.7204   24179531.4724
  -3797317.52944  -2958944.99044  24301099.3994   24301100.0904
  -3912797.50044  -3048929.98644  23328862.8284   23328865.1664
 95  2 22  0 29 30.0000000  0  8G12G 7G 2G26G27G15G 9G 4
  -8646525.497 4  -6737543.302 4  22706142.134    22706140.145
  -3964402.22644  -3089140.46244  20176474.0804   20176474.4294
   1798952.36044   1401781.86544  21287135.0164   21287135.3424
  -2442519.55244  -1903259.79944  22766363.7274   22766365.1804
   9388638.89044   7315820.24044  22092071.5404   22092072.2344
   2333388.84944   1818229.23844  24190158.7044
  -3896213.53144  -3036006.80344  24282279.8694   24282283.0514
  -4011719.36244  -3126011.89244  23310038.5424   23310040.2874
 95  2 22  0 30  0.0000000  0  8G12G 7G 2G26G27G15G 9G 4
  -8721071.392 4  -6795630.966 4  22691956.449    22691954.465
  -3955792.01244  -3082431.18844  20178112.5564   20178112.7954
   1823306.45544   1420759.08844  21291769.3884   21291769.8314
  -2419794.11444  -1885551.66144  22770688.2894   22770688.8354
   9481363.64344   7388073.26544  22109716.4284   22109717.3734
   2389729.45844   1862131.01844  24200879.8274   24200876.6934
  -3995056.31244  -3113027.08844  24263470.8184   24263472.7014
  -4110514.05444  -3202994.71744  23291238.3894   23291241.4844
 95  2 22  0 30 30.0000000  0  8G12G 7G 2G26G27G15G 9G 4
  -8795536.008 4  -6853655.294 4  22677786.118    22677784.140
  -3946786.86644  -3075414.17544  20179826.0874   20179826.3884
   1847806.17344   1439849.78444  21296431.6994   21296432.1454
  -2396590.36844  -1867470.81644  22775103.9854   22775104.4364
   9574424.41544   7460588.12044  22127425.0964   22127426.1714
   2446558.49444   1906413.35844  24211693.5294   24211697.7844
  -4093834.76544  -3189997.21244  24244674.3084   24244673.8894
  -4209177.06644  -3279874.90644  23272463.4344   23272464.6384
 95  2 22  0 31  0.0000000  0  8G12G 7G 2G26G27G15G 9G 4
  -8869934.404 4  -6911628.023 4  22663628.375    22663626.455
  -3937386.37744  -3068089.10244  20181614.7524   20181615.1734
   1872426.25144   1459034.26444  21301116.7674   21301117.2074
  -2372926.73544  -1849031.63044  22779607.1714   22779607.7494
   9667805.88144   7533352.87644  22145195.0824   22145195.7574
   2503857.44944   1951061.90544  24222597.1524   24222600.9024
  -4192564.76544  -3266929.63544  24225886.5204   24225889.8284
  -4307749.92244  -3356684.83744  23253706.0924   23253707.6884
 95  2 22  0 31 30.0000000  0  8G12G 7G 2G26G27G15G 9G 4
  -8944256.871 4  -6969541.586 4  22649485.142    22649483.318
  -3927559.12944  -3060431.48644  20183484.8544   20183485.3034
   1897179.95244   1478322.86844  21305827.0924   21305827.5474
  -2348813.22544  -1830241.88944  22784195.8404   22784196.8114
   9761497.72744   7606359.47544  22163024.0324   22163024.5834
   2561632.73244   1996081.60244  24233591.5644   24233593.4414
  -4291236.65944  -3343816.75144  24207109.9024   24207110.5034
  -4406236.88144  -3433427.83044  23234964.8594   23234965.1704
 95  2 22  0 32  0.0000000  0  8G12G 7G 2G26G27G15G 9G 4
  -9018498.742 4  -7027392.341 4  22635357.393    22635355.893
  -3917281.17844  -3052422.67544  20185440.5164   20185441.0964
   1922081.60444   1497726.75644  21310565.8284   21310566.2574
  -2324255.83644  -1811106.33344  22788868.8204   22788869.7544
   9855496.82944   7679605.50544  22180911.3584   22180912.7394
   2619885.15244   2041473.13844  24244676.7494   24244676.4584
  -4389843.37044  -3420653.11144  24188345.5964   24188346.5994
  -4504626.37044  -3510094.86944  23216241.6354   23216242.7614
 95  2 22  0 32 30.0000000  0  8G12G 7G 2G26G27G15G 9G 4
  -9092648.328 4  -7085171.183 4  22621247.234    22621245.885
  -3906546.84644  -3044058.24244  20187483.3054   20187483.8944
   1947149.83244   1517260.44944  21315336.0884   21315336.5644
  -2299235.41144  -1791609.78644  22793630.0584   22793630.2004
   9949820.82944   7753104.68744  22198860.6584   22198862.2324
   2678623.58144   2087243.33544  24255854.4824   24255850.8614
  -4488366.94644  -3497424.65344  24169597.0264   24169599.8924
  -4602898.79544  -3586670.69544  23197540.6414   23197540.9364
 95  2 22  0 33  0.0000000  0  8G12G 7G 2G26G27G15G 9G 4
  -9166721.642 4  -7142890.594 4  22607151.713    22607150.173
  -3895375.99944  -3035353.66844  20189609.0474   20189609.5174
   1972381.06144   1536921.14044  21320137.4404   21320138.0454
  -2273781.98644  -1771775.96244  22798473.8254   22798474.5334
  10044450.83444   7826842.34144  22216868.2414   22216869.0744
   2737828.10944   2133376.77944  24267120.7574   24267122.9114
  -4586824.46444  -3574144.74744  24150861.1324   24150863.4574
  -4701073.53844  -3663170.39044  23178858.1474   23178859.7734
 95  2 22  0 33 30.0000000  0  8G12G 7G 2G26G27G15G 9G 4
  -9240691.273 4  -7200529.214 4  22593075.797    22593074.024
  -3883753.67844  -3026297.30144  20191820.5804   20191821.0804
   1997813.45644   1556738.58744  21324976.7924   21324977.5184
  -2247882.94944  -1751594.89344  22803402.1764   22803403.7404
  10139406.16044   7900833.47344  22234937.7434   22234938.9094
   2797522.60544   2179891.99644  24278480.5694   24278481.2424
  -4685189.77644  -3650792.97344  24132142.7384   24132143.7714
  -4799099.75644  -3739554.37244  23160204.3494   23160205.1434
 95  2 22  0 34  0.0000000  0  8G12G 7G 2G26G27G15G 9G 4
  -9314552.174 4  -7258083.104 4  22579020.399    22579018.574
  -3871688.11144  -3016895.54644  20194116.7994   20194116.8714
   2023442.97244   1576709.64344  21329854.0984   21329854.7314
  -2221522.01544  -1731053.92444  22808418.5454   22808419.5494
  10234682.86244   7975075.03844  22253068.4434   22253069.0784
   2857709.01544   2226790.47744  24289933.5194   24289938.1474
  -4783465.50044  -3727371.38544  24113441.7484   24113444.1994
  -4896972.31044  -3815818.59244  23141580.1494   23141581.7614
 95  2 22  0 34 30.0000000  0  8G 2G12G 7G26G27G15G 9G 4
   2049279.83844   1596842.26944  21334770.6074   21334771.0224
  -9388295.591 4  -7315545.452 4  22564987.224    22564985.600
  -3859190.35644  -3007157.02144  20196495.1964   20196495.2894
  -2194683.80744  -1710141.03544  22813525.7114   22813526.9654
  10330283.24544   8049568.81444  22271260.6744   22271261.6094
   2918392.21044   2274076.12744  24301481.2414   24301480.8084
  -4881639.34844  -3803870.42444  24094759.7544   24094760.2564
  -4994688.04844  -3891960.61744  23122985.5514   23122985.9204
 95  2 22  0 35  0.0000000  0  8G 2G12G 7G26G27G15G 9G 4
   2075326.35344   1617138.25944  21339727.1994   21339727.6394
  -9461929.062 4  -7372922.127 4  22550975.016    22550973.529
  -3846271.56244  -2997090.41344  20198953.4984   20198953.7394
  -2167369.79144  -1688857.38044  22818723.4824   22818723.7774
  10426196.79444   8124306.62044  22289512.5394   22289513.4904
   2979560.78644   2321739.95944  24313121.3184   24313121.5534
  -4979715.38144  -3880293.20844  24076096.5044   24076095.8624
  -5092256.04744  -3967987.53844  23104418.8004   23104419.7864
 95  2 22  0 35 30.0000000  0  8G 2G12G 7G26G27G15G 9G 4
   2101553.28944   1637574.84144  21344718.0404   21344718.4114
  -9535460.679 4  -7430219.431 4  22536982.375    22536980.743
  -3832938.62244  -2986701.09244  20201490.5914   20201490.9174
  -2139573.37444  -1667197.82444  22824012.9834   22824013.2484
  10522409.21444   8199277.30844  22307821.0414   22307821.7624
   3041203.31344   2369773.10044  24324850.7644
  -5077686.79844  -3956634.47544  24057453.5504   24057454.5054
  -5189673.98744  -4043897.52944  23085880.4314   23085881.5424
 95  2 22  0 36  0.0000000  0  8G12G 7G 2G26G27G15G 9G 4
  -9608893.043 4  -7487439.396 4  22523008.703    22523006.886
  -3819197.30344  -2975993.55644  20204105.3734   20204105.8204
   2127947.12144   1658141.47244  21349740.6614   21349740.9984
  -2111282.44744  -1645152.93644  22829396.0644   22829397.0094
  10618932.59144   8274490.31044  22326189.0174   22326189.8944
   3103313.87144   2418170.91444  24336670.2134   24336671.7504
  -5175544.67344  -4032887.25744  24038831.8624   24038832.0094
  -5286944.08044  -4119692.31344  23067370.1554   23067372.2474
 95  2 22  0 36 30.0000000  0  8G 2G12G 7G26G27G15G 9G 4
   2154516.61444   1678844.98244  21354796.6854   21354797.2444
  -9682231.043 4  -7544585.836 4  22509053.076    22509050.993
  -3805047.04644  -2964967.36844  20206798.0134   20206798.4854
  -2082506.63444  -1622730.21644  22834872.0834   22834872.7734
  10715768.55244   8349946.87544  22344616.2744   22344616.9324
   3165883.54344   2466926.47744  24348577.1574
  -5273286.85244  -4109049.87644  24020231.8504   24020232.7394
  -5384063.06244  -4195369.35844  23048889.0224   23048891.0634
 95  2 22  0 37  0.0000000  0  8G 2G12G 7G26G27G15G 9G 4
   2181279.67944   1699699.32544  21359889.5624   21359890.1124
  -9755444.589 4  -7601635.300 4  22495121.034    22495118.838
  -3790453.72744  -2953595.93744  20209575.1954   20209575.4764
  -2053224.37344  -1599912.87544  22840444.4124   22840445.1894
  10812932.64244   8425659.11444  22363105.7684   22363107.1934
   3228938.85644   2516060.53644  24360576.0854   24360575.6664
  -5370880.20944  -4185096.53244  24001660.1954   24001660.5344
  -5481006.76544  -4270909.82644  23030441.4834   23030442.7214
 95  2 22  0 37 30.0000000  0  8G 2G12G 7G26G27G15G 9G 4
   2208192.02244   1720669.98944  21365010.8664   21365011.3004
  -9828563.343 4  -7658610.906 4  22481206.904    22481204.830
  -3775455.31044  -2941908.84644  20212429.2934   20212429.4764
  -2023485.09444  -1576739.40744  22846103.6724   22846104.6984
  10910387.63744   8501598.03644  22381650.7854   22381651.7394
   3292446.60244   2565547.09644  24372660.8344
  -5468364.15544  -4261057.92944  23983109.3984   23983110.1024
  -5577810.67444  -4346341.35544  23012020.3604   23012021.2644
 95  2 22  0 38  0.0000000  0  8G 2G12G 7G26G27G15G 9G 4
   2235299.78044   1741792.92444  21370169.2034   21370169.5964
  -9901561.722 4  -7715492.715 4  22467315.831    22467313.957
  -3760039.96344  -2929896.87344  20215362.4754   20215362.7464
  -1993285.65444  -1553207.37044  22851850.2824   22851850.7584
  11008160.55844   8577784.68944  22400256.3774   22400257.3774
   3356428.46344   2615403.12644  24384835.3814
  -5565739.54444  -4336934.73144  23964579.1824   23964579.7194
  -5674469.45444  -4421659.79544  22993626.6504   22993627.4524
 95  2 22  0 38 30.0000000  0  8G 2G12G 7G26G27G15G 9G 4
   2262585.17644   1763054.27944  21375361.4014   21375361.9434
  -9974459.265 4  -7772295.944 4  22453443.920    22453442.327
  -3744230.38544  -2917577.70744  20218370.9864   20218371.1324
  -1962662.47544  -1529345.14444  22857678.0274   22857679.0394
  11106204.73344   8654182.72744  22418913.6484   22418914.6024
   3420860.69444   2665610.03444  24397097.1924   24397098.9804
  -5663034.36644  -4412748.76544  23946064.3514   23946065.0964
  -5771011.68744  -4496887.43944  22975255.0264   22975255.8994
 95  2 22  0 39  0.0000000  0  8G 2G12G 7G26G27G15G 9G 4
   2290055.57244   1784459.79244  21380588.7384   21380589.2204
 -10047226.423 4  -7828997.577 4  22439596.622    22439595.277
  -3728005.34744  -2904934.80944  20221458.7134   20221458.7904
  -1931601.90644  -1505142.08744  22863588.6534   22863589.3684
  11204554.79444   8730819.10944  22437629.3114   22437630.8824
   3485769.33844   2716188.20344  24409449.1924
  -5760219.21844  -4488477.11144  23927570.6924   23927572.3904
  -5867409.58344  -4572002.61744  22956911.0964   22956911.3434
 95  2 22  0 39 30.0000000  0  8G 2G12G 7G26G27G15G 9G 4
   2317713.12444   1806011.13744  21385851.7414   21385852.3004
 -10119859.901 4  -7885595.045 4  22425774.808    22425773.300
  -3711364.87544  -2891968.19944  20224625.3624   20224625.4694
  -1900104.50944  -1480598.65144  22869582.3124   22869582.7894
  11303223.71844   8807703.95444  22456405.4704   22456406.4444
   3551153.87044   2767137.19244  24421891.4454   24421891.6294
  -5857299.95544  -4564124.35144  23909096.6464   23909096.3904
  -5963639.77744  -4646987.13144  22938599.1764   22938601.3474
 95  2 22  0 40  0.0000000  0  8G 2G12G 7G26G27G15G 9G 4
   2345549.82744   1827702.08244  21391148.9344   21391149.4374
 -10192372.380 4  -7942098.232 4  22411976.087    22411974.393
  -3694314.17344  -2878681.92644  20227869.9274   20227870.2654
  -1868182.10344  -1455724.04244  22875657.1504   22875657.5724
  11402193.60544   8884823.31444  22475238.7474   22475239.2054
   3616997.82144   2818444.14944  24434420.8124   24434423.6894
  -5954274.99944  -4639689.22944  23890642.8724   23890645.2004
  -6059692.10844  -4721833.04844  22920321.0574   22920321.9394
 95  2 22  0 40 30.0000000  0  8G 2G12G 7G26G27G15G 9G 4
   2373557.67044   1849526.38144  21396478.7994   21396479.3634
 -10264752.625 4  -7998498.376 4  22398202.669    22398200.812
  -3676846.03544  -2865070.37844  20231193.9074   20231194.2204
  -1835819.70344  -1430506.58444  22881815.3324   22881816.2314
  11501471.64944   8962182.78844  22494130.6834   22494131.7434
   3683308.67244   2870114.99044  24447039.6594   24447039.6854
  -6051109.99344  -4715144.97544  23872215.5794   23872216.0354
  -6155524.02244  -4796507.20744  22902084.9354   22902086.3104
 95  2 22  0 41  0.0000000  0  8G 2G12G 7G26G27G15G 9G 4
   2401741.61744   1871487.90344  21401842.2304   21401842.4314
 -10337006.560 4  -8054800.097 4  22384453.200    22384451.351
  -3658976.28744  -2851145.88944  20234594.4264   20234594.6814
  -1803019.91244  -1404948.30244  22888056.9834   22888057.7444
  11601068.59544   9039790.76944  22513083.1204   22513084.8174
   3750076.63044   2922141.96044  24459745.4074   24459749.3324
  -6147806.39944  -4790492.74344  23853814.9464   23853815.1334
  -6251138.28444  -4871011.76144  22883889.9644   22883890.6434
 95  2 22  0 41 30.0000000  0  8G 2G12G 7G26G27G15G 9G 4
   2430125.84544   1893605.48644  21407243.6234   21407243.8334
 -10409139.352 4  -8111007.419 4  22370726.569    22370724.831
  -3640721.02844  -2836921.00544  20238068.3264   20238068.3624
  -1769782.25544  -1379048.81744  22894381.6984   22894382.7894
  11700961.44144   9117629.32344  22532091.9544   22532093.5474
   3817292.54044   2974517.99544  24472536.1264   24472535.8174
  -6244370.02544  -4865737.04944  23835439.6034   23835441.0874
  -6346545.54144  -4945355.00244  22865734.4074   22865736.1254
 95  2 22  0 42  0.0000000  0  8G 2G12G 7G26G27G15G 9G 4
   2458714.49344   1915882.35444  21412683.5764   21412683.9324
 -10481145.402 4  -8167115.982 4  22357024.095    22357022.392
  -3622072.63944  -2822389.78544  20241616.9754   20241617.0514
  -1736101.44744  -1352804.01744  22900790.8764   22900791.6734
  11801148.18644   9195696.89944  22551156.7884   22551157.9754
   3884957.84444   3027244.24744  24485412.0774   24485415.2424
  -6340791.17844  -4940870.34544  23817091.2334   23817090.8094
  -6441754.26344  -5019543.55144  22847616.6844   22847618.1764
 95  2 22  0 42 30.0000000  0  8G12G 7G 2G26G27G15G 9G 4
 -10553028.942 4  -8223129.082 4  22343345.039    22343343.269
  -3603042.42344  -2807561.03644  20245238.1284   20245238.5044
   2487491.90344   1938306.31044  21418159.6234   21418160.0174
  -1701971.49844  -1326209.24244  22907285.8004   22907286.4214
  11901624.33744   9273989.99244  22570276.8734   22570278.4164
   3953064.75644   3080314.56044  24498372.2234   24498374.9774
  -6437074.12344  -5015895.94644  23798769.1224   23798770.9724
  -6536794.34244  -5093600.69244  22829531.2654   22829531.9634
 95  2 22  0 43  0.0000000  0  8G12G 7G 2G26G27G15G 9G 4
 -10624781.115 4  -8279039.816 4  22329690.938    22329689.405
  -3583612.81644  -2792421.07144  20248935.6774   20248936.0034
   2516473.62144   1960889.46944  21423674.7914   21423675.1594
  -1667382.54044  -1299256.80444  22913867.5924   22913868.0644
  12002387.71144   9352506.89144  22589451.5984   22589452.6864
   4021617.96044   3133732.67344  24511416.9234   24511420.6974
  -6533218.64444  -5090813.66744  23780473.2534   23780472.9094
  -6631670.50644  -5167530.11244  22811476.8764   22811477.5564
 95  2 22  0 43 30.0000000  0  8G12G 7G 2G26G27G15G 9G 4
 -10696394.112 4  -8334842.101 4  22316063.412    22316062.054
  -3563767.07144  -2776956.84844  20252712.1864   20252712.2494
   2545644.47744   1983620.00844  21429225.8954   21429226.3494
  -1632334.97244  -1271947.01944  22920536.8444   22920536.5664
  12103424.09144   9431236.49144  22608678.3354   22608680.1434
   4090621.05744   3187501.29144  24524547.5494
  -6629220.23144  -5165620.03944  23762204.7244   23762205.2034
  -6726366.56444  -5241319.18744  22793456.6454   22793458.0274
 95  2 22  0 44  0.0000000  0  8G12G 7G 2G26G27G15G 9G 4
 -10767920.970 4  -8390577.264 4  22302452.326    22302450.898
  -3543550.01444  -2761203.28944  20256559.2484   20256559.4204
   2574923.62944   2006434.93244  21434797.5724   21434798.0294
  -1596885.10144  -1244323.75544  22927282.7714   22927283.3404
  12204690.91544   9510145.68744  22627948.9114   22627950.4314
   4160017.19344                  24537753.5204
  -6725127.66144  -5240353.04044  23743954.0714   23743955.7354
  -6820925.69744  -5315001.56344  22775462.5304   22775463.2354
 95  2 22  0 44 30.0000000  0  8G12G 7G 2G26G27G15G 9G 4
 -10839334.400 4  -8446224.042 4  22288862.873    22288861.155
  -3522949.94044  -2745151.27244  20260479.2734   20260479.5634
   2604354.81844   2029368.32644  21440398.2544   21440398.7054
  -1561016.61944  -1216374.29544  22934108.3204   22934108.7094
  12306214.25744   9589254.74844  22647268.3574   22647269.6924
   4229829.48944                  24551038.5524
  -6820915.41344  -5314992.76644  23725726.3504   23725727.7574
  -6915315.38444  -5388551.91244  22757501.0184   22757501.1604
 95  2 22  0 45  0.0000000  0  8G12G 7G 2G26G27G15G 9G 4
 -10910580.806 4  -8501740.675 4  22275305.059    22275303.222
  -3501920.54344  -2728764.71744  20264481.1074   20264481.2404
   2634014.01244   2052479.38844  21446041.8944   21446042.3394
  -1524700.00944  -1188075.65344  22941018.9884   22941019.7224
  12408044.36444   9668602.83644  22666646.1054   22666647.9334
   4300107.58544   3350737.58544  24564412.3874   24564411.3184
  -6916548.08144  -5389511.65444  23707527.7274   23707527.0254
  -7009463.61244  -5461914.08544  22739585.5944   22739585.7434
 95  2 22  0 45 30.0000000  0  8G12G 7G 2G26G27G15G 9G 4
 -10981673.478 4  -8557137.517 4  22261776.426    22261774.880
  -3480486.41144  -2712062.78244  20268559.9864   20268560.0464
   2663885.26344   2075755.69144  21451726.3024   21451726.6304
  -1487959.10444  -1159446.38444  22948010.4184   22948011.5254
  12510173.55444   9748183.98544  22686080.6864   22686082.0124
   4370833.97544   3405849.08044  24577871.6104
  -7012034.10544  -5463916.27444  23689357.3214   23689358.6164
  -7103385.53544  -5535099.92244  22721712.6874   22721712.7564
 95  2 22  0 46  0.0000000  0  8G12G 7G 2G26G27G15G 9G 4
 -11052630.058 4  -8612428.316 4  22248273.723    22248272.383
  -3458673.88344  -2695065.99244  20272710.5894   20272710.7014
   2693961.94144   2099192.06944  21457449.9034   21457450.1214
  -1450811.54844  -1130500.24544  22955079.5984   22955080.2514
  12612583.75344   9827984.10344  22705568.4874   22705569.3954
   4441987.00644   3461292.97144  24591411.5484   24591413.6864
  -7107390.43244  -5538219.83744  23671211.7584   23671211.9774
  -7197102.59144  -5608126.13144  22703878.5784   22703879.3264
 95  2 22  0 46 30.0000000  0  7G12G 7G 2G26G27G 9G 4
 -11123438.070 4  -8667603.347 4  22234799.409    22234798.065
  -3436488.93444  -2677779.00444  20276932.1944   20276932.1854
   2724267.46544   2122806.76644  21463216.8964   21463216.9754
  -1413260.63844  -1101239.80044  22962225.4264   22962226.2374
  12715264.86644   9907995.33844  22725107.6824   22725108.3684
  -7202609.55944  -5612416.48444  23653091.8764   23653092.2784
  -7290604.56144  -5680984.74244  22686085.3324   22686087.2434
 95  2 22  0 47  0.0000000  0  7G12G 7G 2G26G27G 9G 4
 -11194111.511 4  -8722673.517 4  22221350.774    22221349.148
  -3413944.29044  -2660211.73144  20281222.3404   20281222.5634
   2754760.67144   2146567.71344  21469019.3414   21469019.5924
  -1375321.06544  -1071676.49144  22969444.6584   22969445.2104
  12818196.16244   9988201.51344  22744694.9884   22744696.6934
  -7297705.60444  -5686517.21544  23634995.9334   23634995.5114
  -7383907.26544  -5753688.09644  22668330.1414   22668331.5964
 95  2 22  0 47 30.0000000  0  7G12G 7G 2G26G27G 9G 4
 -11264628.438 4  -8777621.732 4  22207931.784    22207930.010
  -3391018.12044  -2642347.16644  20285585.0334   20285585.2314
   2785441.22044   2170474.63544  21474857.5384   21474857.8884
  -1336963.90644  -1041787.79444  22976743.2764   22976744.4514
  12921390.87044  10068612.93444  22764332.2714   22764333.4824
  -7392645.25044  -5760496.07044  23616929.3074   23616929.9224
  -7476990.01144  -5826220.06344  22650617.1784   22650618.4964
 95  2 22  0 48  0.0000000  0  7G12G 7G 2G26G27G 9G 4
 -11334981.707 4  -8832442.424 4  22194543.892    22194542.117
  -3367705.12244  -2624181.18044  20290021.2484   20290021.2914
   2816325.29744   2194540.15244  21480734.5654   21480735.0664
  -1298178.64144  -1011565.50744  22984124.0884   22984125.0434
  13024850.91144  10149231.12044  22784020.2614   22784021.2774
  -7487426.59344  -5834351.57644  23598893.0274   23598892.9864
  -7569829.87944  -5898562.76244  22632950.5484   22632951.1754
 95  2 22  0 48 30.0000000  0  7G12G 7G 2G26G27G 9G 4
 -11405179.687 4  -8887142.105 4  22181185.664    22181183.991
  -3344019.59244  -2605724.90644  20294528.7024   20294528.7054
   2847401.10944   2218755.07044  21486648.0034   21486648.4644
  -1258971.63344   -981014.60044  22991585.6164   22991586.4004
  13128571.05144  10230051.97544  22803757.7734   22803758.8094
  -7582055.11444  -5908088.02544  23580885.8174   23580886.6934
  -7662431.59644  -5970719.89044  22615329.0724   22615330.3144
 95  2 22  0 49  0.0000000  0  7G12G 7G 2G26G27G 9G 4
 -11475241.296 4  -8941735.522 4  22167853.325    22167851.946
  -3319966.97544  -2586982.59644  20299105.6634   20299105.6114
   2878638.66944   2243096.03344  21492592.4294   21492592.7914
  -1219344.85944   -950136.59844  22999126.9924   22999126.0884
  13232546.32944  10311071.64944  22823543.7694   22823545.8604
  -7676539.90344  -5981712.47244  23562905.7714   23562906.8224
  -7754802.26544  -6042696.98144  22597751.3684   22597752.2414
 95  2 22  0 49 30.0000000  0  7G12G 7G 2G26G27G 9G 4
 -11545127.649 4  -8996192.379 4  22154554.346    22154553.075
  -3295502.34944  -2567919.23744  20303761.0244   20303761.0904
   2910089.00644   2267602.79244  21498577.2904   21498577.4844
  -1179258.90244   -918900.78944  23006755.1994   23006754.8344
  13336811.76844  10392317.40644  22843384.8554   22843386.2164
  -7770832.32444  -6055187.00444  23544962.3664   23544963.6564
  -7846900.48644  -6114461.76344  22580225.5234   22580226.2604
 95  2 22  0 50  0.0000000  0  7G12G 7G 2G26G27G 9G 4
 -11614872.774 4  -9050539.187 4  22141282.207    22141280.915
  -3270658.62944  -2548560.48044  20308488.6354   20308488.8904
   2941718.33844   2292249.02544  21504596.1304   21504596.3604
  -1138759.94344   -887343.15344  23014461.6064   23014461.0464
  13441325.52544  10473756.67244  22863273.1324   22863273.6564
  -7864950.18744  -6128525.55244  23527052.2844   23527052.2644
  -7938770.26944  -6186048.55444  22562743.2474   22562743.5594
 95  2 22  0 50 30.0000000  0  7G12G 7G 2G26G27G 9G 4
 -11684459.449 4  -9104762.528 4  22128040.162    22128038.856
  -3245421.10744  -2528894.86544  20313291.3234   20313291.5234
   2973521.15944   2317030.44444  21510648.0654   21510648.4474
  -1097848.47044   -855464.07444  23022246.5004   23022246.6824
  13546101.54644  10555400.30744  22883211.3854   22883212.8384
  -7958873.26644  -6201712.28344  23509179.0144   23509179.2314
  -8030404.25444  -6257451.60344  22545305.8194   22545306.2424
 95  2 22  0 51  0.0000000  0  7G12G 7G 2G26G27G 9G 4
 -11753881.234 4  -9158857.386 4  22114829.496    22114828.333
  -3219781.72444  -2508916.11344  20318170.2064   20318170.3864
   3005498.49944   2341947.85844  21516733.2344   21516733.7354
  -1056538.16844   -823274.23244  23030107.4184   23030108.5284
  13651141.61844  10637249.69744  22903199.8434   22903200.4334
  -8052595.73344  -6274742.71244  23491343.9404   23491344.3574
  -8121802.42844  -6328670.88944  22527913.5174   22527914.0874
 95  2 22  0 51 30.0000000  0  7G12G 7G 2G26G27G 9G 4
 -11823164.147 4  -9212844.032 4  22101645.436    22101644.318
  -3193785.10344  -2488658.99544  20323116.9414   20323117.3234
   3037632.53444   2366987.37144  21522847.9874   21522848.5144
  -1014871.82144   -790806.94844  23038036.1814   23038036.5434
  13756404.13244  10719272.40044  22923230.7664   22923232.2984
  -8146153.08044  -6347644.45544  23473540.6504   23473541.1664
  -8213002.38044  -6399735.71544  22510558.9884   22510559.5144
 95  2 22  0 52  0.0000000  0  7G12G 7G 2G26G27G 9G 4
 -11892293.601 4  -9266711.096 4  22088490.577    22088489.479
  -3167437.91244  -2468128.70744  20328130.5724   20328130.8544
   3069935.48744   2392158.50844  21528994.8624   21528995.4104
   -972841.54544   -758056.07644  23046034.3324   23046035.1694
  13861905.14444  10801480.94744  22943306.8854   22943308.0504
  -8239552.10444  -6420422.85444  23455767.6384   23455769.1934
  -8303983.04244  -6470629.66644  22493245.9204   22493246.7024
 95  2 22  0 52 30.0000000  0  7G12G 7G 2G26G27G 9G 4
 -11961236.310 4  -9320432.643 4  22075371.135    22075369.955
  -3140711.94344  -2447303.26644  20333216.5964   20333216.7164
   3102446.15044   2417491.49644  21535181.2964   21535181.8184
   -930408.06044   -724991.03444  23054109.5024   23054110.3634
  13967682.91344  10883905.15644  22963435.7464   22963436.2374
  -8332780.06744  -6493067.94444  23438027.2694   23438027.8214
  -8394711.24944  -6541326.89544  22475980.7964   22475981.1944
 95  2 22  0 53  0.0000000  0  7G12G 7G 2G26G27G 9G 4
 -12029999.754 4  -9374014.504 4  22062285.807    22062284.540
  -3113620.71544  -2426193.20544  20338371.9794   20338372.1714
   3135179.98644   2442998.38544  21541410.2954   21541410.9984
   -887567.68444   -691608.92944  23062261.3374   23062262.7394
  14073713.79944  10966526.59144  22983612.5494   22983614.1334
  -8425846.09944  -6565586.84844  23420317.1664   23420317.2584
  -8485196.19844  -6611834.59344  22458761.8234   22458762.1344
 95  2 22  0 53 30.0000000  0  7G12G 7G 2G26G27G 9G 4
 -12098600.562 4  -9427469.637 4  22049231.406    22049230.123
  -3086186.18744  -2404815.63744  20343592.7064   20343592.4954
   3168130.86844   2468674.40744  21547680.8074   21547681.2914
   -844329.48844   -657916.83344  23070489.1734   23070490.0854
  14179968.61544  11049322.53044  23003832.2804   23003832.3104
  -8518772.03844  -6637996.61244  23402633.6824   23402633.7234
  -8575440.72844  -6682154.94744  22441588.6784   22441588.7854
 95  2 22  0 54  0.0000000  0  7G12G 7G 2G26G27G 9G 4
 -12167015.936 4  -9480780.277 4  22036212.438    22036211.055
  -3058381.02944  -2383149.26944  20348883.7694   20348883.5564
   3201313.94444   2494531.35744  21553995.3034   21553995.7924
   -800680.03744   -623904.27944  23078795.3874   23078796.0364
  14286465.63044  11132307.20344  23024097.9984   23024099.3714
  -8611527.18944  -6710273.28144  23384982.8064   23384983.9044
  -8665415.42444  -6752265.05344  22424466.8834   22424466.9464
 95  2 22  0 54 30.0000000  0  7G12G 7G 2G26G27G 9G 4
 -12235265.657 4  -9533961.837 4  22023224.995    22023223.626
  -3030220.45744  -2361205.95644  20354242.4704   20354242.4724
   3234705.27744   2520550.57844  21560349.5834   21560350.1564
   -756647.08444   -589592.89544  23087174.9284   23087175.1084
  14393170.78244  11215454.06044  23044403.3344   23044405.4094
  -8704107.59544  -6782413.78444  23367365.3544   23367366.4224
  -8755137.70344  -6822178.46344  22407393.5094   22407393.7604
 95  2 22  0 55  0.0000000  0  7G12G 7G 2G26G27G 9G 4
 -12303331.235 4  -9586999.912 4  22010272.661    22010271.353
  -3001696.23744  -2338979.28244  20359670.4044   20359670.5464
   3268318.14544   2546742.42544  21566745.7794   21566746.0384
   -712227.34044   -554980.12344  23095627.7824   23095628.5914
  14500096.01244  11298772.40344  23064750.5054   23064752.2094
  -8796483.49044  -6854394.94044  23349786.9494   23349788.5584
  -8844568.88244  -6891865.03844  22390375.1934   22390375.4504
 95  2 22  0 55 30.0000000  0  7G12G 7G 2G26G27G 9G 4
 -12371207.493 4  -9639890.464 4  21997356.278    21997355.022
  -2972802.38544  -2316464.58244  20365168.7774   20365169.0214
   3302133.29144   2573091.89544  21573180.7164   21573180.9274
   -667437.59544   -520079.04244  23104151.1544   23104152.3734
  14607254.80444  11382272.74044  23085142.0754   23085143.9914
  -8888645.78244  -6926209.64144  23332249.2094   23332249.8114
  -8933698.23944  -6961316.43344  22373414.4094   22373415.0454
 95  2 22  0 56  0.0000000  0  7G12G 7G 2G26G27G 9G 4
 -12438891.064 4  -9692630.870 4  21984476.519    21984475.247
  -2943540.18044  -2293662.85444  20370737.1664   20370737.4484
   3336146.08544   2599595.37644  21579653.1544   21579653.2984
   -622289.90744   -484899.03044  23112742.6064   23112743.2594
  14714649.58544  11465956.95944  23105578.3984   23105579.8144
  -8980585.25844  -6997850.73144  23314753.5624   23314753.8864
  -9022538.43144  -7030542.50044  22356508.4144   22356508.2574
 95  2 22  0 56 30.0000000  0  7G12G 7G 2G26G27G 9G 4
 -12506404.549 4  -9745238.745 4  21971629.094    21971627.807
  -2913930.35044  -2270590.25144  20376371.7074   20376371.5964
   3370334.02544   2626235.33444  21586158.7014   21586159.0494
   -576808.66244   -449459.10444  23121397.5044   23121398.1344
  14822261.95044  11549810.72144  23126056.1244   23126057.1694
  -9072337.44644  -7069345.88344  23297293.5694   23297294.1554
  -9111118.38344  -7099565.78744  22339652.4144   22339652.2684
 95  2 22  0 57  0.0000000  0  7G12G 7G 2G26G27G 9G 4
 -12573725.752 4  -9797696.791 4  21958818.140    21958816.945
  -2883953.61144  -2247231.74444  20382076.0284   20382075.9464
   3404715.57044   2653026.15244  21592701.4484   21592701.7504
   -530966.69544   -413738.10144  23130120.4014   23130122.1994
  14930116.59644  11633853.29444  23146580.0894   23146582.0374
  -9163890.03344  -7140685.47844  23279871.6974   23279872.1044
  -9199430.85344  -7168380.64444  22322847.0834   22322847.5124
 95  2 22  0 57 30.0000000  0  7G12G 7G 2G26G27G 9G 4
 -12640858.784 4  -9850008.212 4  21946042.949    21946041.862
  -2853618.05844  -2223593.64144  20387848.5054   20387848.4704
   3439279.81844   2679959.33644  21599278.8464   21599279.3854
   -484748.39044   -377723.85444  23138915.3034   23138916.9854
  15038211.46644  11718083.02444  23167149.9584   23167151.3414
  -9255250.43344  -7211875.35144  23262486.5114   23262487.0594
  -9287494.06844  -7237001.27544  22306088.7254   22306089.3074
 95  2 22  0 58  0.0000000  0  7G12G 7G 2G26G27G 9G 4
 -12707797.212 4  -9902167.991 4  21933304.964    21933303.811
  -2822929.33344  -2199680.33644  20393688.4494   20393688.4744
   3474047.26644   2707050.85644  21605894.9304   21605895.1024
   -438128.68144   -341396.81844  23147786.4814   23147787.4394
  15146552.73644  11802504.76144  23187766.9044   23187768.9174
  -9346407.40444  -7282906.70144  23245140.0284   23245139.9744
  -9375297.46044  -7305419.45344  22289380.2824   22289380.8784
 95  2 22  0 58 30.0000000  0  7G12G 7G 2G26G27G 9G 4
 -12774545.602 4  -9954179.693 4  21920603.235    21920601.980
  -2791902.14344  -2175503.29144  20399592.8094   20399592.6634
   3509004.17044   2734290.00644  21612546.8964   21612547.3724
   -391095.22844   -304747.38144  23156736.6234   23156737.8904
  15255132.94544  11887112.68244  23208429.1744   23208429.3974
  -9437359.38944  -7353778.32044  23227832.1884   23227833.1164
  -9462839.27944  -7373633.80644  22272721.7234   22272722.2414
 95  2 22  0 59  0.0000000  0  7G12G 7G 2G26G27G 9G 4
 -12841108.997 4 -10006047.242 4  21907936.733    21907935.303
  -2760557.83644  -2151079.14244  20405557.4764   20405557.2154
   3544140.85344   2761669.24444  21619233.1794   21619233.2324
   -343654.51644   -267780.60844  23165764.7654   23165765.6204
  15363929.91744  11971889.53044  23229132.6594   23229133.9974
  -9528102.79044  -7424487.40944  23210563.8984   23210564.4964
  -9550112.35944  -7441638.75344  22256114.2934   22256114.7964
 95  2 22  0 59 30.0000000  0  7G12G 7G 2G26G27G 9G 4
 -12907493.553 4 -10057775.434 4  21895304.065    21895302.701
  -2728904.20344  -2126413.96044  20411580.8074   20411580.5274
   3579455.29744   2789186.99644  21625953.1844   21625953.4574
   -295838.21644   -230521.17944  23174864.2684   23174864.9754
  15472921.41244  12056817.95044  23249872.9014   23249873.5594
  -9618654.19944  -7495046.90044  23193332.4044   23193333.3124
  -9637100.77144  -7509421.87544  22239561.0724   22239560.8284
 95  2 22  1  0  0.0000000  0  7G12G 7G 2G26G27G 9G 4
 -12973691.016 4 -10109357.837 4  21882707.082    21882705.683
  -2696935.65144  -2101503.38644  20417664.1994   20417664.1684
   3614954.38244   2816848.62544  21632708.4214   21632708.9024
   -247672.02344   -192989.09344  23184030.0964   23184030.6434
  15582089.46444  12141883.94344  23270646.9784   23270647.7214
  -9709009.69844  -7565453.70844  23176138.5714   23176138.9964
  -9723791.64244  -7576973.14644  22223064.3404   22223064.1584
 95  2 22  1  0 30.0000000  0  8G12G 7G 2G26G27G24G 9G 4
 -13039688.649 4 -10160784.530 4  21870148.094    21870146.751
  -2664635.11844  -2076334.12644  20423810.6764   20423810.7684
   3650640.13944   2844655.71944  21639499.2684   21639499.1814
   -199169.77644   -155195.15544  23193259.5884   23193260.9224
  15691426.47944  12227081.59344  23291453.1784   23291452.7994
        -0.41254                  24569617.4934
  -9799168.98944  -7635707.63644  23158981.6264   23158982.7684
  -9810169.33944  -7644280.37644  22206627.0934   22206627.0574
 95  2 22  1  1  0.0000000  0  8G12G 7G 2G26G27G24G 9G 4
 -13105483.337 4 -10212053.085 4  21857627.636    21857626.545
  -2631990.73644  -2050896.93344  20430022.7184   20430022.8664
   3686535.58544   2872626.20244  21646329.8004   21646329.9284
   -150344.24844   -117149.30344  23202550.4124   23202552.4684
  15800933.04144  12312411.35944  23312291.8504   23312293.0114
   -107640.62544                  24549134.3314
  -9889138.06244  -7705813.33644  23141860.7544   23141861.2274
  -9896210.10244  -7711325.07244  22190254.0334   22190254.4574
 95  2 22  1  1 30.0000000  0  8G12G 7G 2G26G27G24G 9G 4
 -13171071.511 4 -10263160.717 4  21845146.570    21845145.433
  -2599001.00644  -2025190.63544  20436300.5784   20436300.7004
   3722651.71744   2900768.65144  21653202.4894   21653202.5364
   -101192.55344    -78849.29444  23211903.3214   23211905.1494
  15910629.38944  12397888.99244  23333166.5354   23333167.1124
   -215311.02144                  24528644.2324
  -9978906.45944  -7775762.66444  23124777.9664   23124779.0344
  -9981918.35344  -7778110.67044  22173944.0404   22173944.4744
 95  2 22  1  2  0.0000000  0  8G12G 7G 2G26G27G24G 9G 4
 -13236437.407 4 -10314095.148 4  21832707.876    21832706.657
  -2565657.32644  -1999208.53444  20442645.6194   20442645.7004
   3759003.98344   2929095.10244  21660120.2624   21660120.5974
    -51686.72744    -40273.32544  23221323.8424   23221325.4044
  16020541.77944  12483534.98344  23354082.1984   23354083.5064
   -323007.01644                  24508149.2924
 -10068445.82544  -7845533.53744  23107739.1184   23107740.3274
 -10067289.89644  -7844633.90944  22157698.2704   22157698.7664
 95  2 22  1  2 30.0000000  0  8G12G 7G 2G26G27G24G 9G 4
 -13301557.233 4 -10364837.836 4  21820316.077    21820314.693
  -2531935.01644  -1972931.39944  20449062.6034   20449062.7964
   3795621.61044   2957628.32644  21667088.3714   21667088.7924
     -1795.90244     -1397.38644  23230818.0394   23230819.7164
  16130699.05844  12569371.79744  23375044.2824   23375045.0864
   -430702.91944                  24487654.9544
 -10157727.84244  -7915103.86644  23090749.5834   23090751.2204
 -10152299.21044  -7910874.88544  22141521.5424   22141522.1344
 95  2 22  1  3  0.0000000  0  8G12G 7G 2G26G27G24G 9G 4
 -13366446.054 4 -10415400.520 4  21807968.107    21807966.765
  -2497845.54044  -1946368.16344  20455549.5514   20455549.6784
   3832487.55544   2986355.03744  21674103.5244   21674104.0624
     48464.95544     37766.91144  23240382.7024   23240383.8294
  16241098.72744  12655397.48744  23396052.5214   23396053.2404
   -538409.28544                  24467159.7584
 -10246757.09444  -7984477.24744  23073808.0154   23073808.2644
 -10236966.12244  -7976849.05144  22125410.0264   22125410.4794
 95  2 22  1  3 30.0000000  0  7G12G 7G 2G26G24G 9G 4
 -13431122.404 4 -10465797.645 4  21795660.484    21795659.345
  -2463412.02644  -1919536.84244  20462101.9124   20462101.9744
   3869560.95644   3015243.40144  21681158.3604   21681158.7244
     99071.56344     77200.61644  23250012.8964   23250013.2414
   -646151.27644                  24446658.2064
 -10335546.55344  -8053663.77544  23056912.0214   23056912.4094
 -10321332.65444  -8042589.15644  22109355.7194   22109355.6314
 95  2 22  1  4  0.0000000  0  8G12G 7G 2G26G 5G24G 9G 4
 -13495570.757 4 -10516017.111 4  21783396.291    21783395.258
  -2428614.96344  -1892422.23744  20468723.7714   20468723.7824
   3906840.74644   3044292.58944  21688252.5294   21688252.8254
    150031.08444    116909.33144  23259710.1994   23259711.4744
        -0.53354         0.15254  25349640.9144   25349642.1734
   -753901.38044                  24426154.3574
 -10424084.81944  -8122654.57444  23040063.7074   23040063.6094
 -10405382.80844  -8108082.73444  22093361.5024   22093361.5934
 95  2 22  1  4 30.0000000  0  8G12G 7G 2G26G 5G24G 9G 4
 -13559804.336 4 -10566069.220 4  21771172.956    21771171.768
  -2393470.85944  -1865037.20644  20475411.4754   20475411.7684
   3944312.29344   3073491.20244  21695383.4154   21695383.4894
    201327.87844    156880.85244  23269471.5544   23269473.1804
    -78014.30144    -60790.31844  25334795.3114   25334792.3574
   -861663.18144                  24405648.3464
 -10512382.70744  -8191458.06444  23023261.0194   23023260.6894
 -10489129.25844  -8173339.65244  22077424.8284   22077425.2244
 95  2 22  1  5  0.0000000  0  8G12G 7G 2G26G 5G24G 9G 4
 -13623811.363 4 -10615944.792 4  21758992.821    21758991.592
  -2357979.05744  -1837381.24344  20482165.2324   20482165.5664
   3981986.72744   3102847.90944  21702552.6454   21702552.3354
    252979.79444    197129.08944  23279300.4164   23279301.2044
   -156045.17844   -121593.45144  25319946.2644
   -969433.41044                  24385139.2944
 -10600431.77044  -8260067.66344  23006505.8804   23006505.4394
 -10572569.45144  -8238357.93244  22061546.5094   22061546.8724
 95  2 22  1  5 30.0000000  0  8G12G 7G 2G26G 5G24G 9G 4
 -13687611.619 4 -10665659.245 4  21746852.031    21746850.855
  -2322187.63744  -1809491.81344  20488975.9724   20488976.2574
   4019854.00644   3132354.88344  21709758.1194   21709758.0234
    304971.73744    237642.27244  23289194.0844   23289193.2514
   -234101.40244   -182416.37144  25305092.2804
  -1077236.28244                  24364623.6734
 -10688251.29644  -8328498.39844  22989794.3504   22989793.7424
 -10655720.94044  -8303151.25144  22045723.2604   22045723.9084
 95  2 22  1  6  0.0000000  0  8G12G 7G 2G26G 5G24G 9G 4
 -13751205.881 4 -10715213.186 4  21734750.395    21734749.205
  -2286110.16144  -1781379.48044  20495841.4174   20495841.6344
   4057923.17444   3162019.17044  21717002.3764   21717002.5164
    357294.77744    278413.46344  23299150.7574   23299152.1564
   -312184.48844                  25290233.5394
  -1185078.10644                  24344101.1044
 -10775852.11944  -8396758.71844  22973124.3074   22973124.8504
 -10738572.58544  -8367710.93444  22029957.0604   22029957.4074
 95  2 22  1  6 30.0000000  0  8G12G 7G 2G26G 5G24G 9G 4
 -13814562.325 4 -10764581.816 4  21722693.900    21722692.849
  -2249717.28144  -1753021.37844  20502766.7654   20502767.0054
   4096241.09844   3191877.29544  21724294.1444   21724294.7604
    409974.92344    319462.91644  23309175.7574   23309176.3584
   -390287.97544   -304119.92144  25275370.4204
  -1292946.33944                  24323575.1464
 -10863204.33344  -8464825.32544  22956501.4304   22956502.0864
 -10821083.82844  -8432005.36044  22014255.8464   22014256.2244
 95  2 22  1  7  0.0000000  0  8G12G 7G 2G26G 5G24G 9G 4
 -13877684.692 4 -10813768.045 4  21710682.040    21710681.150
  -2213009.95144  -1724418.25044  20509751.8934   20509752.0534
   4134795.18544   3221919.44844  21731630.8614   21731631.4194
    462995.19244    360777.40744  23319265.2464   23319265.5374
   -468424.28844   -365005.23444  25260501.6274
  -1400860.49944                  24303040.5574
 -10950309.85644  -8532699.69944  22939925.8384   22939926.3054
 -10903254.95444  -8496034.75844  21998619.2014   21998619.3964
 95  2 22  1  7 30.0000000  0  8G12G 7G 2G26G 5G24G 9G 4
 -13940591.250 4 -10862786.110 4  21698711.279    21698710.434
  -2176005.08044  -1695583.27144  20516793.5524   20516793.5934
   4173558.70044   3252124.79544  21739007.3084   21739007.4904
    516322.46844    402331.12244  23329413.0254   23329412.7824
   -546636.57444   -425949.75144  25245617.9064   25245621.6614
  -1508833.53144                  24282493.9924
 -11037175.44644  -8600387.10944  22923396.0704   22923396.7864
 -10985094.46244  -8559805.75744  21983045.6404   21983046.0554
 95  2 22  1  8  0.0000000  0  8G12G 7G 2G26G 5G24G 9G 4
 -14003293.031 4 -10911644.608 4  21686779.512    21686778.507
  -2138702.89044  -1666516.61744  20523891.9384   20523891.9654
   4212496.80744   3282466.18344  21746416.9394   21746417.2694
    569933.38144    444105.84444  23339615.3094   23339614.9734
   -624949.71044   -486972.87644  25230714.6844   25230718.8044
  -1616871.15144                  24261934.9844
 -11123807.27844  -8667892.37244  22906910.7834   22906911.2354
 -11066612.13444  -8623325.96644  21967533.3994   21967533.4424
 95  2 22  1  8 30.0000000  0  8G12G 7G 2G26G 5G24G 9G 4
 -14065788.171 4 -10960342.083 4  21674887.047    21674886.040
  -2101102.36944  -1637217.49644  20531047.0774   20531047.0584
   4251597.83744   3312934.52244  21753857.6054   21753857.9654
    623823.34744    486098.00844  23349870.1004   23349869.8444
   -703360.71044   -548072.22144  25215793.5474   25215793.3584
  -1724961.92044                  24241365.5324
 -11210189.41744  -8735203.07944  22890472.7304   22890472.7544
 -11147809.84244  -8686596.85244  21952081.9514   21952081.8464
 95  2 22  1  9  0.0000000  0  8G12G 7G 2G26G 5G24G 9G 4
 -14128042.141 4 -11008851.635 4  21663040.548    21663039.597
  -2063179.71144  -1607667.36244  20538263.6454   20538263.7144
   4290884.56244   3343547.56244  21761333.7894   21761334.0484
    678024.37444    528332.55644  23360183.8864   23360183.9414
   -781818.78544   -609208.30244  25200864.1214   25200866.1784
  -1833046.69844                  24220797.2244
 -11296288.89844  -8802293.53544  22874088.5774   22874088.3324
 -11228654.97044  -8749593.01144  21936697.4584   21936697.4834
 95  2 22  1  9 30.0000000  0  8G12G 7G 2G26G 5G24G 9G 4
 -14190075.716 4 -11057189.452 4  21651235.999    21651234.965
  -2024966.50644  -1577890.82744  20545535.4084   20545535.4594
   4330339.24244   3374291.47944  21768841.4994   21768841.7964
    732508.83044    570787.95644  23370551.7424   23370552.6104
   -860343.61044   -670396.33644  25185921.4684   25185924.6494
  -1941128.89644                  24200229.6564
 -11382138.41544  -8869189.20944  22857751.8234   22857750.8744
 -11309161.44044  -8812325.27944  21921377.4424   21921377.4884
 95  2 22  1 10  0.0000000  0  8G12G 7G 2G26G 5G24G 9G 4
 -14251865.672 4 -11105337.436 4  21639477.819    21639476.612
  -1986442.14944  -1547871.83644  20552866.3454   20552866.3264
   4369987.43744   3405186.18344  21776386.2344   21776386.8414
    787294.59044    613478.15944  23380977.2364   23380978.0684
   -938885.59944   -731597.77144  25170975.3904   25170979.4784
  -2049188.27844                  24179666.4174
 -11467730.57044  -8935884.33944  22841464.3144   22841463.6384
 -11389305.97344  -8874775.51944  21906126.4124   21906126.4804
 95  2 22  1 10 30.0000000  0  8G12G 7G 2G26G 5G24G 9G 4
 -14313384.276 4 -11153273.978 4  21627771.211    21627769.994
  -1947581.19644  -1517590.56444  20560261.3504   20560261.3514
   4409889.77344   3436278.91244  21783979.5534   21783979.9154
    842411.78744    656426.60644  23391466.0734   23391466.7194
  -1017418.40744   -792792.07344  25156031.2004
  -2157200.01444                  24159111.9674
 -11553047.99244  -9002365.40744  22825228.6134   22825228.9474
 -11469057.06744  -8936919.18844  21890950.2534   21890949.9854
 95  2 22  1 11  0.0000000  0  8G12G 7G 2G26G 5G24G 9G 4
 -14374656.148 4 -11201018.264 4  21616111.494    21616110.429
  -1908412.01444  -1487069.11844  20567714.9094   20567715.1164
   4450026.20344   3467554.05944  21791617.3024   21791617.6804
    897839.69144    699617.18544  23402013.9004   23402014.4514
  -1095979.15444                  25141081.8774
  -2265195.35044                  24138560.7184
 -11638119.48844  -9068654.83244  22809039.7304   22809039.5564
 -11548437.09244  -8998773.72244  21875844.7704   21875844.4264
 95  2 22  1 11 30.0000000  0  8G12G 7G 2G26G 5G24G 9G 4
 -14435715.430 4 -11248596.893 4  21604492.191    21604491.330
  -1868974.11044  -1456338.27544  20575219.5464   20575219.8404
   4490357.88144   3498981.34244  21799292.0884   21799292.1314
    953538.59144    743018.91544  23412612.7534   23412613.3004
  -1174606.52244   -915274.69144  25126119.8304   25126118.4904
  -2373224.77444                  24118003.1534
 -11722977.67344  -9134778.04344  22792891.6914   22792892.2184
 -11627485.24644  -9060369.65844  21860802.4534   21860801.9754
 95  2 22  1 12  0.0000000  0  8G12G 7G 2G26G 5G24G 9G 4
 -14496509.499 4 -11295968.861 4  21592923.384    21592922.420
  -1829224.66044  -1425364.66844  20582783.6334   20582783.9754
   4530944.58744   3530607.35444  21807015.2844   21807015.8234
   1009563.87944    786674.95144  23423274.1634   23423275.0544
  -1253246.74244   -976552.93044  25111155.4634   25111154.8894
  -2481233.98744                  24097449.1674
 -11807559.34044  -9200685.78344  22776796.2824   22776796.6184
 -11706157.12244  -9121672.38444  21845831.6634   21845831.2624
 95  2 22  1 12 30.0000000  0  8G12G 7G 2G26G 5G24G 9G 4
 -14557025.972 4 -11343124.522 4  21581407.488    21581406.398
  -1789162.79044  -1394147.61744  20590407.2284   20590407.5114
   4571787.91844   3562433.33244  21814787.4964   21814788.2614
   1065918.69044    830587.76844  23433998.5914   23433998.4804
  -1331917.56944                  25096184.8984
  -2589202.62944                  24076903.4324
 -11891839.12444  -9266358.29544  22760758.3784   22760758.7404
 -11784438.88044  -9182671.10744  21830935.1184   21830934.7274
 95  2 22  1 13  0.0000000  0  8G12G 7G 2G26G 5G24G 9G 4
 -14617303.458 4 -11390093.962 4  21569937.025    21569936.084
  -1748836.62644  -1362724.62244  20598081.0694   20598081.3704
   4612818.05344   3594404.87544  21822595.2934   21822595.4094
   1122553.29144    874718.61344  23444775.7904   23444774.4114
  -1410661.03044                  25081200.1324
  -2697163.12744                  24056359.6634
 -11975855.39344  -9331825.46944  22744770.6354   22744770.9624
 -11862373.31144  -9243399.18744  21816104.6924   21816104.6884
 95  2 22  1 13 30.0000000  0  8G12G 7G 2G26G 5G24G 9G 4
 -14677344.136 4 -11436878.878 4  21558511.665    21558510.781
  -1708250.00944  -1331098.67644  20605804.5304   20605804.7394
   4654041.07844   3626526.71844  21830440.1134   21830439.9524
   1179453.80744    919056.65344  23455603.0664   23455601.8184
  -1489478.02944                  25066201.4494
  -2805116.45944                  24035816.6854
 -12059612.06844  -9397090.36544  22728832.3004   22728831.9934
 -11939965.06744  -9303860.24544  21801339.4464   21801339.4034
 95  2 22  1 14  0.0000000  0  8G12G 7G 2G26G 5G24G 9G 4
 -14737125.197 4 -11483461.494 4  21547135.668    21547134.720
  -1667374.58444  -1299247.68644  20613582.8994   20613582.8904
   4695468.87144   3658808.12244  21838323.4114   21838323.5264
   1236636.37544    963614.48344  23466484.4304   23466484.1204
  -1568366.14444  -1222102.37144  25051189.0954
  -2913040.18044  -2269897.24344  24015280.0854   24015283.7534
 -12143083.76144  -9462133.19544  22712948.2024   22712947.8204
 -12017189.24744  -9364034.89844  21786644.0674   21786643.9434
 95  2 22  1 14 30.0000000  0  8G12G 7G 2G26G 5G24G 9G 4
 -14796644.706 4 -11529840.304 4  21535809.430    21535808.453
  -1626195.59944  -1267160.15144  20621418.7954   20621418.8734
   4737088.80944   3691239.24744  21846243.4574   21846243.1984
   1294093.45644   1008386.20844  23477418.5224   23477419.4954
  -1647325.80344  -1283629.26844  25036162.9794   25036163.7574
  -3020935.25744  -2353971.18944  23994748.0164   23994752.4324
 -12226276.75444  -9526958.86344  22697117.0504   22697116.7844
 -12094041.09944  -9423919.42744  21772019.3954   21772019.2774
 95  2 22  1 15  0.0000000  0  8G12G 7G 2G26G 5G24G 9G 4
 -14855840.728 4 -11575967.048 4  21524544.752    21524543.773
  -1584644.28444  -1234782.49044  20629325.6594   20629325.8594
   4778974.14344   3723877.17444  21854213.7664   21854213.9484
   1351895.22644   1053426.52144  23488417.3834   23488417.7274
  -1726266.48544  -1345141.37144  25021141.0514   25021143.4314
  -3128740.98944  -2437975.48944  23974233.2674   23974232.2394
 -12309132.88844  -9591522.02744  22681350.1054   22681349.6924
 -12170467.30244  -9483472.28344  21757475.8794   21757476.1074
 95  2 22  1 15 30.0000000  0  8G12G 7G 2G26G 5G24G 9G 4
 -14914732.680 4 -11621856.853 4  21513338.001    21513336.961
  -1542740.91844  -1202130.50144  20637299.4804   20637299.5074
   4821111.53644   3756711.52144  21862232.3294   21862232.7284
   1410020.57644   1098718.99144  23499478.1184   23499480.2604
  -1805208.38044  -1406654.39444  25006119.0464   25006121.8934
  -3236480.25944  -2521928.03844  23953731.4574   23953730.3484
 -12391665.14444  -9655832.82844  22665644.5864   22665644.7084
 -12246481.73344  -9542704.27444  21743010.9794   21743011.2994
 95  2 22  1 16  0.0000000  0  8G12G 7G 2G26G 5G24G 9G 4
 -14973345.579 4 -11667529.214 4  21502184.357    21502183.196
  -1500521.33144  -1169232.10644  20645333.8644   20645334.0904
   4863461.61244   3789711.60744  21870291.3514   21870291.7714
   1468441.08344   1144241.41844  23510595.5394   23510595.4904
  -1884168.68744  -1468181.77344  24991093.4164   24991093.5364
  -3344164.26744  -2605837.55544  23933239.7024   23933241.9934
 -12473901.33244  -9719912.93444  22649995.3474   22649995.1994
 -12322100.38744  -9601627.85644  21728621.2274   21728621.0844
 95  2 22  1 16 30.0000000  0  8G12G 7G 2G26G 5G24G 9G 4
 -15031709.129 4 -11713007.277 4  21491078.066    21491076.991
  -1458026.06844  -1136118.89044  20653420.3484   20653420.5944
   4906010.73644   3822866.96544  21878388.2364   21878388.4794
   1527127.97244   1189971.43844  23521763.2144   23521763.7224
  -1963152.03144  -1529727.10944  24976063.1594   24976066.0574
  -3451822.19144  -2689726.73044  23912752.8064   23912753.3234
 -12555876.42144  -9783789.57644  22634396.0874   22634395.5994
 -12397345.83444  -9660260.62944  21714302.4734   21714302.1364
 95  2 22  1 17  0.0000000  0  8G12G 7G 2G26G 5G24G 9G 4
 -15089808.326 4 -11758279.353 4  21480022.052    21480021.223
  -1415258.45944  -1102793.46644  20661558.6544   20661559.0024
   4948786.40444   3856199.03344  21886528.0984   21886528.5734
   1586099.51944   1235923.25444  23532985.4214   23532985.6764
  -2042157.30344  -1591289.51344  24961028.5694   24961032.8394
  -3559450.08344  -2773592.46744  23892271.1144   23892276.4824
 -12637565.25444  -9847443.17044  22618851.2674   22618850.1904
 -12472194.43544  -9718584.16744  21700059.3204   21700058.5524
 95  2 22  1 17 30.0000000  0  8G12G 7G 2G26G 5G24G 9G 4
 -15147622.570 4 -11803329.389 4  21469020.314    21469019.507
  -1372220.32644  -1069257.23444  20669748.6654   20669748.7094
   4991801.81044   3889716.79344  21894713.6054   21894713.3604
   1645353.26544   1282094.98644  23544260.9364   23544261.3854
  -2121191.90444  -1652874.77844  24945988.6114   24945990.6984
  -3667026.14444  -2857417.91144  23871799.7084   23871801.1144
 -12718948.59544  -9910858.71944  22603364.4914   22603364.3914
 -12546615.74244  -9776574.74444  21685897.2454   21685896.9214
 95  2 22  1 18  0.0000000  0  8G12G 7G 2G26G 5G24G 9G 4
 -15205171.245 4 -11848172.482 4  21458069.181    21458068.297
  -1328927.55744  -1035522.60344  20677987.2244   20677987.2884
   5035040.96044   3923409.69944  21902941.6064   21902942.0664
   1704854.65044   1328459.66644  23555583.6244   23555585.0594
  -2200274.39544  -1714497.36944  24930939.6624   24930942.1574
  -3774586.06444  -2941230.73544  23851331.8784   23851335.2084
 -12800045.03544  -9974050.70444  22587932.4654   22587931.9264
 -12620640.74544  -9834256.51544  21671810.7664   21671810.4594
 95  2 22  1 18 30.0000000  0  8G12G 7G 2G26G 5G24G 9G 4
 -15262452.130 4 -11892806.908 4  21447168.917    21447168.160
  -1285369.21444  -1001581.03144  20686275.9604   20686275.8644
   5078517.07344   3957287.21144  21911214.8884   21911215.7544
   1764602.67944   1375016.53044  23566953.3424   23566954.3104
  -2279413.93444  -1776164.48344  24915879.7884
  -3882143.00844  -3025041.23144  23830865.0454   23830866.8704
 -12880839.82744 -10037007.64044  22572557.7554   22572557.4174
 -12694275.22844  -9891634.00344  21657798.4854   21657798.3024
 95  2 22  1 19  0.0000000  0  8G12G 7G 2G26G 5G24G 9G 4
 -15319458.151 4 -11937227.155 4  21436320.999    21436320.207
  -1241544.63644   -967432.00144  20694615.3304   20694615.3944
   5122232.77544   3991351.39544  21919533.6644   21919534.3094
   1824586.24144   1421756.93744  23578368.1004   23578368.5824
  -2358619.20244                  24900807.8144
  -3989676.45344  -3108833.47844  23810402.2974   23810404.6994
 -12961322.01944 -10099720.99444  22557242.3554   22557241.7644
 -12767523.13844  -9948710.25944  21643859.8624   21643859.5424
 95  2 22  1 19 30.0000000  0  8G12G 7G 2G26G 5G24G 9G 4
 -15376198.192 4 -11981440.145 4  21425523.819    21425522.853
  -1197457.76444   -933078.58944  20703004.7844   20703004.7624
   5166156.35744   4025577.57844  21927892.1024   21927892.7184
   1884781.13744   1468662.01144  23589823.0404   23589823.7554
  -2437884.85344                  24885724.1124
  -4097181.41844  -3192603.48144  23789944.5214   23789946.8684
 -13041511.99244 -10162206.64444  22541982.5434   22541982.0914
 -12840403.26244 -10005499.93144  21629991.2284   21629991.2124
 95  2 22  1 20  0.0000000  0  8G12G 7G 2G26G 5G24G 9G 4
 -15432665.086 4 -12025440.293 4  21414778.560    21414777.504
  -1153087.42544   -898504.29144  20711448.2384   20711448.1104
   5210295.38544   4059971.62044  21936291.4584   21936291.8454
   1945208.02244   1515747.85944  23601321.4314   23601321.9684
  -2517188.86644                  24870632.9054
  -4204650.42144  -3276345.45144  23769492.8504   23769496.9554
 -13121412.20044 -10224466.50544  22526777.9424   22526777.4404
 -12912905.88844 -10061995.44444  21616194.5094   21616193.9894
 95  2 22  1 20 30.0000000  0  8G12G 7G 2G26G 5G24G 9G 4
 -15488854.795 4 -12069224.455 4  21404085.875    21404084.939
  -1108445.65944   -863718.49244  20719943.4034   20719943.2074
   5254643.75344   4094528.79144  21944730.5534   21944731.1674
   2005883.47544   1563027.40844  23612866.5764   23612868.1454
  -2596539.04344  -2023273.01844  24855533.2994   24855532.6074
  -4312050.07744  -3360033.40144  23749055.2454   23749059.0524
 -13201032.42044 -10286508.18844  22511626.6954   22511626.6194
 -12985010.77244 -10118181.02244  21602473.4634   21602473.0864
 95  2 22  1 21  0.0000000  0  8G12G 7G 2G26G 5G24G 9G 4
 -15544755.187 4 -12112783.172 4  21393448.369    21393447.526
  -1063543.86644   -828730.07544  20728487.8494   20728487.7264
   5299198.17544   4129246.51944  21953208.8274   21953209.1274
   2066811.82144   1610504.01644  23624461.1424   23624463.1314
  -2675930.42744  -2085137.66844  24840425.8334   24840426.9374
  -4419359.72744  -3443651.19344  23728635.2624   23728638.3574
 -13280370.11344 -10348329.73344  22496529.2804   22496528.7804
 -13056695.72244 -10174039.38244  21588832.1784   21588831.9614
 95  2 22  1 21 30.0000000  0  8G12G 7G 2G26G 5G24G 9G 4
 -15600349.701 4 -12156103.544 4  21382869.023    21382868.254
  -1018357.58944   -793519.98544  20737086.4814   20737086.5254
   5343964.34344   4164129.25344  21961727.7124   21961727.5174
   2128014.32044   1658194.26844  23636108.2264   23636108.8774
  -2755350.95344                  24825312.2704
  -4526578.96044  -3527198.56044  23708232.6334   23708235.6654
 -13359400.82544 -10409912.06244  22481490.4534   22481490.3304
 -13127935.13644 -10229550.57544  21575275.7084   21575275.1444
 95  2 22  1 22  0.0000000  0  8G12G 7G 2G26G 5G24G 9G 4
 -15655641.797 4 -12199188.265 4  21372347.073    21372346.444
   -972898.62444   -758097.40844  20745736.9484   20745736.9774
   5388948.61844   4199181.94344  21970288.0954   21970287.9774
   2189490.65644   1706097.87244  23647807.1644   23647807.3834
  -2834811.58944  -2208941.49144  24810190.8254   24810194.7034
  -4633722.68044  -3610687.06944  23687844.0464   23687847.5344
 -13438111.19644 -10471244.78344  22466512.3844   22466511.9314
 -13198733.70844 -10284718.24744  21561803.0754   21561802.7024
 95  2 22  1 22 30.0000000  0  8G12G 7G 2G26G 5G24G 9G 4
 -15710632.816 4 -12242038.379 4  21361882.587    21361882.018
   -927181.79144   -722473.89344  20754436.4634   20754436.5384
   5434143.91144   4234399.05644  21978888.7874   21978889.1134
   2251221.19344   1754199.56144  23659553.7794   23659555.4854
  -2914324.26944  -2270899.35744  24795059.9454   24795060.7564
  -4740792.65444  -3694118.12644  23667469.2904   23667471.7964
 -13516481.82044 -10532312.77044  22451598.7364   22451598.8814
 -13269101.76644 -10339550.45444  21548412.4624   21548411.9374
 95  2 22  1 23  0.0000000  0  8G12G 7G 2G26G 5G24G 9G 4
 -15765317.537 4 -12284649.820 4  21351476.621    21351475.774
   -881202.69444   -686646.01544  20763186.0264   20763186.0104
   5479562.57544   4269790.22744  21987531.5704   21987531.9934
   2313191.51144   1802488.07844  23671346.1154   23671346.2754
  -2993871.69644  -2332884.29644  24779922.2074
  -4847794.36044  -3777495.96744  23647107.1104   23647108.7544
 -13594489.42744 -10593097.88444  22436754.3184   22436754.3414
 -13339044.59744 -10394051.32644  21535102.7484   21535102.5214
 95  2 22  1 23 30.0000000  0  8G12G 7G 2G26G 5G24G 9G 4
 -15819675.897 4 -12327006.956 4  21341132.687    21341131.732
   -834935.60344   -650593.72544  20771990.2624   20771990.0554
   5525224.75244   4305371.14644  21996220.5344   21996221.0294
   2375426.98144   1850983.21644  23683189.0664   23683190.0464
  -3073422.05044  -2394871.51144  24764784.7204   24764783.3414
  -4954705.64844  -3860803.40044  23626762.2314   23626763.4554
 -13672115.53744 -10653585.73244  22421982.2934   22421982.1024
 -13408551.55444 -10448212.55544  21521875.9394   21521875.4894
 95  2 22  1 24  0.0000000  0  8G12G 7G 2G26G 5G24G 9G 4
 -15873709.069 4 -12369110.701 4  21330850.375    21330849.635
   -788405.83344   -614336.74644  20780844.6214   20780844.3664
   5571135.27644   4341145.57844  22004956.9714   22004957.4524
   2437922.59044   1899681.08644  23695081.8124   23695082.0674
  -3152980.63544  -2456865.16044  24749645.4454   24749643.6034
  -5061518.80244  -3944034.35244  23606436.3954   23606438.9424
 -13749372.55644 -10713785.97744  22407280.7424   22407280.1604
 -13477628.52644 -10502038.73244  21508730.7794   21508730.1504
 95  2 22  1 24 30.0000000  0  8G12G 7G 2G26G 5G24G 9G 4
 -15927458.442 4 -12410993.306 4  21320622.020    21320621.435
   -741660.87544   -577912.08844  20789739.9074   20789739.6414
   5617254.73644   4377082.81844  22013733.1394   22013733.7754
   2500621.59244   1948537.44944  23707013.1514   23707013.8144
  -3232605.51244  -2518910.42344  24734492.8754   24734494.2914
  -5168260.17744  -4027209.36344  23586124.3984   23586126.1454
 -13826309.31444 -10773736.65444  22392640.4594   22392639.6624
 -13546307.67144 -10555554.91044  21495661.6974   21495661.5164
 95  2 22  1 25  0.0000000  0  8G12G 7G 2G26G 5G24G 9G 4
 -15980901.609 4 -12452637.308 4  21310452.057    21310451.628
   -694673.88844   -541298.83744  20798681.3234   20798680.9994
   5663611.60644   4413205.06444  22022554.6894   22022555.1064
   2563554.06144   1997575.72044  23718988.8304   23718990.7004
  -3312270.62244  -2580987.06644  24719332.7054   24719332.6884
  -5274906.75844  -4110310.49944  23565830.3474   23565831.1144
 -13902919.08144 -10833432.54644  22378062.0384   22378061.4044
 -13614562.54544 -10608740.49344  21482673.3574   21482672.8964
 95  2 22  1 25 30.0000000  0  8G12G 7G 2G26G 5G24G 9G 4
 -16034037.236 4 -12494041.669 4  21300340.784    21300340.190
   -647443.62544   -504496.02044  20807669.0194   20807668.6094
   5710199.67744   4449507.46244  22031420.1094   22031420.3884
   2626723.87644   2046798.92044  23731009.9104   23731010.4984
  -3391985.00244  -2643102.07644  24704163.8304   24704167.3124
  -5381470.90644  -4193347.39544  23545551.8514   23545553.6484
 -13979210.50344 -10892880.36644  22363544.1314   22363543.2814
 -13682391.55644 -10661594.23644  21469765.9124   21469765.4564
 95  2 22  1 26  0.0000000  0  8G12G 7G 2G26G 5G24G 9G 4
 -16086846.084 4 -12535191.398 4  21290291.624    21290290.982
   -599953.31244   -467490.56844  20816706.1974   20816705.8834
   5757047.48344   4486012.24544  22040334.9614   22040335.6404
   2690133.43444   2096208.93544  23743076.4434   23743077.4164
  -3471739.78644  -2705248.51544  24688987.3054   24688989.8204
  -5487941.21844  -4276311.17444  23525290.6374   23525292.4704
 -14055158.90044 -10952060.88844  22349091.6364   22349091.5534
 -13749771.29044 -10714097.89244  21456943.9054   21456943.4604
 95  2 22  1 26 30.0000000  0  8G12G 7G 2G26G 5G24G 9G 4
 -16139333.547 4 -12576090.702 4  21280303.614    21280302.810
   -552193.03644   -430274.75644  20825794.7574   20825794.3634
   5804157.18644   4522721.10544  22049299.6524   22049299.5494
   2753769.87944   2145795.76944  23755185.7754   23755187.9004
  -3551528.24044  -2767421.32244  24673803.9514   24673806.1254
  -5594325.10544  -4359207.62444  23505045.6574   23505046.7124
 -14130769.55144 -11010978.25044  22334703.5384   22334703.6664
 -13816701.11944 -10766250.96744  21444207.4384   21444207.2154
 95  2 22  1 27  0.0000000  0  8G12G 7G 2G26G 5G24G 9G 4
 -16191501.298 4 -12616740.882 4  21270376.424    21270375.486
   -504169.33644   -392853.67844  20834933.3364   20834932.9834
   5851523.20644   4559629.69244  22058313.1114   22058313.6044
   2817636.83444   2195562.17944  23767339.1144   23767339.6934
  -3631328.83244  -2829603.51544  24658617.4874   24658617.6034
  -5700640.55844  -4442050.73544  23484814.2364   23484817.2744
 -14206048.61944 -11069637.23144  22320378.1354   22320378.1304
 -13883186.80044 -10818057.95844  21431555.6754   21431555.2244
 95  2 22  1 27 30.0000000  0  8G12G 7G 2G26G 5G24G 9G 4
 -16243381.291 4 -12657166.833 4  21260503.925    21260503.187
   -455922.72244   -355258.90544  20844114.3854   20844114.0814
   5899101.08644   4596703.35744  22067367.0744   22067367.3674
   2881684.46344   2245469.39244  23779527.0974   23779527.9274
  -3711182.29344  -2891826.85844  24643421.3804
  -5806920.43544  -4524866.11544  23464590.4754   23464592.3984
 -14281022.71244 -11128058.57444  22306110.7994   22306110.9814
 -13949259.58944 -10869543.20344  21418982.3534   21418981.9944
 95  2 22  1 28  0.0000000  0  8G12G 7G 2G26G 5G24G 9G 4
 -16294962.597 4 -12697360.038 4  21250688.203    21250687.576
   -407446.84844   -317485.48944  20853338.8304   20853338.5994
   5946898.27744   4633947.91644  22076462.4454   22076462.7834
   2945913.15844   2295517.71044  23791749.3224   23791750.3354
  -3791080.17744  -2954084.86044  24628217.6614   24628220.5374
  -5913134.88144  -4607630.51944  23444379.1604   23444380.8734
 -14355677.13744 -11186230.82144  22291904.5024   22291904.0454
 -14014901.78844 -10920692.92444  21406491.0544   21406490.6404
 95  2 22  1 28 30.0000000  0  8G12G 7G 2G26G 5G24G 9G 4
 -16346240.106 4 -12737316.520 4  21240930.403    21240929.640
   -358735.22144   -279528.36744  20862608.2144   20862607.9304
   5994901.00244   4671352.63344  22085596.9214   22085597.1714
   3010328.98044   2345711.83644  23804007.2154   23804010.3154
  -3871016.00144  -3016372.40944  24613007.0444   24613009.4704
  -6019269.63844  -4690332.82744  23424182.2594   23424184.4884
 -14430007.98844 -11244150.93144  22277759.9024   22277760.2834
 -14080105.38244 -10971500.87544  21394083.2604   21394082.8704
 95  2 22  1 29  0.0000000  0  8G12G 7G 2G26G 5G24G 9G 4
 -16397200.630 4 -12777026.002 4  21231233.095    21231232.147
   -309795.50444   -241393.51344  20871921.0544   20871920.6964
   6043097.78944   4708908.56844  22094768.3644   22094768.8714
   3074935.92344   2396054.89544  23816301.4114   23816301.7094
  -3950992.94644  -3078692.02144  24597788.1804   24597789.7384
  -6125299.52944  -4772953.42344  23404005.0314   23404006.6344
 -14503997.61444 -11301805.15044  22263680.0524   22263679.9044
 -14144856.42444 -11021956.19144  21381761.5944   21381761.0464
 95  2 22  1 29 30.0000000  0  8G12G 7G 2G26G 5G24G 9G 4
 -16447798.986 4 -12816453.276 4  21221604.578    21221603.680
   -260580.28444   -203043.98344  20881286.4544   20881286.1434
   6091526.55844   4746645.27144  22103984.0784   22103984.1804
   3139767.63744   2446573.10444  23828638.3684   23828640.0674
  -4030989.50344  -3141026.89844  24582565.1454   24582564.5654
  -6231168.88944  -4855448.94044  23383858.4464   23383860.1944
 -14577591.94744 -11359151.35444  22249675.7674   22249675.3114
 -14209099.34744 -11072015.56344  21369536.4194   21369536.0544
 95  2 22  1 30  0.0000000  0  8G12G 7G 2G26G 5G24G 9G 4
 -16498066.868 4 -12855623.038 4  21212038.724    21212038.132
   -211125.88644   -164508.08344  20890697.3814   20890697.0784
   6140163.64944   4784544.29444  22113239.2484   22113240.1504
   3204788.62944   2497238.78444  23841011.9934   23841012.5724
  -4111031.97444  -3203397.60944  24567333.4074
  -6336906.67944  -4937841.93444  23363737.2324   23363738.3974
 -14650827.88344 -11416218.28544  22235739.4514   22235738.9784
 -14272862.90544 -11121701.42244  21357402.4514   21357402.0144
 95  2 22  1 30 30.0000000  0  8G12G 7G 2G26G 5G24G 9G 4
 -16548003.423 4 -12894534.624 4  21202535.981    21202535.447
   -161433.65344   -125786.85344  20900153.3894   20900153.1554
   6189013.29544   4822608.94944  22122534.9574   22122535.9304
   3269994.94244   2548048.85344  23853420.5884   23853418.6134
  -4191113.21144  -3265798.45344  24552094.3564   24552097.2594
  -6442522.54444  -5020139.95244  23343639.5984   23343640.6054
 -14723704.02544 -11473004.85644  22221871.4944   22221871.1414
 -14336153.00744 -11171018.34744  21345358.6954   21345358.3054
 95  2 22  1 31  0.0000000  0  8G12G 7G 2G26G 5G24G 9G 4
 -16597624.904 4 -12933200.699 4  21193093.340    21193092.682
   -111522.21244    -86894.81444  20909651.3414   20909651.2604
   6238069.88944   4860834.86644  22131870.3994   22131870.9084
   3335360.24944   2598982.82144  23865859.3324   23865859.6274
  -4271257.96944  -3328248.82544  24536843.3174   24536844.2634
  -6548042.73944  -5102363.41644  23323559.9104   23323560.5724
 -14796233.45544 -11529521.26144  22208069.5984   22208069.1274
 -14398993.81944 -11219985.16644  21333400.4184   21333400.0414
 95  2 22  1 31 30.0000000  0  8G12G 7G 2G26G 5G24G 9G 4
 -16646852.737 4 -12971560.029 4  21183725.677    21183724.915
    -61299.74044    -47760.41244  20919208.2064   20919207.8724
   6287413.43244   4899284.38244  22141260.4664   22141260.1544
   3400967.88044   2650105.60444  23878343.8334   23878343.3854
  -4351379.07544  -3390680.75744  24521596.8244   24521596.8634
  -6653404.60744  -5184463.48644  23303510.1064   23303509.9734
 -14868339.02044 -11585707.38144  22194348.4384   22194347.9814
 -14461313.98744 -11268546.29644  21321541.3944   21321540.8434
 95  2 22  1 32  0.0000000  0  8G12G 7G 2G26G 5G24G 9G 4
 -16695723.075 4 -13009640.792 4  21174425.995    21174425.345
    -10813.74944     -8420.67344  20928815.4814   20928815.1174
   6337007.98444   4937929.47744  22150697.9984   22150697.8784
   3466787.25944   2701393.42244  23890868.7884   23890869.1784
  -4431504.84744  -3453116.32044  24506349.2814   24506348.0044
  -6758642.13044  -5266466.67744  23283483.4634   23283483.8294
 -14940059.97144 -11641593.79844  22180700.3954   22180700.0544
 -14523165.89244 -11316742.55344  21309771.5574   21309770.6244
 95  2 22  1 32 30.0000000  0  8G12G 7G 2G26G 5G24G 9G 4
 -16744244.154 4 -13047449.408 4  21165192.739    21165192.083
     39915.36844     31108.51744  20938468.8424   20938468.3824
   6386841.98644   4976761.15944  22160180.8964   22160180.6904
   3532802.68044   2752833.97844  23903430.6714   23903432.0524
  -4511657.39844  -3515572.76444  24491096.6694   24491095.6454
  -6863754.57744  -5348372.41944  23263480.4814   23263482.3264
 -15011396.59344 -11697180.73944  22167125.1444   22167124.7854
 -14584560.56544 -11364582.51944  21298088.4724   21298087.8344
 95  2 22  1 33  0.0000000  0  8G12G 7G 2G26G 5G24G 9G 4
 -16792421.998 4 -13084990.566 4  21156024.710    21156024.028
     90866.84044     70810.97044  20948164.6414   20948164.2244
   6436901.61844   5015768.66644  22169706.8634   22169707.0564
   3599011.76144   2804425.43044  23916029.8274   23916031.0324
  -4591850.23644  -3578060.59144  24475836.2224   24475836.7524
  -6968732.53444  -5430173.37444  23243503.4814   23243506.8934
 -15082359.06844 -11752476.12944  22153621.4064   22153620.8514
 -14645495.60644 -11412064.32844  21286492.7704   21286492.3794
 95  2 22  1 33 30.0000000  0  8G12G 7G 2G26G 5G24G 9G 4
 -16840255.267 4 -13122263.222 4  21146922.290    21146921.721
    142023.92044    110673.64044  20957899.5834   20957899.2334
   6487196.21044   5054959.25044  22179277.5214   22179278.0964
   3665411.48444   2856165.43544  23928666.1054   23928666.3774
  -4672077.19144  -3640574.99844  24460569.6894   24460571.3584
  -7073561.07144  -5511857.89044  23223555.0794   23223558.3334
 -15152946.69244 -11807479.43344  22140189.2194   22140188.7094
 -14705963.40144 -11459182.04944  21274986.0674   21274985.6774
 95  2 22  1 34  0.0000000  0  8G12G 7G 2G26G 5G24G 9G 4
 -16887737.488 4 -13159262.333 4  21137886.673    21137886.131
    193375.86344    150688.14744  20967671.5164   20967671.1744
   6537756.26244   5094356.68544  22188898.8504   22188899.4484
   3731983.53844   2908039.71744  23941333.5994   23941335.1354
  -4752336.96144  -3703114.95144  24445296.8844   24445299.9394
  -7178222.63644  -5593412.28344  23203638.7934   23203640.6834
 -15223150.64444 -11862183.76944  22126829.8074   22126829.2824
 -14765959.97444 -11505932.58844  21263569.0224   21263568.4504
 95  2 22  1 34 30.0000000  0  8G12G 7G 2G26G 5G24G 9G 4
 -16934867.445 4 -13195986.952 4  21128918.020    21128917.534
    244932.57744    190862.21744  20977482.2954   20977482.1344
   6588583.40944   5133962.25944  22198570.8744   22198570.8584
   3798723.28344   2960044.70844  23954033.1014   23954035.1814
  -4832623.30344  -3765675.63744  24430018.5224   24430020.0564
  -7282724.23744  -5674842.02144  23183752.8174   23183755.2454
 -15292968.84644 -11916587.53044  22113543.7494   22113543.2274
 -14825479.15444 -11552311.13644  21252242.8484   21252242.3344
 95  2 22  1 35  0.0000000  0  8G12G 7G 2G26G 5G24G 9G 4
 -16981649.252 4 -13232440.288 4  21120015.721    21120015.307
    296699.61444    231200.17644  20987333.1744   20987332.8884
   6639670.32544   5173770.24944  22208292.2544   22208292.1754
   3865634.00944   3012182.91944  23966765.8604   23966768.0724
  -4912932.17144  -3828253.86744  24414736.1794   24414736.4844
  -7387095.15544  -5756169.94244  23163891.5934   23163893.0474
 -15362406.46844 -11970694.73844  22100330.0984   22100329.4434
 -14884524.13544 -11598320.17644  21241007.0014   21241006.4294
 95  2 22  1 35 30.0000000  0  8G12G 7G 2G26G 5G24G 9G 4
 -17028076.787 4 -13268617.566 4  21111180.844    21111180.375
    348687.23044    271710.01244  20997226.2294   20997225.8394
   6691029.47744   5213790.36644  22218065.7354   22218066.1164
   3932711.10344   3064450.74444  23979530.7384   23979529.8864
  -4993261.39644  -3890847.93144  24399449.8604   24399450.4764
  -7491346.39944  -5837404.59244  23144052.8784   23144055.9444
 -15431451.67644 -12024496.16444  22087191.1944   22087190.5064
 -14943097.32044 -11643961.58844  21229860.9564   21229860.3834
 95  2 22  1 36  0.0000000  0  8G12G 7G 2G26G 5G24G 9G 4
 -17074176.620 4 -13304539.494 4  21102408.301    21102407.742
    400876.91444    312377.30544  21007157.6624   21007157.3324
   6742607.31944   5253980.88744  22227880.8344   22227881.4784
   3999935.02044   3116832.99544  23992323.2544   23992325.1434
  -5073645.64644  -3953484.93844  24384153.4124   24384153.3124
  -7595511.64444  -5918572.25144  23124230.9034   23124232.8004
 -15500126.97044 -12078009.35644  22074122.8444   22074122.2974
 -15001226.58744 -11689257.08544  21218799.1704   21218798.3434
 95  2 22  1 36 30.0000000  0  8G12G 7G 2G26G 5G24G 9G 4
 -17119932.748 4 -13340193.599 4  21093701.164    21093700.540
    453288.71944    353217.68044  21017131.1734   21017130.7024
   6794393.25644   5294333.56744  22237735.3434   22237734.9244
   4067331.62344   3169349.80344  24005148.3494   24005149.5144
  -5154075.81744  -4016157.70444  24368847.9564   24368849.3664
  -7699583.95444  -5999667.49744  23104427.0084   23104429.4594
 -15568414.41844 -12131220.32944  22061128.1904   22061127.4384
 -15058878.64244 -11734180.73144  21207828.3994   21207827.7374
 95  2 22  1 37  0.0000000  0  8G12G 7G 2G26G 5G24G 9G 4
 -17165334.532 4 -13375571.593 4  21085061.595    21085060.850
    505922.80544    394231.26044  21027147.1174   21027146.7334
   6846395.42044   5334854.73244  22247630.7584   22247630.9814
   4134889.42044   3221992.22044  24018003.8364   24018004.3114
  -5234556.04444  -4078869.45344  24353533.0894   24353534.7434
  -7803544.31644  -6080675.48844  23084644.2334   23084646.2624
 -15636312.62144 -12184127.98944  22048207.4834   22048207.0014
 -15116032.81744 -11778716.42044  21196952.1174   21196951.5614
 95  2 22  1 37 30.0000000  0  8G12G 7G 2G26G 5G24G 9G 4
 -17210382.162 4 -13410673.622 4  21076489.398    21076488.812
    558773.35344    435413.51244  21037204.1834   21037203.7094
   6898602.66544   5375535.69744  22257565.4684   22257566.2934
   4202592.12844   3274747.54644  24030887.1854   24030889.4004
  -5315090.84844  -4141623.73544  24338208.0364   24338205.9754
  -7907369.78944  -6161578.38244  23064887.0604   23064889.8324
 -15703823.37844 -12236733.74844  22035360.5614   22035360.1344
 -15172688.95544 -11822864.03044  21186170.6914   21186169.9694
 95  2 22  1 38  0.0000000  0  8G12G 7G 2G26G 5G24G 9G 4
 -17255080.562 4 -13445503.530 4  21067983.485    21067982.967
    611833.71844    476759.25744  21047301.0364   21047300.7064
   6950993.58344   5416359.78644  22267535.0964   22267535.4714
   4270427.87444   3327606.56544  24043795.7344   24043796.2324
  -5395678.02144  -4204418.84444  24322872.8354   24322872.4314
  -8011057.78744  -6242374.12944  23045156.0174   23045157.8464
 -15770963.64944 -12289050.81744  22022583.8914   22022583.8054
 -15228840.98844 -11866618.82944  21175485.2804   21175484.9474
 95  2 22  1 38 30.0000000  0  8G12G 7G 2G26G 5G24G 9G 4
 -17299399.228 4 -13480037.543 4  21059549.828    21059549.261
    665124.96044    518284.90844  21057442.0734   21057441.8824
   7003609.17944   5457358.94344  22277547.8014   22277547.6264
   4338412.87144   3380581.86244  24056733.2504   24056734.9144
  -5476286.07744  -4267230.23744  24307533.3844   24307532.1784
  -8114575.19844  -6323036.94344  23025457.2074   23025457.8254
 -15837719.71844 -12341068.51044  22009880.8814   22009880.3354
 -15284459.37344 -11909957.79944  21164901.4584   21164901.0934
 95  2 22  1 39  0.0000000  0  8G12G 7G 2G26G 5G24G 9G 4
 -17343329.276 4 -13514268.734 4  21051190.218    21051189.646
    718637.37444    559982.90044  21067625.2694   21067625.1054
   7056456.39544   5498538.58844  22287604.0124   22287604.4104
   4406550.39644   3433676.00844  24069699.9624   24069700.4024
  -5556912.79844  -4330056.16544  24292190.4634   24292191.7054
  -8217898.62744  -6403548.61044  23005795.2894   23005796.3434
 -15904081.40544 -12392778.88844  21997252.6124   21997252.1124
 -15339561.20544 -11952894.26244  21154415.8824   21154415.4634
 95  2 22  1 39 30.0000000  0  8G12G 7G 2G26G 5G24G 9G 4
 -17386882.508 4 -13548206.303 4  21042902.329    21042901.821
    772352.59044    601838.92344  21077846.8664   21077846.6434
   7109516.60344   5539884.19744  22297701.0424   22297700.8764
   4474833.86944   3486883.86844  24082694.4324   24082694.1624
  -5637558.22944  -4392896.68944  24276843.8544   24276843.6744
  -8321039.32744  -6483917.87744  22986168.2774   22986169.0994
 -15970049.47244 -12444182.54044  21984699.3274   21984698.6104
 -15394179.18544 -11995453.69844  21144022.4114   21144021.8984
 95  2 22  1 40  0.0000000  0  8G12G 7G 2G26G 5G24G 9G 4
 -17430039.122 4 -13581834.821 4  21034689.943    21034689.324
    826281.32944    643861.32744  21088109.1514   21088109.0034
   7162823.76644   5581422.24944  22307844.8364   22307844.7594
   4543275.04444   3540214.61344  24095718.2574   24095718.6744
  -5718200.08844  -4455734.40944  24261497.8554   24261498.7114
  -8423981.52644  -6564132.48944  22966579.1574   22966579.9544
 -16035602.42644 -12495262.73044  21972225.0974   21972224.3514
 -15448300.15844 -12037625.85444  21133723.6154   21133723.1784
 95  2 22  1 40 30.0000000  0  8G12G 7G 2G26G 5G24G 9G 4
 -17472790.919 4 -13615147.899 4  21026554.589    21026553.856
    880419.40044    686046.85044  21098411.2534   21098410.8594
   7216398.53144   5623168.82144  22318039.8814   22318040.3434
   4611878.00944   3593671.46044  24108772.4734   24108775.4214
  -5798835.38844  -4518567.03844  24246153.3544   24246154.3704
  -8526713.35844  -6644183.17144  22947029.8554   22947031.4404
 -16100722.33444 -12546005.48844  21959833.0314   21959832.2614
 -15501926.75644 -12079412.77744  21123518.9314   21123518.2674
 95  2 22  1 41  0.0000000  0  8G12G 7G 2G26G 5G24G 9G 4
 -17515145.721 4 -13648151.630 4  21018494.716    21018493.925
    934764.85644    728393.96744  21108752.8944   21108752.5734
   7270239.32644   5665122.68144  22328285.5254   22328285.7864
   4680626.82444   3647241.91144  24121854.6564   24121856.3604
  -5879464.59044  -4581394.90244  24230810.2884   24230812.0254
  -8629248.97744  -6724080.97844  22927517.5724   22927519.4794
 -16165405.26944 -12596407.74744  21947524.1964   21947523.6954
 -15555066.00244 -12120819.94644  21113406.9544   21113406.0344
 95  2 22  1 41 30.0000000  0  8G12G 7G 2G26G 5G24G 9G 4
 -17557110.407 4 -13680851.374 4  21010508.981    21010508.365
    989323.68544    770907.34744  21119135.1444   21119134.9984
   7324354.55544   5707290.38344  22338583.3514   22338584.7144
   4749505.39544   3700913.46444  24134961.6724   24134963.5154
  -5960077.67944  -4644210.22144  24215470.4044   24215470.4594
  -8731609.05544  -6803841.99644  22908038.7314   22908040.3194
 -16229668.20044 -12646482.73144  21935295.3524   21935294.9584
 -15607701.23544 -12161834.37944  21103390.6484   21103389.7574
 95  2 22  1 42  0.0000000  0  8G12G 7G 2G26G 5G24G 9G 4
 -17598688.820 4 -13713250.125 4  21002596.795    21002596.273
   1044082.26044    813576.37344  21129555.3594   21129555.0524
   7378747.95544   5749674.83744  22348934.2784   22348934.9344
   4818515.01444   3754687.17944  24148094.0414   24148096.4924
  -6040692.71744  -4707027.04544  24200129.8704   24200130.4184
  -8833795.78344  -6883467.93444  22888593.0154   22888595.0984
 -16293523.62144 -12696240.17344  21923144.1014   21923143.1814
 -15659815.37544 -12202442.76544  21093473.4064   21093472.6494
 95  2 22  1 42 30.0000000  0  8G12G 7G 2G26G 5G24G 9G 4
 -17639889.952 4 -13745354.892 4  20994756.531    20994755.857
   1099026.47844    856390.05844  21140010.6714   21140010.4434
   7433398.12644   5792259.37144  22359333.7814   22359334.3724
   4887654.53844   3808562.07244  24161251.3304   24161252.8504
  -6121332.39044  -4769863.07344  24184784.6064   24184784.7444
  -8935826.63944  -6962972.41144  22869177.0654   22869179.1374
 -16356985.83044 -12745691.20944  21911067.6074   21911066.5834
 -15711405.20344 -12242642.59544  21083656.2864   21083655.5854
 95  2 22  1 43  0.0000000  0  8G12G 7G 2G26G 5G24G 9G 4
 -17680734.970 4 -13777182.167 4  20986984.045    20986983.328
   1154141.74844    899337.03044  21150498.7354   21150498.3674
   7488276.89844   5835022.04744  22369776.7984   22369777.5494
   4956892.14644   3862513.43944  24174426.5634   24174428.6984
  -6202026.89344  -4832741.79544  24169428.7394   24169429.4474
  -9037722.99044  -7042372.05844  22849786.6694   22849787.4874
 -16420074.40744 -12794851.11044  21899062.1884   21899061.5814
 -15762474.63144 -12282436.92344  21073938.1674   21073937.2804
 95  2 22  1 43 30.0000000  0  8G12G 7G 2G26G 5G24G 9G 4
 -17721209.135 4 -13808720.465 4  20979282.013    20979281.480
   1209429.13644    942418.11844  21161019.7694   21161019.2684
   7543380.88644   5877960.20944  22380262.9554   22380263.3924
   5026245.37744   3916554.87544  24187623.9094   24187627.1014
  -6282770.49044  -4895658.81844  24154063.7644   24154062.8204
  -9139453.17644  -7121642.24644  22830427.9194   22830429.4204
 -16482775.62144 -12843709.16644  21887130.4714   21887129.4214
 -15813007.04844 -12321812.80144  21064322.2014   21064321.5034
 95  2 22  1 44  0.0000000  0  8G12G 7G 2G26G 5G24G 9G 4
 -17761282.640 4 -13839946.560 4  20971656.316    20971655.657
   1264910.99944    985650.74744  21171577.5894   21171576.9944
   7598723.28544   5921084.13644  22390794.3764   22390794.1274
   5095750.06844   3970714.32244  24200850.5814   24200850.2804
  -6363556.28144  -4958608.67844  24138690.6444   24138691.7544
  -9240970.87744  -7200746.87644  22811109.7404   22811111.3124
 -16545049.97444 -12892234.60744  21875280.1704   21875279.5664
 -15862984.75944 -12360756.44144  21054811.6154   21054810.8264
 95  2 22  1 44 30.0000000  0  8G12G 7G 2G26G 5G24G 9G 4
 -17800961.306 4 -13870864.988 4  20964105.712    20964105.073
   1320590.29044   1029037.21344  21182172.9734   21182172.0114
   7654285.29544   5964379.20244  22401367.4404   22401367.7964
   5165388.32944   4024977.83844  24214102.1194   24214103.3524
  -6444387.34344  -5021593.84744  24123309.0924   24123309.7694
  -9342282.08444  -7279690.61244  22791830.7964   22791832.8534
 -16606894.69044 -12940425.26144  21863511.3424   21863510.7484
 -15912427.74844 -12399283.41344  21045402.8924   21045402.3334
 95  2 22  1 45  0.0000000  0  8G12G 7G 2G26G 5G24G 9G 4
 -17840248.130 4 -13901478.085 4  20956629.642    20956628.897
   1376466.97744   1072577.49944  21192805.8604   21192805.0304
   7710064.87144   6007843.76544  22411981.8114   22411981.3864
   5235145.19444   4079333.77844  24227376.7724   24227376.4514
  -6525262.75044  -5084613.54644  24107918.8764   24107920.3624
  -9443385.64044  -7358472.55244  22772591.7434   22772593.1854
 -16668300.39044 -12988273.82744  21851826.2364   21851825.6074
 -15961354.05844 -12437407.78144  21036092.4784   21036091.8584
 95  2 22  1 45 30.0000000  0  8G12G 7G 2G26G 5G24G 9G 4
 -17879128.372 4 -13931774.364 4  20949230.911    20949230.231
   1432534.99644   1116266.88144  21203475.0994   21203474.5364
   7766074.18644   6051486.76444  22422639.8714   22422639.4984
   5305045.57044   4133801.57444  24240678.6664   24240679.7774
  -6606156.57344  -5147647.61044  24092525.5334   24092526.2384
  -9544273.02044  -7437086.03344  22753393.6274   22753395.4684
 -16729247.97244 -13035765.42644  21840228.3214   21840227.6504
 -16009771.54644 -12475135.66844  21026878.8914   21026878.2264
 95  2 22  1 46  0.0000000  0  8G12G 7G 2G26G 5G24G 9G 4
 -17917602.354 4 -13961754.075 4  20941909.534    20941909.029
   1488783.53144   1160096.91044  21214178.8764   21214178.6614
   7822325.24744   6095319.63244  22433344.0574   22433343.6154
   5375071.79444   4188367.42844  24254004.1574   24254005.5874
  -6687066.07944  -5210693.89244  24077128.7514   24077128.3224
  -9644960.74244  -7515543.93144  22734233.4984   22734235.8914
 -16789732.01544 -13082895.82344  21828718.4694   21828718.0954
 -16057683.16444 -12512469.36744  21017761.6264   21017760.7294
 95  2 22  1 46 30.0000000  0  8G12G 7G 2G26G 5G24G 9G 4
 -17955668.631 4 -13991416.095 4  20934665.825    20934665.226
   1545211.29444   1204066.60144  21224916.7694   21224916.7584
   7878830.72744   6139350.77444  22444096.7324   22444096.8334
   5445206.77644   4243018.03144  24267350.5564   24267352.5774
  -6767978.40144  -5273742.35844  24061731.4574   24061733.2574
  -9745470.90344  -7593863.47044  22715106.8744   22715107.8274
 -16849752.73644 -13129665.19044  21817297.1084   21817296.6764
 -16105081.66844 -12549403.23744  21008741.9864   21008741.1824
 95  2 22  1 47  0.0000000  0  8G12G 7G 2G26G 5G24G 9G 4
 -17993319.024 4 -14020754.051 4  20927501.169    20927500.494
   1601814.28144   1248172.83544  21235687.8994   21235687.9974
   7935607.44844   6183592.31944  22454900.9364   22454900.5284
   5515442.29244   4297746.94544  24280715.9124   24280718.0334
  -6848887.48344  -5336788.31844  24046334.8904   24046335.5134
  -9845800.05544  -7672041.96644  22696014.6864   22696015.9894
 -16909305.77044 -13176070.12944  21805964.4334   21805963.7904
 -16151943.67744 -12585919.06344  20999824.3724   20999823.5644
 95  2 22  1 47 30.0000000  0  8G12G 7G 2G26G 5G24G 9G 4
 -18030561.022 4 -14049773.779 4  20920414.158    20920413.548
   1658582.68044   1292407.96144  21246490.4454   21246490.3324
   7992645.52844   6228037.55944  22465754.9294   22465754.6344
   5585768.80344   4352546.77644  24294098.4134   24294098.2274
  -6929804.38244  -5399840.35544  24030936.4644   24030937.0284
  -9945947.94944  -7750079.22744  22676957.1304   22676958.9924
 -16968410.36544 -13222125.63244  21794717.1164   21794716.5144
 -16198270.08244 -12622017.53444  20991008.7444   20991007.7834
 95  2 22  1 48  0.0000000  0  8G 7G 2G12G26G 5G24G 9G 4
   1715545.72744   1336794.76144  21257330.2904   21257330.0314
   8049947.04144   6272688.06544  22476659.1704   22476659.7624
 -18067388.092 4 -14078470.185 4  20913406.141    20913405.650
   5656179.83344   4407412.49144  24307496.9144   24307497.3834
  -7010737.86244  -5462905.29544  24015535.3174   24015536.0854
 -10045903.09544  -7827966.29844  22657936.6604   22657937.4864
 -17027072.39444 -13267836.28344  21783554.0844   21783553.1374
 -16244046.71544 -12657687.61544  20982297.9234   20982296.9514
 95  2 22  1 48 30.0000000  0  8G 7G 2G12G26G 5G24G 9G 4
   1772716.69344   1381343.57744  21268209.7174   21268209.4774
   8107489.42844   6317526.28144  22487609.1284   22487609.7514
 -18103804.508 4 -14106846.598 4  20906476.386    20906475.814
   5726674.10744   4462343.05544  24320911.4664   24320913.9844
  -7091699.56244  -5525992.24244  24000128.6924   24000129.0924
 -10145655.73944  -7905695.57744  22638954.4984   22638955.0474
 -17085307.56544 -13313214.32044  21772472.3924   21772471.1954
 -16289280.90644 -12692935.00644  20973690.1494   20973689.1234
 95  2 22  1 49  0.0000000  0  8G 7G 2G12G26G 5G24G 9G 4
   1830082.70944   1426044.38044  21279126.1894   21279125.8314
   8165248.56744   6362533.39644  22498600.2494   22498599.9604
 -18139814.027 4 -14134905.952 4  20899624.102    20899623.341
   5797250.28044   4517337.43344  24334341.6054   24334344.8154
  -7172692.30844  -5589103.37744  23984715.9324   23984717.4714
 -10245192.16344  -7983256.37444  22620013.5014   22620013.8274
 -17143123.82444 -13358265.93844  21761470.4184   21761469.1054
 -16333988.22844 -12727771.84544  20965182.4614   20965181.3544
 95  2 22  1 49 30.0000000  0  8G 7G12G 2G26G 5G24G 9G 4
   1887655.48444   1470906.29244  21290081.9784   21290081.5194
 -18175409.880 4 -14162642.971 4  20892850.472    20892849.706
   8223225.15344   6407709.94744  22509632.7494   22509632.3264
   5867916.70344   4572402.13844  24347789.2504   24347788.8364
  -7253702.90944  -5652228.43644  23969300.1074   23969301.4394
 -10344486.52344  -8060628.56444  22601118.2294   22601119.0684
 -17200517.41044 -13402988.19244  21750548.8504   21750548.0264
 -16378183.58444 -12762209.75644  20956772.2774   20956771.2824
 95  2 22  1 50  0.0000000  0  8G 7G 2G12G26G 5G24G 9G 4
   1945431.42344   1515926.51544  21301076.2094   21301075.6274
   8281430.56344   6453064.80944  22520708.7214   22520709.7604
 -18210586.337 4 -14190053.186 4  20886156.533    20886155.921
   5938669.20844   4627533.92644  24361253.1464   24361255.4734
  -7334712.62044  -5715352.80644  23953884.4184   23953885.0434
 -10443529.56244  -8137804.91444  22582270.5294   22582271.2054
 -17257489.41744 -13447381.94244  21739707.1894   21739706.7304
 -16421858.49744 -12796242.12944  20948461.1814   20948460.3584
 95  2 22  1 50 30.0000000  0  8G 7G 2G12G26G 5G24G 9G 4
   2003385.07144   1561085.20944  21312104.3774   21312103.8034
   8339882.76444   6498611.97044  22531832.0634   22531832.5174
 -18245343.108 4 -14217136.370 4  20879542.478    20879541.923
   6009504.63844   4682730.33544  24374732.6324   24374735.3064
  -7415716.30044  -5778472.47944  23938470.1154   23938472.6604
 -10542323.37544  -8214787.06144  22563470.7084   22563471.4044
 -17314033.80244 -13491442.47944  21728947.0384   21728946.4484
 -16465016.00044 -12829871.32144  20940248.6134   20940247.5164
 95  2 22  1 51  0.0000000  0  8G 7G 2G12G26G 5G24G 9G 4
   2061495.14144   1606365.79444  21323162.2684   21323161.7514
   8398605.26644   6544369.76444  22543006.6604   22543007.1944
 -18279678.780 4 -14243891.427 4  20873008.465    20873007.990
   6080416.49944   4737986.28144  24388226.3074   24388228.1954
  -7496717.64644  -5841590.33544  23923056.3824   23923057.6144
 -10640867.51544  -8291574.65144  22544718.5504   22544719.0584
 -17370131.51844 -13535154.96444  21718271.9334   21718271.2264
 -16507650.16444 -12863092.71444  20932135.5084   20932134.4704
 95  2 22  1 51 30.0000000  0  8G 7G 2G12G26G 5G24G 9G 4
   2119752.27144   1651760.96444  21334248.2914   21334247.9004
   8457608.18544   6590346.06744  22554234.5174   22554234.8854
 -18313600.993 4 -14270324.307 4  20866553.273    20866552.784
   6151395.32444   4793294.43344  24401732.7184   24401734.8844
  -7577733.02144  -5904719.12244  23907639.5024   23907639.6654
 -10739170.25644  -8368174.12744  22526012.3424   22526012.2694
 -17425777.36244 -13578515.34444  21707682.6674   21707681.8094
 -16549752.73744 -12895899.88644  20924123.6734   20924122.4764
 95  2 22  1 52  0.0000000  0  8G 7G 2G12G26G 5G24G 9G 4
   2178138.27344   1697256.55744  21345358.8134   21345358.4954
   8516887.36444   6636537.62344  22565514.8204   22565515.7804
 -18347111.521 4 -14296436.394 4  20860176.499    20860175.959
   6222436.12044   4848650.86144  24415251.3674   24415254.0354
  -7658776.31544  -5967869.64544  23892217.6574   23892217.8244
 -10837264.24844  -8444610.94644  22507345.7154   22507346.2004
 -17480961.32944 -13621515.82844  21697181.5524   21697180.9434
 -16591308.40844 -12928280.89844  20916215.8524   20916215.0974
 95  2 22  1 52 30.0000000  0  8G 7G12G 2G26G 5G24G 9G 4
   2236663.06744   1742860.29544  21356495.6554   21356495.4094
 -18380200.212 4 -14322219.778 4  20853879.871    20853879.366
   8576429.88044   6682934.38444  22576845.3654   22576846.4144
   6293541.14944   4904057.34344  24428783.0764   24428784.0404
  -7739860.21344  -6031051.85544  23876787.7904   23876787.9754
 -10935149.29744  -8520884.95044  22488718.6864   22488718.6284
 -17535652.81944 -13664132.54744  21686774.1394   21686773.2794
 -16632309.13944 -12960229.49044  20908413.5334   20908412.6854
 95  2 22  1 53  0.0000000  0  8G 7G12G 2G26G 5G24G 9G 4
   2295319.66444   1788566.73844  21367657.5054   21367657.3654
 -18412880.199 4 -14347684.691 4  20847661.123    20847660.481
   8636198.54744   6729507.35444  22588219.1804   22588220.1394
   6364688.27744   4959496.60844  24442322.4474   24442322.7994
  -7821000.68744  -6094278.13944  23861347.0544   23861345.9164
 -11032831.39844  -8597000.81944  22470130.1014   22470131.0664
 -17589868.83544 -13706378.77144  21676457.2974   21676456.3104
 -16672759.25844 -12991749.03644  20900716.0564   20900715.2544
 95  2 22  1 53 30.0000000  0  8G 7G12G 2G26G 5G24G 9G 4
   2354135.66244   1834397.39144  21378849.7864   21378849.6644
 -18445137.441 4 -14372820.194 4  20841522.833    20841522.224
   8696188.29844   6776252.60344  22599634.7494   22599634.7704
   6435884.68544   5014974.28544  24455871.0044   24455873.0344
  -7902176.89044  -6157532.24244  23845899.4634   23845899.0584
 -11130308.87044  -8672957.24344  22451580.3964   22451581.6194
 -17643620.52944 -13748263.18544  21666228.8374   21666227.6524
 -16712645.21444 -13022828.97244  20893126.0024   20893125.4074
 95  2 22  1 54  0.0000000  0  8G12G 7G 2G26G 5G24G 9G 4
 -18476955.660 4 -14397613.601 4  20835468.033    20835467.545
   2413127.38544   1880364.97344  21390075.5544   21390075.6504
   8756397.33544   6823168.73044  22611091.8914   22611092.2034
   6507136.66044   5070495.26844  24469429.5004   24469429.5534
  -7983372.16344  -6220801.20144  23830448.2424   23830447.9064
 -11227567.79444  -8748743.36444  22433072.4264   22433074.0594
 -17696910.85944 -13789788.10544  21656088.0514   21656086.6244
 -16751958.48044 -13053462.65644  20885645.0054   20885644.1524
 95  2 22  1 54 30.0000000  0  8G 7G12G 2G26G 5G24G 9G 4
   2472298.76344   1926472.54744  21401335.5494   21401335.6524
 -18508335.338 4 -14422065.288 4  20829496.574    20829496.067
   8816823.86044   6870254.31844  22622590.5654   22622591.1044
   6578441.35944   5126057.33944  24482998.0034   24482999.4164
  -8064583.78644  -6284082.89744  23814994.2354   23814994.9024
 -11324577.51344  -8824335.29044  22414612.1784   22414613.0404
 -17749751.16244 -13830962.35344  21646032.7394   21646031.6294
 -16790708.80544 -13083657.68344  20878271.0084   20878270.0884
 95  2 22  1 55  0.0000000  0  8G 7G12G 2G26G 5G24G 9G 4
   2531656.70844   1972725.50144  21412631.1794   21412631.0964
 -18539263.987 4 -14446165.522 4  20823610.997    20823610.489
   8877493.93444   6917529.70344  22634135.7294   22634135.4154
   6649823.35444   5181679.65644  24496581.4884   24496582.0244
  -8145787.26244  -6347358.25344  23799541.6754   23799541.7454
 -11421320.08744  -8899719.05644  22396202.7504   22396203.5024
 -17802133.35744 -13871779.63744  21636064.7644   21636063.7454
 -16828890.72444 -13113409.79644  20871005.4064   20871004.2214
 95  2 22  1 55 30.0000000  0  8G 7G12G 2G26G 5G24G 9G 4
   2591201.46844   2019124.02244  21423962.1784   21423961.8954
 -18569736.935 4 -14469910.664 4  20817812.201    20817811.607
   8938410.08944   6964996.82644  22645727.9784   22645728.7044
   6721295.21244   5237372.00144  24510182.2204   24510183.5604
  -8226969.34444  -6410616.94744  23784092.7814   23784094.0954
 -11517800.06244  -8974898.19144  22377843.2264   22377843.8484
 -17854041.05544 -13912227.18144  21626187.0954   21626185.9434
 -16866502.90944 -13142717.95644  20863847.9834   20863846.7614
 95  2 22  1 56  0.0000000  0  8G 7G12G 2G26G 5G24G 9G 4
   2650914.96544   2065654.02944  21435325.3654   21435325.0344
 -18599754.529 4 -14493300.987 4  20812099.935    20812099.489
   8999574.47044   7012657.37644  22657367.1464   22657366.8194
   6792859.23244   5293136.14344  24523800.4754   24523802.8274
  -8308132.45644  -6473860.83944  23768647.8164   23768647.7414
 -11613997.82744  -9049857.42844  22359537.1994   22359538.2434
 -17905449.01744 -13952285.32144  21616404.6844   21616403.5124
 -16903552.84444 -13171588.00144  20856797.6004   20856796.8804
 95  2 22  1 56 30.0000000  0  8G 7G12G 2G26G 5G24G 9G 4
   2710774.22644   2112297.61844  21446716.1184   21446715.7334
 -18629328.664 4 -14516345.755 4  20806472.167    20806471.848
   9060987.21644   7060511.45944  22669053.6764   22669054.4784
   6864497.59144   5348958.18444  24537433.0114   24537434.4884
  -8389291.98644  -6537101.98244  23753203.9964   23753204.6724
 -11709932.37644  -9124611.57144  22341281.4204   22341282.1234
 -17956352.00344 -13991949.96844  21606717.9484   21606717.1194
 -16940058.52044 -13200033.95144  20849850.7464   20849849.9334
 95  2 22  1 57  0.0000000  0  8G 7G12G 2G26G 5G24G 9G 4
   2770781.18744   2159056.29744  21458135.0344   21458134.6904
 -18658451.648 4 -14539038.977 4  20800930.356    20800929.851
   9122656.51344   7108565.44844  22680788.8914   22680789.7664
   6936204.82344   5404833.91944  24551078.4134   24551080.2744
  -8470432.44844  -6600328.23044  23737763.5104   23737763.1764
 -11805609.79044  -9199165.34044  22323074.7294   22323075.2254
 -18006756.92744 -14031226.51944  21597126.0904   21597125.4294
 -16976002.95544 -13228042.57544  20843010.6494   20843009.5374
 95  2 22  1 57 30.0000000  0  8G 7G12G 2G26G 5G24G 9G 4
   2830921.46744   2205918.86044  21469579.3164   21469578.8084
 -18687136.107 4 -14561390.490 4  20795471.869    20795471.481
   9184576.13644   7156814.49344  22692571.8774   22692571.5344
   7007943.15344   5460733.88044  24564728.8404   24564729.8544
  -8551565.68444  -6663548.85944  23722324.2474   23722324.4164
 -11901035.69044  -9273523.12644  22304915.8344   22304916.5974
 -18056688.04544 -14070133.86944  21587624.4214   21587623.5544
 -17011393.31544 -13255619.44444  20836275.9894   20836274.8314
 95  2 22  1 58  0.0000000  0  8G12G 7G 2G26G 5G24G 9G 4
 -18715381.310 4 -14583399.727 4  20790096.987    20790096.453
   2891189.76644   2252881.18244  21481048.0714   21481047.7544
   9246752.95944   7205263.96644  22704403.6444   22704404.2834
   7079690.35744   5516640.79644  24578381.3334   24578382.4724
  -8632711.76244  -6726779.47744  23706882.4864   23706882.7624
 -11996197.83344  -9347675.38344  22286806.9134   22286807.6414
 -18106159.62044 -14108683.13544  21578210.3434   21578209.5134
 -17046237.39444 -13282770.64844  20829645.3864   20829644.1484
 95  2 22  1 58 30.0000000  0  8G12G 7G 2G26G 5G24G 9G 4
 -18743182.740 4 -14605063.166 4  20784806.454    20784805.977
   2951597.43644   2299952.09744  21492543.2604   21492543.2674
   9309187.22544   7253914.01944  22716284.6084   22716285.0724
   7151443.15444   5572552.03844  24592035.3494   24592035.9534
  -8713877.29144  -6790025.27744  23691436.7894   23691437.9324
 -12091100.51744  -9421625.46844  22268747.6264   22268748.0174
 -18155185.91944 -14146885.43244  21568881.1494   21568880.1134
 -17080529.08544 -13309491.41944  20823119.9274   20823118.8954
 95  2 22  1 59  0.0000000  0  8G12G 7G 2G26G 5G24G 9G 4
 -18770528.343 4 -14626371.413 4  20779602.711    20779602.335
   3012166.54644   2347148.80844  21504069.2534   21504069.0534
   9371882.57944   7302767.54144  22728215.5494   22728216.1174
   7223212.42544   5628476.10244  24605693.3844   24605696.5454
  -8795044.89444  -6853272.67744  23675990.8774   23675991.5164
 -12185714.65844  -9495350.71044  22250742.8664   22250744.3144
 -18203756.91944 -14184732.95244  21559638.3304   21559637.6574
 -17114254.38044 -13335770.84044  20816702.1794   20816701.2024
 95  2 22  1 59 30.0000000  0  8G12G 7G 2G26G 5G24G 9G 4
 -18797416.149 4 -14647322.939 4  20774486.206    20774485.776
   3072892.78044   2394467.95044  21515625.1664   21515624.8504
   9434830.24444   7351817.64944  22740193.8574   22740194.1124
   7295001.39644   5684415.52844  24619354.9324   24619356.3934
  -8876231.23644  -6916534.69844  23660541.7014   23660542.1184
 -12280043.84144  -9568853.92244  22232792.4784   22232793.7354
 -18251842.78244 -14222202.43544  21550487.7584   21550486.8024
 -17147417.78244 -13361612.42644  20810391.2154   20810390.5284
 95  2 22  2  0  0.0000000  0  8G12G 7G 2G26G 5G24G 9G 4
 -18823852.146 4 -14667922.405 4  20769455.673    20769455.102
   3133761.74444   2441898.31744  21527207.9544   21527207.4634
   9498010.71844   7401049.20044  22752216.4724   22752216.4944
   7366819.53344   5740377.68444  24633021.7044   24633022.2914
  -8957451.07744  -6979822.80744  23645085.8974   23645086.9304
 -12374103.80144  -9642147.34144  22214893.2854   22214894.7354
 -18299437.54744 -14259289.25244  21541430.7274   21541430.0694
 -17180026.41644 -13387021.72644  20804186.0094   20804185.0034
 95  2 22  2  0 30.0000000  0  8G12G 7G 2G26G 5G24G 9G 4
 -18849830.069 4 -14688164.931 4  20764512.238    20764511.565
   3194776.13744   2489442.00444  21538818.5224   21538817.8944
   9561428.28144   7450465.47644  22764284.2224   22764285.5274
   7438682.22544   5796374.55144  24646696.6224   24646698.5444
  -9038681.77944  -7043119.38544  23629628.2594   23629629.2234
 -12467893.81644  -9715230.41244  22197045.6314   22197047.1124
 -18346520.41144 -14295977.18644  21532471.2244   21532470.0984
 -17212066.20044 -13411987.76844  20798089.0094   20798088.0854
 95  2 22  2  1  0.0000000  0  8G12G 7G 2G26G 5G24G 9G 4
 -18875341.872 4 -14708044.249 4  20759657.395    20759656.683
   3255939.92644   2537102.10244  21550457.5144   21550457.0184
   9625083.92944   7500067.27944  22776397.6664   22776398.1694
   7510593.50444   5852409.30344  24660380.6814   24660381.7504
  -9119901.67744  -7106407.54344  23614172.7114   23614172.2414
 -12561406.04544  -9788097.02644  22179250.9094   22179252.2824
 -18393077.72944 -14332255.59844  21523611.4024   21523610.4384
 -17243526.23144 -13436502.05144  20792102.2694   20792101.3974
 95  2 22  2  1 30.0000000  0  8G12G 7G 2G26G 5G24G 9G 4
 -18900382.857 4 -14727556.692 4  20754892.180    20754891.588
   3317247.92344   2584874.57344  21562123.9284   21562123.4244
   9688981.78744   7549857.80344  22788557.2244   22788557.1724
   7582553.73744   5908482.13544  24674074.2304   24674075.7774
  -9201118.94044  -7169693.65644  23598717.6654   23598718.1974
 -12654638.67244  -9860745.77744  22161509.2974   22161509.9384
 -18439110.26444 -14368125.08644  21514851.9554   21514851.1024
 -17274411.79844 -13460568.69844  20786225.0594   20786223.8754
 95  2 22  2  2  0.0000000  0  8G12G 7G 2G26G 5G24G 9G 4
 -18924955.237 4 -14746703.990 4  20750216.222    20750215.681
   3378700.63544   2632759.81244  21573817.9074   21573817.2414
   9753124.23244   7599838.91444  22800763.0284   22800763.8194
   7654544.58344   5964578.89044  24687773.3774   24687773.4464
  -9282327.75944  -7232973.16444  23583263.8474   23583263.9624
 -12747580.82044  -9933168.18344  22143823.0444   22143823.5674
 -18484634.69444 -14403598.64844  21506188.8394   21506188.2024
 -17304734.46644 -13484196.73044  20780454.9494   20780453.7724
 95  2 22  2  2 30.0000000  0  8G12G 7G 2G26G 5G24G 9G 4
 -18949063.632 4 -14765489.742 4  20745628.552    20745627.983
   3440298.05344   2680757.80844  21585539.4704   21585538.7824
   9817502.88844   7650004.09944  22813013.8794   22813012.7534
   7726535.14644   6020675.39744  24701472.8484   24701476.0394
  -9363527.73544  -7296245.79244  23567811.7914   23567812.0574
 -12840228.46944 -10005361.11344  22126192.7404   22126193.1114
 -18529661.93744 -14438684.79344  21497620.2904   21497619.2714
 -17334504.06444 -13507393.79644  20774789.9184   20774788.6414
 95  2 22  2  3  0.0000000  0  8G12G 7G 2G26G 5G24G 9G 4
 -18972703.909 4 -14783910.729 4  20741130.063    20741129.514
   3502032.54944   2728862.61844  21597287.3214   21597286.8254
   9882128.50044   7700361.69144  22825311.8264   22825311.5294
   7798520.60044   6076767.91644  24715171.0244   24715172.3434
  -9444715.36944  -7359508.79344  23552362.1144   23552363.7434
 -12932576.39344 -10077320.49344  22108619.4754   22108619.7714
 -18574193.94844 -14473385.04144  21489146.2664   21489145.3214
 -17363710.07144 -13530151.69644  20769232.0664   20769230.9834
 95  2 22  2  3 30.0000000  0  8G12G 7G 2G26G 5G24G 9G 4
 -18995862.624 4 -14801956.475 4  20736723.118    20736722.634
   3563901.76244   2777072.40044  21609060.7304   21609060.4294
   9947023.72844   7750929.39644  22837661.0124   22837661.5834
   7870511.62444   6132864.75744  24728870.3534   24728869.9514
  -9525888.35444  -7422760.38744  23536915.4034   23536917.0214
 -13024609.23444 -10149034.35044  22091106.1354   22091106.6614
 -18618219.59944 -14507690.72044  21480768.2454   21480767.3414
 -17392334.00544 -13552456.03844  20763785.1104   20763783.9804
 95  2 22  2  4  0.0000000  0  8G12G 7G 2G26G 5G24G 9G 4
 -19018553.119 4 -14819637.373 4  20732405.140    20732404.719
   3625885.34544   2825371.31044  21620855.8594   21620855.3074
  10012176.41844   7801697.70844  22850058.8824   22850058.4244
   7942492.60244   6188953.75544  24742568.0844   24742571.2994
  -9607038.85744  -7485994.45444  23521472.9694   23521473.6544
 -13116348.53744 -10220519.47844  22073648.4874   22073649.0744
 -18661753.71644 -14541613.38744  21472483.8034   21472483.1744
 -17420366.77944 -13574299.73544  20758450.6434   20758449.4924
 95  2 22  2  4 30.0000000  0  8G12G 7G 2G26G 5G24G 9G 4
 -19040777.172 4 -14836954.809 4  20728175.930    20728175.545
   3687966.67844   2873746.37944  21632669.5044   21632669.2704
  10077587.57944   7852667.43644  22862506.3624   22862506.7484
   8014481.68244   6245049.12644  24756267.5744   24756267.1264
  -9688162.67144  -7549207.74544  23506035.9474   23506037.2394
 -13207802.28144 -10291782.08944  22056245.2714   22056246.4864
 -18704798.95744 -14575155.11644  21464292.8614   21464291.7004
 -17447796.44744 -13595673.48244  20753231.0244   20753230.0144
 95  2 22  2  5  0.0000000  0  8G12G 7G 2G26G 5G24G 9G 4
 -19062521.679 4 -14853898.575 4  20724038.148    20724037.667
   3750159.75444   2922208.53244  21644504.2364   21644503.8594
  10143263.77944   7903843.67244  22875004.3694   22875004.7854
   8086501.09244   6301168.12744  24769972.2284   24769973.8104
  -9769255.85944  -7612397.18344  23490604.2964   23490604.6134
 -13298962.96244 -10362816.33544  22038897.7604   22038899.3294
 -18747356.13644 -14608316.53444  21456194.4244   21456193.7794
 -17474608.10344 -13616565.65744  20748128.9534   20748127.8414
 95  2 22  2  5 30.0000000  0  8G12G 7G 2G26G 5G24G 9G 4
 -19083783.455 4 -14870466.184 4  20719992.184    20719991.766
   3812480.92244   2970770.48944  21656363.6474   21656363.5994
  10209196.23544   7955219.60744  22887551.0104   22887550.7944
   8158541.85544   6357303.74144  24783681.1444   24783688.5524
  -9850326.52244  -7675569.03444  23475177.2884   23475178.7974
 -13389820.34044 -10433614.25044  22021608.2014   22021609.0264
 -18789426.57244 -14641098.67544  21448188.5344   21448187.6994
 -17500821.47744 -13636991.64144  20743140.7714   20743139.4654
 95  2 22  2  6  0.0000000  0  8G12G 7G 2G26G 5G24G 9G 4
 -19104573.086 4 -14886665.888 4  20716036.086    20716035.446
   3874935.40744   3019436.32844  21668248.3644   21668248.0314
  10275366.28844   8006780.66144  22900142.5364   22900142.8574
   8230584.73844   6413441.00144  24797390.3634   24797395.1414
  -9931386.03444  -7738732.21544  23459751.9314   23459752.5994
 -13480389.14944 -10504187.29844  22004373.7044   22004374.2514
 -18831008.92444 -14673500.49344  21440275.8974   21440275.0204
 -17526458.65344 -13656968.64444  20738262.1824   20738260.8264
 95  2 22  2  6 30.0000000  0  8G12G 7G 2G26G 5G24G 9G 4
 -19124889.010 4 -14902496.471 4  20712170.148    20712169.405
   3937535.05344   3068215.28144  21680160.8124   21680160.5904
  10341772.12944   8058525.46544  22912779.0394   22912779.3774
   8302622.37244   6469574.17744  24811099.3324   24811099.2774
 -10012455.57144  -7801903.21744  23444324.8444   23444325.2134
 -13570662.65944 -10574530.24144  21987195.4234   21987195.8104
 -18872101.09444 -14705520.35244  21432456.0314   21432455.3764
 -17551530.23944 -13676504.92444  20733490.9674   20733489.8774
 95  2 22  2  7  0.0000000  0  8G12G 7G 2G26G 5G24G 9G 4
 -19144736.952 4 -14917962.392 4  20708393.186    20708392.464
   4000288.37644   3117113.98044  21692102.3804   21692101.8014
  10408404.22544   8110446.56344  22925458.5274   22925459.2004
   8374623.29244   6525678.74944  24824801.0164   24824801.5634
 -10093554.51644  -7865097.14544  23428892.2624   23428892.3984
 -13660641.50044 -10644643.57344  21970073.1064   21970073.9624
 -18912701.96244 -14737157.38144  21424729.9444   21424729.3934
 -17576048.36744 -13695609.93544  20728825.3444   20728824.2224
 95  2 22  2  7 30.0000000  0  8G12G 7G 2G26G 5G24G 9G 4
 -19164099.458 4 -14933050.049 4  20704708.605    20704707.964
   4063199.38244   3166135.54344  21704073.7844   21704073.8204
  10475289.26144   8162564.77644  22938186.2184   22938187.2974
   8446602.36444   6581766.27744  24838498.1784   24838497.4004
 -10174654.10844  -7928291.57644  23413459.2504   23413459.1104
 -13750308.37544 -10714513.81744  21953009.8834   21953011.1454
 -18952766.15344 -14768376.21844  21417106.2754   21417105.7114
 -17599990.83144 -13714266.37744  20724269.2284   20724268.0014
 95  2 22  2  8  0.0000000  0  8G12G 7G 2G26G 5G24G 9G 4
 -19182978.617 4 -14947761.074 4  20701115.900    20701115.451
   4126251.70444   3215267.22444  21716072.2664   21716072.3314
  10542423.39744   8214877.08844  22950961.8754   22950963.1964
   8518566.13644   6637841.89844  24852192.5644
 -10255748.57644  -7991482.02344  23398027.2534   23398027.1914
 -13839677.00744 -10784151.66844  21936003.5294   21936004.8654
 -18992285.15744 -14799170.23344  21409586.0224   21409585.3584
 -17623345.78144 -13732465.01544  20719824.8864   20719823.6404
 95  2 22  2  8 30.0000000  0  8G12G 7G 2G26G 5G24G 9G 4
 -19201371.862 4 -14962093.464 4  20697615.835    20697615.405
   4189434.75544   3264500.77044  21728095.4284   21728095.7204
  10609804.81044   8267382.06344  22963784.4324   22963783.9084
   8590509.14144   6693901.31344  24865882.9404
 -10336833.62544  -8054665.10844  23382597.3824   23382598.1744
 -13928733.55444 -10853546.34544  21919056.3844   21919057.9044
 -19031263.39744 -14829542.87344  21402168.5734   21402167.9724
 -17646112.39144 -13750205.20944  20715492.6084   20715491.3314
 95  2 22  2  9  0.0000000  0  8G12G 7G 2G26G 5G24G 9G 4
 -19219307.085 4 -14976068.955 4  20694202.910    20694202.389
   4252698.48144   3313797.18344  21740133.9974   21740134.2364
  10677396.67844   8320051.04044  22976646.3364   22976646.0254
   8662398.91544   6749919.24444  24879562.7494   24879562.3554
 -10417927.17344  -8117854.84344  23367165.6834   23367166.2254
 -14017503.54944 -10922717.73944  21902164.2474   21902165.4714
 -19069723.35844 -14859511.66144  21394849.8474   21394849.1834
 -17668327.10644 -13767515.35244  20711265.1664   20711264.0364
 95  2 22  2  9 30.0000000  0  8G12G 7G 2G26G 5G24G 9G 4
 -19236745.372 4 -14989657.223 4  20690884.396    20690883.979
   4316060.94744   3363170.53444  21752191.4804   21752191.0744
  10745241.64044   8372917.22844  22989556.8164   22989556.2014
   8734287.59244   6805936.37444  24893241.9434   24893242.4254
 -10498991.37044  -8181021.69044  23351739.3384   23351739.5454
 -14105948.30744 -10991635.68944  21885334.0834   21885334.4934
 -19107639.96444 -14889057.05344  21387634.5134   21387633.7034
 -17689960.09544 -13784372.20344  20707148.6674   20707147.5964
 95  2 22  2 10  0.0000000  0  8G12G 7G 2G26G 5G24G 9G 4
 -19253677.057 4 -15002850.735 4  20687662.421    20687661.882
   4379535.82944   3412631.48244  21764270.4324   21764269.9944
  10813348.18344   8425987.24944  23002517.4014   23002517.8534
   8806175.77044   6861953.12144  24906921.8874   24906921.6764
 -10580024.51444  -8244164.35644  23336319.0984   23336320.0414
 -14194045.09644 -11060282.48744  21868569.8344   21868569.8214
 -19145026.24544 -14918189.20744  21380520.2534   21380519.1104
 -17711007.19944 -13800772.51744  20703143.4564   20703142.2584
 95  2 22  2 10 30.0000000  0  8G12G 7G 2G26G 5G24G 9G 4
 -19270107.878 4 -15015653.963 4  20684535.785    20684535.208
   4443119.74244   3462177.39144  21776369.9754   21776369.6444
  10881714.99344   8479260.07444  23015527.2734   23015527.0684
   8878053.57244   6917961.76744  24920599.9824   24920601.5774
 -10661033.54644  -8307288.22144  23320903.7184   23320904.2124
 -14281782.14044 -11128648.96144  21851873.8054   21851874.2084
 -19181894.96544 -14946918.06944  21373504.6124   21373503.6134
 -17731478.50144 -13816724.15644  20699247.7694   20699246.5494
 95  2 22  2 11  0.0000000  0  8G 7G12G 2G26G 5G24G 9G 4
   4506809.84044   3511806.04044  21788489.8394   21788489.2694
 -19286036.150 4 -15028065.595 4  20681504.634    20681504.082
  10950356.28144   8532746.77744  23028589.0484   23028589.2044
   8949937.32944   6973975.04844  24934279.8164   24934281.6894
 -10742017.43944  -8370392.49844  23305493.2814   23305493.4514
 -14369161.59044 -11196736.79244  21835245.7844   21835246.5524
 -19218250.92344 -14975247.37444  21366586.2714   21366585.1154
 -17751369.87444 -13832223.90444  20695462.4924   20695461.3644
 95  2 22  2 11 30.0000000  0  8G 7G12G 2G26G 5G24G 9G 4
   4570609.94744   3561520.41044  21800630.7144   21800630.9314
 -19301473.989 4 -15040095.071 4  20678566.825    20678566.266
  11019263.68744   8586440.83944  23041701.8054   23041702.1834
   9021801.58244   7029973.15644  24947955.8044
 -10822992.90344  -8433490.22244  23290084.1874   23290083.7234
 -14456197.14144 -11264556.65444  21818683.2214   21818683.9754
 -19254113.59944 -15003192.30244  21359761.6264   21359760.5434
 -17770685.18644 -13847274.77444  20691786.9894   20691785.7254
 95  2 22  2 12  0.0000000  0  8G 7G12G 2G26G 5G24G 9G 4
   4634533.58144   3611331.03144  21812794.8744   21812794.4074
 -19316419.084 4 -15051740.592 4  20675722.867    20675722.404
  11088422.80244   8640331.04744  23054862.2184   23054862.7504
   9093625.76544   7085939.96944  24961623.5724
 -10903945.43344  -8496570.08344  23274679.7384   23274680.3534
 -14542889.32344 -11332108.96544  21802186.4264   21802187.1764
 -19289461.39244 -15030736.01244  21353035.1104   21353034.0194
 -17789413.82744 -13861868.49644  20688223.0564   20688221.8734
 95  2 22  2 12 30.0000000  0  8G 7G12G 2G26G 5G24G 9G 4
   4698578.96644   3661236.52744  21824982.2204   21824981.7454
 -19330867.010 4 -15062998.708 4  20672973.640    20672973.012
  11157832.22544   8694416.28244  23068070.1234   23068072.0334
   9165400.18944   7141868.01444  24975281.2104
 -10984868.60444  -8559627.05244  23259280.5684   23259280.0664
 -14629253.02244 -11399405.32244  21785752.0224   21785752.4194
 -19324282.19844 -15057869.09944  21346408.7584   21346407.7074
 -17807550.70844 -13876001.10844  20684771.6524   20684770.2484
 95  2 22  2 13  0.0000000  0  8G 7G12G 2G26G 5G24G 9G 4
   4762736.37544   3711229.31744  21837191.0354   21837190.6534
 -19344817.407 4 -15073869.141 4  20670319.023    20670318.403
  11227484.38944   8748690.68344  23081324.4274   23081324.7474
   9237107.06444                  24988925.9554
 -11065762.56544  -8622661.27944  23243887.0514   23243886.5694
 -14715298.28944 -11466453.54044  21769378.1834   21769378.8764
 -19358577.77244 -15084592.90944  21339882.6364   21339881.9784
 -17825080.67844 -13889660.80344  20681435.6614   20681434.6294
 95  2 22  2 13 30.0000000  0  8G12G 7G 2G26G 5G24G 9G 4
 -19358268.746 4 -15084350.695 4  20667759.334    20667758.721
   4827014.72444   3761316.34544  21849422.8774   21849422.8944
  11297367.73744   8803145.23044  23094623.0914   23094622.2624
   9308725.51944   7253550.06744  25002554.1964
 -11146618.53544  -8685665.90044  23228500.8144   23228500.2694
 -14801020.70544 -11533250.18544  21753065.6274   21753066.0524
 -19392334.13944 -15110896.55944  21333459.1734   21333458.1144
 -17842004.13644 -13902847.89144  20678215.3204   20678214.3164
 95  2 22  2 14  0.0000000  0  8G12G 7G 2G26G 5G24G 9G 4
 -19371223.848 4 -15094445.573 4  20665294.028    20665293.278
   4891401.92744   3811488.19544  21861675.5024   21861674.8834
  11367483.62044   8857780.95644  23107965.6114   23107966.9304
   9380260.99844   7309291.98144  25016167.9374
 -11227434.59544  -8748639.42844  23213121.9744   23213120.3174
 -14886411.25144 -11599788.22744  21736816.3214   21736816.6734
 -19425548.70144 -15136778.02244  21327138.6244   21327137.3164
 -17858326.38944 -13915566.50744  20675109.2684   20675108.3614
 95  2 22  2 14 30.0000000  0  8G12G 7G 2G26G 5G24G 9G 4
 -19383681.650 4 -15104152.946 4  20662923.366    20662922.768
   4955893.73144   3861741.55344  21873947.8894   21873947.3704
  11437837.14744   8912601.87544  23121353.4144   23121354.1684
   9451729.69044   7364981.81644  25029768.8534   25029768.1214
 -11308220.30044  -8811589.29844  23197748.7984   23197748.4284
 -14971456.00944 -11666056.82844  21720632.6004   21720632.8614
 -19458233.04244 -15162246.32444  21320918.9424   21320917.3214
 -17874057.36844 -13927824.39144  20672115.7434   20672114.5684
 95  2 22  2 15  0.0000000  0  8G12G 7G 2G26G 5G24G 9G 4
 -19395646.790 4 -15113476.428 4  20660646.554    20660645.868
   5020496.17144   3912081.12544  21886241.4064   21886240.1224
  11508420.50644   8967601.86944  23134785.0824   23134784.0434
   9523144.78044   7420629.92644  25043358.2964
 -11388988.35444  -8874525.39644  23182378.8294   23182378.5094
 -15056128.47944 -11732035.33944  21704519.7984   21704520.3224
 -19490389.86144 -15187303.57044  21314799.7034   21314798.0364
 -17889208.49644 -13939630.44844  20669232.6094   20669231.4604
 95  2 22  2 15 30.0000000  0  8G 7G12G 2G26G 5G24G 9G 4
   5085235.24744   3962527.16844  21898560.7244   21898559.9384
 -19407104.877 4 -15122404.805 4  20658466.086    20658465.458
  11579254.49944   9022797.17444  23148264.3704   23148263.6554
   9594529.07844   7476253.96744  25056942.9174   25056943.4174
 -11469729.42644  -8937440.49544  23167013.9394   23167014.2964
 -15140403.46244 -11797704.11744  21688482.8194   21688483.4314
 -19522003.86544 -15211937.84544  21308783.8094   21308782.4964
 -17903790.05344 -13950992.68044  20666457.8054   20666456.9084
 95  2 22  2 16  0.0000000  0  8G 7G12G 2G26G 5G24G 9G 4
   5150093.01544   4013065.69644  21910902.8434   21910902.3124
 -19418056.722 4 -15130938.706 4  20656381.901    20656381.402
  11650341.84444   9078189.89544  23161791.7554   23161793.0684
   9665887.73544   7531858.12044  25070522.0614   25070520.4454
 -11550454.03944  -9000342.75744  23151652.5964   23151653.1944
 -15224277.47344 -11863060.44744  21672522.3204   21672522.7004
 -19553077.34544 -15236150.93944  21302870.6104   21302869.5124
 -17917803.85144 -13961912.50044  20663791.1484   20663790.0294
 95  2 22  2 16 30.0000000  0  8G 7G12G 2G26G 5G24G 9G 4
   5215059.74444   4063689.12444  21923265.7044   21923264.7964
 -19428504.761 4 -15139080.030 4  20654393.677    20654393.145
  11721672.79644   9133772.45544  23175365.6904   23175367.1304
   9737215.06944   7587437.70344  25084094.1374
 -11631168.35744  -9063236.99844  23136292.9704   23136293.4634
 -15307768.33144 -11928118.22644  21656634.5834   21656634.9664
 -19583616.75944 -15259947.87544  21297059.2824   21297058.1154
 -17931249.44344 -13972389.56544  20661232.5524   20661231.1874
 95  2 22  2 17  0.0000000  0  8G 7G12G 2G26G 5G24G 9G 4
   5280124.02844   4114388.56844  21935646.9224   21935646.3694
 -19438452.237 4 -15146831.305 4  20652500.823    20652500.324
  11793247.83144   9189545.19744  23188986.1424   23188986.4864
   9808489.25144   7642976.04844  25097657.3034
 -11711876.16944  -9126126.15844  23120934.9384   23120935.2564
 -15390890.90744 -11992889.02844  21640816.8834   21640817.4754
 -19613622.91144 -15283329.27944  21291349.1904   21291347.9774
 -17944118.87644 -13982417.67944  20658783.3734   20658782.2764
 95  2 22  2 17 30.0000000  0  8G 7G12G 2G26G 5G24G 9G 4
   5345241.54944   4165129.49444  21948038.3904   21948037.7514
 -19447925.069 4 -15154212.731 4  20650698.260    20650697.765
  11865033.80644   9245482.32744  23202646.3944   23202645.2384
   9879654.95644                  25111199.6074
 -11792598.48144  -9189026.62344  23105574.3034   23105574.2974
 -15473701.68744 -12057416.87144  21625058.4514   21625058.9654
 -19643117.75744 -15306312.26244  21285736.3894   21285735.3404
 -17956431.87244 -13992012.20244  20656440.3174   20656439.0824
 95  2 22  2 18  0.0000000  0  8G 7G12G 2G26G 5G24G 9G 4
   5410407.71944   4215908.32744  21960439.1034   21960438.8274
 -19456914.614 4 -15161217.567 4  20648987.521    20648987.072
  11937021.98144   9301576.98544  23216345.5444   23216346.5774
   9950713.63644   7753800.18644  25124722.1534
 -11873324.97144  -9251930.34544  23090212.7174   23090212.9064
 -15556217.74944 -12121715.07044  21609356.1384   21609356.5304
 -19672088.02844 -15328886.48744  21280223.6254   21280222.8894
 -17968165.28444 -14001155.10244  20654207.6654   20654206.4194
 95  2 22  2 18 30.0000000  0  8G 7G12G 2G26G 5G24G 9G 4
   5475677.37544   4266767.80044  21972859.2884   21972859.0104
 -19465374.770 4 -15167809.892 4  20647377.578    20647377.050
  12009246.91944   9357856.16644  23230089.6334   23230090.5884
  10021705.54244   7809118.47544  25138232.1264
 -11954010.00144  -9314801.73944  23074859.0214   23074858.4204
 -15638402.42144 -12185755.03844  21593716.9284   21593717.1074
 -19700498.01244 -15351024.12544  21274817.3654   21274816.6414
 -17979271.17644 -14009809.02344  20652094.1874   20652092.8704
 95  2 22  2 19  0.0000000  0  8G 7G12G 2G26G 5G24G 9G 4
   5541045.63044   4317704.10144  21985298.4684   21985298.8054
 -19473311.107 4 -15173994.049 4  20645867.353    20645866.714
  12081706.91344   9414318.49744  23243877.9964   23243877.5834
  10092611.73844                  25151724.1034
 -12034653.53944  -9377640.81444  23059512.5964   23059511.2414
 -15720252.38244 -12249534.19844  21578141.4614   21578141.6464
 -19728347.60744 -15372725.09744  21269517.6064   21269516.6034
 -17989764.64744 -14017985.73444  20650097.2784   20650095.9714
 95  2 22  2 19 30.0000000  0  8G12G 7G 2G26G 5G24G 9G 4
 -19480712.785 4 -15179761.588 4  20644458.858    20644458.262
   5606515.66844   4368719.71044  21997756.8864   21997757.0314
  12154408.46244   9470969.03144  23257712.3864   23257713.5594
  10163451.61244   7919569.91944  25165203.2334
 -12115230.30244  -9440427.85544  23044178.9734   23044178.4974
 -15801751.22844 -12313039.76344  21562632.7934   21562633.1424
 -19755623.30544 -15393978.87644  21264326.9084   21264326.0724
 -17999638.93944 -14025679.96444  20648218.2154   20648217.0624
 95  2 22  2 20  0.0000000  0  8G 7G12G 2G26G 5G24G 9G 4
   5672085.25844   4419812.89144  22010234.3554   22010234.2874
 -19487586.285 4 -15185117.559 4  20643150.906    20643150.292
  12227360.31344   9527814.61244  23271594.8734   23271596.4464
  10234242.26044                  25178676.0794
 -12195734.58944  -9503158.42344  23028859.5604   23028859.4624
 -15882885.90744 -12376261.55944  21547193.1514   21547193.5794
 -19782342.95044 -15414799.36944  21259242.5084   21259241.8034
 -18008900.90544 -14032897.05944  20646455.7504   20646454.6334
 95  2 22  2 20 30.0000000  0  8G 7G12G 2G26G 5G24G 9G 4
   5737771.08844   4470996.65944  22022734.1014   22022733.8354
 -19493918.140 4 -15190051.470 4  20641946.027    20641945.323
  12300584.21044   9584872.16144  23285529.0664   23285529.3774
  10304505.21544                  25192135.3834
 -12276151.94644  -9565821.23544  23013556.9794   23013555.8894
 -15963609.01744 -12439162.65644  21531832.0684   21531832.4304
 -19808503.29944 -15435184.04344  21254264.6744   21254263.4584
 -18017544.90144 -14039632.62044  20644810.8444   20644809.5384
 95  2 22  2 21  0.0000000  0  7G 7G 2G 5G24G12G 9G 4
   5803561.59344   4522261.98444  22035253.8244   22035253.4694
  12374073.93444   9642136.88144  23299513.8834   23299513.8534
 -12356490.00244  -9628422.33844  22998269.3034   22998268.2144
 -16043926.13244 -12501747.38444  21516548.2364   21516548.6614
 -19499719.699 4 -15194572.163 4  20640841.955    20640841.513
 -19834111.06444 -15455138.13244  21249391.6094   21249390.4664
 -18025584.41944 -14045897.15844  20643281.0534   20643279.7774
 95  2 22  2 21 30.0000000  0  7G 7G 2G 5G24G 9G12G 4
   5869438.16344   4573594.38544  22047789.7934   22047789.3214
  12447801.16644   9699586.66544  23313543.5104   23313543.5954
 -12436778.05144  -9690984.36644  22982990.7494   22982990.2774
 -16123855.56444 -12564030.02644  21501338.3164   21501338.4824
 -19859195.32544 -15474684.30444  21244618.1844   21244617.3104
 -19505011.340 4 -15198695.516 4  20639835.041    20639834.537
 -18033039.33844 -14051706.16644  20641862.3494   20641860.7704
 95  2 22  2 22  0.0000000  0  7G 7G12G 2G 5G24G 9G 4
   5935425.44744   4625013.04744  22060346.5744   22060346.3764
 -19509774.559 4 -15202407.113 4  20638928.759    20638928.112
  12521789.79344   9757240.13044  23327622.9174   23327625.4164
 -12517024.80644  -9753514.24744  22967720.0414   22967719.4314
 -16203379.98844 -12625997.07844  21486205.3554   21486205.1914
 -19883741.83844 -15493811.44544  21239947.1834   21239945.8884
 -18039908.91544 -14057059.06344  20640555.0384   20640553.3764
 95  2 22  2 22 30.0000000  0  8G 7G12G 2G26G 5G24G 9G 4
   6001515.57644   4676511.85444  22072922.9834   22072922.5294
 -19514009.416 4 -15205706.998 4  20638122.817    20638122.444
  12596033.52844   9815092.39944  23341750.9934   23341750.5584
        -0.54254                  25245863.4374
 -12597244.73544  -9816023.23844  22952454.5624   22952454.3204
 -16282504.21944 -12687652.28644  21471148.3514   21471148.1004
 -19907741.94744 -15512512.81744  21235379.9334   21235378.5664
 -18046201.72944 -14061962.53244  20639357.5314   20639356.1394
 95  2 22  2 23  0.0000000  0  8G 7G12G 2G26G 5G24G 9G 4
   6067674.31044   4728064.12244  22085512.4254   22085511.6944
 -19517741.065 4 -15208614.773 4  20637412.633    20637412.283
  12670517.27244   9873131.68844  23355924.8524   23355924.1184
     70316.86844                  25259244.6454
 -12677466.41844  -9878533.60144  22937188.8844   22937189.2704
 -16361269.68344 -12749027.93444  21456159.6674   21456159.7864
 -19931212.49744 -15530801.55344  21230913.9744   21230912.6134
 -18051942.24644 -14066435.64444  20638265.0834   20638263.9864
 95  2 22  2 23 30.0000000  0  8G 7G12G 2G26G 5G24G 9G 4
   6133910.00144   4779676.35544  22098116.5964   22098115.9244
 -19520950.780 4 -15211115.845 4  20636801.928    20636801.387
  12745251.26644   9931365.94244  23370145.7344   23370147.7124
    140497.75444                  25272598.4434
 -12757674.40544  -9941033.29244  22921925.7814   22921925.3654
 -16439648.17244 -12810102.05744  21441244.6844   21441245.1134
 -19954125.74244 -15548656.02644  21226553.5504   21226552.2614
 -18057107.07444 -14070460.16644  20637282.2194   20637281.1654
 95  2 22  2 24  0.0000000  0  8G 7G12G 2G26G 5G24G 9G 4
   6200229.30744   4831353.73244  22110736.7354   22110735.6364
 -19523626.779 4 -15213201.039 4  20636292.648    20636292.054
  12820245.88644   9989803.29244  23384416.7594   23384416.7704
    210533.70344                  25285925.5504
 -12837849.57544 -10003507.41844  22906669.0224   22906669.0084
 -16517623.48044 -12870862.02044  21426406.1844   21426406.7264
 -19976470.20744 -15566067.29244  21222301.5384   21222300.4614
 -18061670.04244 -14074015.70944  20636414.0614   20636412.9304
 95  2 22  2 24 30.0000000  0  8G 7G12G 2G26G 5G24G 9G 4
   6266630.62944   4883095.01944  22123372.6644   22123372.1684
 -19525767.878 4 -15214869.425 4  20635885.118    20635884.630
  12895490.61044  10048435.51444  23398735.2564   23398735.9384
    280443.08944                  25299229.4044
 -12917969.90444 -10065938.80244  22891422.7534   22891422.4614
 -16595190.68844 -12931303.98344  21411645.6904   21411646.0104
 -19998245.96844 -15583035.41044  21218157.6604   21218156.4574
 -18065603.73944 -14077080.91244  20635665.5224   20635664.3484
 95  2 22  2 25  0.0000000  0  8G 7G12G 2G26G 5G24G 9G 4
   6333107.40644   4934895.10844  22136022.8194   22136022.4884
 -19527386.985 4 -15216131.065 4  20635577.010    20635576.551
  12970964.56744  10107246.37644  23413097.3234   23413097.8984
    350222.41244    272900.54644  25312508.0684
 -12998048.36144 -10128337.56144  22876184.3214   22876183.9284
 -16672361.42044 -12991437.00444  21396960.5434   21396960.7864
 -20019464.27244 -15599569.15144  21214119.6744   21214118.8244
 -18068922.06044 -14079666.59644  20635033.9994   20635032.6844
 95  2 22  2 25 30.0000000  0  8G 7G12G 2G26G 5G24G 9G 4
   6399673.39844   4986764.71044  22148689.7974   22148689.4384
 -19528474.685 4 -15216978.623 4  20635370.018    20635369.505
  13046662.90444  10166232.05844  23427502.4994   23427505.0664
    419889.32744                  25325766.2224
 -13078079.37044 -10190699.34544  22860954.7804   22860953.7224
 -16749126.92944 -13051254.25044  21382352.4644   21382352.6544
 -20040119.82344 -15615664.38244  21210189.1234   21210188.3504
 -18071626.11544 -14081773.63544  20634519.3654   20634518.0034
 95  2 22  2 26  0.0000000  0  8G 7G12G 2G26G 5G24G 9G 4
   6466326.12044   5038701.89444  22161373.3664   22161372.6704
 -19529024.856 4 -15217407.329 4  20635265.299    20635264.823
  13122610.98244  10225412.36544  23441955.3394   23441958.1894
    489479.61144                  25339009.4054
 -13158058.13844 -10253020.42644  22845735.4564   22845735.0074
 -16825495.02644 -13110761.82144  21367820.1494   21367819.9994
 -20060214.34844 -15631322.44544  21206365.3644   21206364.7834
 -18073719.93544 -14083405.16944  20634120.8734   20634119.6154
 95  2 22  2 26 30.0000000  0  8G 7G12G 2G26G 5G24G 9G 4
   6533070.24544   5090710.30344  22174074.2464   22174073.6074
 -19529034.817 4 -15217415.091 4  20635263.425    20635262.956
  13198812.17044  10284789.88444  23456456.3064   23456456.6414
    559015.82744                  25352241.6634
 -13237980.47144 -10315297.52444  22830526.5974   22830525.8094
 -16901471.03444 -13169963.86744  21353362.4294   21353362.2884
 -20079731.82744 -15646530.86144  21202651.2334   21202650.4854
 -18075225.09744 -14084578.01044  20633834.3894   20633833.1104
 95  2 22  2 27  0.0000000  0  8G 7G12G 2G26G 5G24G 9G 4
   6599906.12744   5142790.21844  22186792.7074   22186792.1934
 -19528501.509 4 -15216999.526 4  20635364.977    20635364.385
  13275266.10944  10344364.34644  23471004.8444   23471005.5834
    628479.48944                  25365459.9064
 -13317845.87544 -10377530.26544  22815328.6084   22815327.6354
 -16977049.18444 -13228855.90344  21338980.3914   21338980.4914
 -20098663.10244 -15661282.49644  21199048.8334   21199047.6734
 -18076164.11944 -14085309.69944  20633655.6984   20633654.4414
 95  2 22  2 27 30.0000000  0  8G 7G12G 2G26G 5G24G 9G 4
   6666810.50844   5194923.49744  22199524.0144   22199523.8924
 -19527439.751 4 -15216172.182 4  20635567.151    20635566.541
  13351951.21544  10404118.93744  23485597.3054   23485598.2354
    697856.33144                  25378661.7804
 -13397654.05744 -10439718.42744  22800141.6364   22800140.3004
 -17052237.79444 -13287444.40844  21324672.4484   21324672.7114
 -20117024.90644 -15675590.38844  21195554.7354   21195553.8014
 -18076548.28144 -14085609.03344  20633582.7874   20633581.2904
 95  2 22  2 28  0.0000000  0  8G 7G12G 2G26G 5G24G 9G 4
   6733788.71644   5247114.30044  22212269.7024   22212269.3804
 -19525847.101 4 -15214931.157 4  20635870.215    20635869.599
  13428861.68844  10464049.18044  23500233.0264   23500231.9384
    767136.35544    597768.25444  25391844.2894
 -13477382.33244 -10501844.31844  22784969.8584   22784968.8784
 -17127024.98144 -13345720.11044  21310440.9254   21310441.2384
 -20134811.57944 -15689450.12844  21192169.8134   21192169.0614
 -18076366.86944 -14085467.66344  20633617.1294   20633615.7564
 95  2 22  2 28 30.0000000  0  8G 7G12G 2G26G 5G24G 9G 4
   6800865.74744   5299382.11544  22225033.9494   22225034.3544
 -19523712.689 4 -15213267.982 4  20636276.379    20636275.692
  13505984.23244  10524144.65344  23514909.1374   23514908.8374
    836300.27544                  25405004.9774
 -13557011.01444 -10563892.61444  22769817.1424   22769816.4524
 -17201384.63344 -13403662.67344  21296290.8254   21296291.0924
 -20152017.51444 -15702857.34444  21188895.8454   21188894.8404
 -18075612.41544 -14084879.76644  20633760.6814   20633759.4594
 95  2 22  2 29  0.0000000  0  8G 7G12G 2G26G 5G24G 9G 4
   6868033.09344   5351720.30844  22237815.5474   22237815.5724
 -19521038.542 4 -15211184.231 4  20636785.172    20636784.537
  13583316.17644  10584403.29144  23529625.0924   23529626.6194
    905324.75344                  25418140.8774
 -13636545.95044 -10625867.85244  22754682.0664   22754680.5804
 -17275310.28444 -13461267.05144  21282223.1464   21282223.5454
 -20168656.43544 -15715822.73244  21185729.7944   21185728.6654
 -18074268.31244 -14083832.40044  20634016.4224   20634015.0634
 95  2 22  2 29 30.0000000  0  7G 7G 2G 5G24G 9G12G 4
   6935260.75144   5404105.50044  22250608.6244   22250609.0864
  13660851.66744  10644820.56244  23544379.5024   23544377.6864
 -13716009.94144 -10687787.80844  22739560.5304   22739559.5824
 -17348816.45244 -13518544.56044  21268235.3034   21268235.3814
 -20184758.41744 -15728369.72544  21182665.4544   21182664.7974
 -19517846.457 4 -15208696.894 4  20637392.463    20637391.908
 -18072343.44544 -14082332.49044  20634382.6884   20634381.2504
 95  2 22  2 30  0.0000000  0  7G 7G 2G 5G24G 9G12G 4
   7002536.18944   5456527.91744  22263410.8734   22263411.1994
  13738605.83044  10705408.19144  23559175.9944   23559175.7494
 -13795429.68044 -10749673.28144  22724447.3194   22724446.7354
 -17421909.50644 -13575500.16244  21254326.3024   21254326.0724
 -20200340.46344 -15740511.57544  21179700.1194   21179699.1624
 -19514144.089 4 -15205811.932 4  20638097.077    20638096.450
 -18069851.65044 -14080390.81644  20634857.0444   20634855.4994
 95  2 22  2 30 30.0000000  0  7G 7G 2G 5G24G 9G12G 4
   7069869.86944   5508995.71844  22276224.0594   22276224.3554
  13816630.61944  10766206.70944  23574023.8884   23574024.7234
 -13874801.19244 -10811521.18844  22709343.3324   22709343.1094
 -17494567.37144 -13632116.65944  21240499.8964   21240500.1084
 -20215376.61044 -15752228.04844  21176839.0794   21176837.9704
 -19509902.557 4 -15202506.846 4  20638904.210    20638903.574
 -18066767.12244 -14077987.27244  20635443.8974   20635442.4314
 95  2 22  2 31  0.0000000  0  7G 7G 2G 5G24G 9G12G 4
   7137278.85444   5561522.19944  22289051.7094   22289052.0364
  13894960.02544  10827242.59244  23588929.4424   23588929.9564
 -13954113.74044 -10873323.14044  22694250.8244   22694250.1684
 -17566768.72044 -13688377.42544  21226760.4194   21226760.5684
 -20229829.24944 -15763489.83644  21174088.7874   21174087.7804
 -19505096.099 4 -15198761.554 4  20639818.747    20639818.320
 -18063055.90544 -14075095.40044  20636150.1624   20636148.5634
 95  2 22  2 31 30.0000000  0  7G 7G 2G 5G24G 9G12G 4
   7204732.90144   5614083.79444  22301887.6834   22301887.1814
  13973559.76244  10888489.12344  23603886.0744   23603889.1944
 -14033401.43444 -10935105.73444  22679162.6834   22679162.1054
 -17638554.30944 -13744314.20944  21213100.0484   21213100.2364
 -20243717.23044 -15774311.63544  21171445.9914   21171445.4154
 -19499752.582 4 -15194597.777 4  20640835.554    20640835.128
 -18058756.66444 -14071745.32844  20636968.3914   20636966.6294
 95  2 22  2 32  0.0000000  0  7G 7G 2G 5G24G 9G12G 4
   7272214.74444   5666667.05344  22314729.1584   22314729.2734
  14052399.95944  10949922.99644  23618889.1634   23618890.7844
 -14112680.80544 -10996881.84344  22664076.4494   22664076.0984
 -17709964.61344 -13799958.57444  21199511.1644   21199511.5734
 -20257052.36344 -15784702.64644  21168908.4874   21168907.8274
 -19493889.575 4 -15190029.203 4  20641951.249    20641950.941
 -18053875.81044 -14067942.05144  20637896.9994   20637895.6174
 95  2 22  2 32 30.0000000  0  7G 7G 2G 5G24G 9G12G 4
   7339753.97644   5719295.02744  22327581.1404   22327581.1794
  14131479.94944  11011543.76344  23633937.5384   23633939.0054
 -14191910.12844 -11058618.95144  22648999.5374   22648998.9224
 -17780981.45744 -13855296.34844  21185996.9984   21185997.3104
 -20269797.84144 -15794634.18444  21166483.1604   21166482.3634
 -19487484.958 4 -15185038.593 4  20643169.941    20643169.657
 -18048375.84644 -14063656.34944  20638943.7534   20638942.1014
 95  2 22  2 33  0.0000000  0  7G 7G 2G 5G24G 9G12G 4
   7407378.16044   5771989.20244  22340449.5214   22340449.4814
  14210782.07244  11073337.60644  23649028.0534   23649026.6584
 -14271056.74644 -11120291.61244  22633938.5734   22633937.8444
 -17851594.08344 -13910319.15344  21172559.5924   21172559.8884
 -20281948.99944 -15804102.61744  21164170.7414   21164169.7584
 -19480529.992 4 -15179619.138 4  20644493.400    20644492.978
 -18042242.11544 -14058876.80444  20640110.8394   20640109.2954
 95  2 22  2 33 30.0000000  0  7G 7G 2G 5G24G 9G12G 4
   7475082.85744   5824746.10344  22353333.2214   22353332.4994
  14290313.47244  11135310.11344  23664162.2504   23664160.5264
 -14350106.64244 -11181888.90244  22618895.8304   22618894.9094
 -17921803.11944 -13965027.47444  21159199.2974   21159199.3354
 -20293527.45044 -15813124.78144  21161967.2894   21161966.2984
 -19473032.018 4 -15173776.562 4  20645920.279    20645919.882
 -18035482.35044 -14053609.43744  20641397.0624   20641395.6654
 95  2 22  2 34  0.0000000  0  7G 7G 2G 5G24G 9G12G 4
   7542876.28144   5877572.15444  22366233.8754   22366233.4684
  14370076.72444  11197463.32044  23679340.3504   23679341.2894
 -14429047.91144 -11243401.54844  22603873.8154   22603872.7104
 -17991586.62444 -14019404.21044  21145920.1324   21145920.1934
 -20304548.48244 -15821712.59644  21159870.1824   21159869.0334
 -19464995.648 4 -15167514.456 4  20647449.550    20647449.196
 -18028105.05144 -14047860.87644  20642801.0654   20642799.5944
 95  2 22  2 34 30.0000000  0  7G 7G 2G 5G24G 9G12G 4
   7610785.97244   5930488.79444  22379157.0604   22379156.2904
  14450074.54044  11259799.27444  23694562.9594   23694564.3464
 -14507873.03944 -11304823.69344  22588873.9304   22588872.5214
 -18060906.05644 -14073419.32844  21132729.2084   21132729.1834
 -20314997.24044 -15829854.48244  21157881.9694   21157880.6444
 -19456403.652 4 -15160819.394 4  20649084.517    20649084.167
 -18020123.40544 -14041641.39744  20644319.8054   20644318.2634
 95  2 22  2 35  0.0000000  0  7G 7G 2G 5G24G 9G12G 4
   7678796.67844   5983484.15244  22392099.1614   22392098.7664
  14530301.27544  11322313.62244  23709829.4994
 -14586600.65844 -11366169.86344  22573892.3834   22573891.8154
 -18129762.23844 -14127073.46844  21119626.3314   21119626.0194
 -20324885.07944 -15837559.29044  21156000.5214   21155998.9754
 -19447262.025 4 -15153696.051 4  20650824.162    20650823.786
 -18011560.18044 -14034968.73944  20645949.3124   20645948.0324
 95  2 22  2 35 30.0000000  0  7G 7G 2G 5G24G 9G12G 4
   7746899.68844   6036551.42744  22405058.7864   22405058.8894
  14610767.84844  11385014.82444  23725141.9124   23725140.8134
 -14665238.81144 -11427446.32544  22558927.9524   22558926.9234
 -18198145.24644 -14180358.90244  21106613.3304   21106613.0544
 -20334198.41944 -15844816.43944  21154227.9904   21154226.9544
 -19437562.130 4 -15146137.693 4  20652670.007    20652669.577
 -18002420.51444 -14027846.90844  20647688.6044   20647687.2824
 95  2 22  2 36  0.0000000  0  7G 7G 2G 5G24G 9G12G 4
   7815065.63844   6089667.74744  22418030.0584   22418029.9604
  14691440.79244  11447876.88144  23740493.7774
 -14743810.12444 -11488670.70044  22543976.1264   22543975.1114
 -18266069.81144 -14233287.11144  21093687.5174   21093687.8434
 -20342933.93144 -15851623.33844  21152565.5574   21152564.6394
 -19427314.130 4 -15138152.243 4  20654620.048    20654619.660
 -17992728.18644 -14020294.43044  20649532.8224   20649531.6564
 95  2 22  2 36 30.0000000  0  7G 7G 2G 5G24G 9G12G 4
   7883256.33344   6142803.35544  22431006.1024   22431005.7884
  14772290.28444                  23755879.3744
 -14822340.44744 -11549863.13744  22529032.1164   22529031.5944
 -18333577.25044 -14285890.28544  21080841.2554   21080841.4524
 -20351114.32444 -15857997.67344  21151008.8684   21151007.7664
 -19416542.323 4 -15129758.630 4  20656669.772    20656669.438
 -17982505.76044 -14012328.88944  20651478.0504   20651476.7304
 95  2 22  2 37  0.0000000  0  7G 7G 2G 5G24G 9G12G 4
   7951505.63544   6195984.61644  22443993.7284   22443993.5974
  14853380.03244  11574063.26344  23771310.1274
 -14900762.55744 -11610971.24744  22514108.9204   22514108.0694
 -18400623.08444 -14338133.76744  21068082.9724   21068083.3204
 -20358700.13944 -15863908.69544  21149565.3384   21149564.0014
 -19405200.104 4 -15120920.540 4  20658828.186    20658827.785
 -17971696.45344 -14003906.04244  20653535.1924   20653533.7164
 95  2 22  2 37 30.0000000  0  7G 7G 2G 5G24G 9G12G 4
   8019783.33444   6249188.02244  22456986.4614   22456986.6004
  14934678.46944                  23786780.5834
 -14979110.59744 -11672021.64344  22499199.6354   22499198.5314
 -18467236.98544 -14390040.67844  21055406.8204   21055406.5084
 -20365731.68244 -15869387.81944  21148227.1524   21148226.0194
 -19393327.069 4 -15111668.826 4  20661087.709    20661087.288
 -17960351.62144 -13995065.89744  20655694.0394   20655692.7504
 95  2 22  2 38  0.0000000  0  7G 7G 2G 5G24G 9G12G 4
   8088105.76844   6302426.27644  22469988.0114   22469987.3984
  15016208.47744                  23802295.3024
 -15057366.51444 -11733000.25744  22484308.1654   22484307.3514
 -18533400.21344 -14441596.41644  21042816.4524   21042816.1274
 -20372196.23644 -15874425.13544  21146996.9734   21146995.9304
 -19380910.184 4 -15101993.330 4  20663450.598    20663450.071
 -17948452.18644 -13985793.59544  20657958.3294   20657956.7424
 95  2 22  2 38 30.0000000  0  7G 7G 2G 5G24G 9G12G 4
   8156497.81944   6355718.78044  22483002.7724   22483001.8174
  15097983.64744                  23817857.0884
 -15135516.30844 -11793896.17944  22469436.8744   22469435.8774
 -18599097.02544 -14492788.71044  21030314.8534   21030314.4624
 -20378099.38344 -15879024.99044  21145873.6364   21145872.2944
 -19367939.978 4 -15091886.676 4  20665918.697    20665918.261
 -17935978.45344 -13976073.79444  20660331.9734   20660330.5374
 95  2 22  2 39  0.0000000  0  7G 7G 2G 5G24G 9G12G 4
   8224951.63244   6409059.40644  22496028.9744   22496028.2914
  15180000.33144                  23833464.4004
 -15213576.93644 -11854722.61944  22454582.5924   22454581.9994
 -18664326.98644 -14543617.22544  21017901.8104   21017901.5164
 -20383434.65744 -15883182.34344  21144858.5984   21144857.2734
 -19354423.675 4 -15081354.493 4  20668490.829    20668490.375
 -17922935.48944 -13965910.43344  20662813.9444   20662812.4494
 95  2 22  2 39 30.0000000  0  7G 7G 2G 5G24G 9G12G 4
   8293462.42544   6462444.44444  22509066.1344   22509065.7524
  15262255.24744  11892667.32644  23849117.4254
 -15291562.75444 -11915490.76144  22439742.5144   22439741.7534
 -18729105.10844 -14594093.65744  21005574.7974   21005574.8714
 -20388200.93344 -15886896.31744  21143951.7204   21143950.2384
 -19340365.966 4 -15070400.437 4  20671165.883    20671165.483
 -17909318.18944 -13955299.53444  20665405.4514   20665404.0944
 95  2 22  2 40  0.0000000  0  7G 7G 2G 5G24G 9G12G 4
   8362014.88944   6515861.95344  22522111.1004   22522110.7684
  15344744.39444                  23864814.4424
 -15369478.87344 -11976204.59644  22424915.5824   22424915.0864
 -18793439.91744 -14644224.65444  20993332.1324   20993332.5134
 -20392407.26844 -15890173.98144  21143151.2094   21143149.6194
 -19325769.478 4 -15059026.551 4  20673943.422    20673942.957
 -17895109.90344 -13944228.12944  20668109.1004   20668107.6444
 95  2 22  2 40 30.0000000  0  7G 9G 7G 2G 5G12G24G 4
 -20396050.23944 -15893012.65844  21142457.8964   21142456.6634
   8430608.86344   6569311.80144  22535164.1854   22535163.6604
  15427462.19844                  23880555.3694
 -15447320.41344 -12036860.32644  22410102.6364   22410101.8004
 -19310636.593 4 -15047234.698 4  20676823.122    20676822.715
 -18857335.27144 -14694013.22244  20981173.0994   20981173.4284
 -17880313.93944 -13932698.79544  20670924.3934   20670922.9954
 95  2 22  2 41  0.0000000  0  7G 9G 7G 2G 5G12G24G 4
 -20399113.89444 -15895399.92544  21141874.8354   21141873.8064
   8499245.24744   6622794.69344  22548225.4044   22548224.9024
  15510411.86044                  23896339.9584
 -15525088.14144 -12097458.53944  22395303.6084   22395303.0944
 -19294964.981 4 -15035023.057 4  20679805.396    20679804.972
 -18920794.63844 -14743462.05944  20969097.3124   20969097.7714
 -17864939.13144 -13920718.41244  20673850.2384   20673848.7804
 95  2 22  2 41 30.0000000  0  7G 9G 7G 2G 5G12G24G 4
 -20401607.57444 -15897343.05244  21141400.2704   21141399.3714
   8567936.46944   6676320.32344  22561297.1504   22561295.4764
  15593592.00844                  23912167.9954
 -15602772.37344 -12157991.68844  22380520.8034   22380520.4674
 -19278746.569 4 -15022385.340 4  20682891.640    20682891.228
 -18983801.83444 -14792558.55744  20957107.5654   20957107.6774
 -17848983.54944 -13908285.47944  20676886.5564   20676885.0754
 95  2 22  2 42  0.0000000  0  7G 9G 7G 2G 5G12G24G 4
 -20403522.68844 -15898835.35044  21141035.7184   21141034.6044
   8636696.20644   6729899.34044  22574381.4464   22574380.8194
  15676993.32344                  23928038.6544
 -15680366.66544 -12218454.75044  22365755.2484   22365754.4704
 -19261973.196 4 -15009315.186 4  20686083.429    20686083.061
 -19046335.56444 -14841286.11044  20945207.8024   20945207.7134
 -17832452.75644 -13895404.33244  20680032.1524   20680030.7694
 95  2 22  2 42 30.0000000  0  7G 9G 7G 2G 5G12G24G 4
 -20404858.03844 -15899875.88544  21140781.7554   21140780.2744
   8705541.02344   6783544.64944  22587482.1614   22587481.8424
  15760603.44344                  23943948.9374
 -15757868.51744 -12278845.78244  22351007.2514   22351006.2994
 -19244646.075 4 -14995813.540 4  20689380.752    20689380.429
 -19108413.52144 -14889658.51544  20933394.6844   20933394.7104
 -17815354.06744 -13882080.67044  20683285.9864   20683284.6154
 95  2 22  2 43  0.0000000  0  7G 9G 7G 2G 5G12G24G 4
 -20405646.32944 -15900490.13944  21140631.7414   21140630.4104
   8774449.31544   6837239.42544  22600594.9864   22600594.0094
  15844399.68644                  23959894.3664
 -15835291.62744 -12339175.45544  22336274.1114   22336273.0444
 -19226779.846 4 -14981891.811 4  20692780.695    20692780.177
 -19170044.91144 -14937682.94844  20921666.5794   20921666.3234
 -17797700.95044 -13868324.98344  20686645.2924   20686643.9164
 95  2 22  2 43 30.0000000  0  7G 9G 7G 2G 5G12G24G 4
 -20405879.00144 -15900671.43944  21140587.4434   21140586.3534
   8843417.36744   6890980.76444  22613719.1624   22613718.8664
  15928395.12844                  23975878.6504
 -15912614.29844 -12399426.86544  22321559.9794   22321559.2424
 -19208362.662 4 -14967540.766 4  20696285.299    20696284.827
 -19231221.73244 -14985353.17744  20910025.0514   20910024.9404
 -17779470.93744 -13854119.76544  20690114.3214   20690113.0164
 95  2 22  2 44  0.0000000  0  7G 9G 7G 2G 5G12G24G 4
 -20405541.70744 -15900408.60844  21140651.5524   21140650.7824
   8912436.89844   6944762.22144  22626853.0344   22626852.7384
  16012602.71144                  23991902.8304
 -15989818.67444 -12459586.10144  22306868.2894   22306867.5864
 -19189394.613 4 -14952760.469 4  20699894.766    20699894.365
 -19291955.20444 -15032677.93444  20898467.7304   20898467.5764
 -17760663.19044 -13839464.36644  20693693.2814   20693691.9174
 95  2 22  2 44 30.0000000  0  7G 9G 7G 2G 5G12G24G 4
 -20404622.35544 -15899692.22644  21140826.4954   21140825.9204
   8981499.92544   6998577.56844  22639994.8784   22639994.5004
  16097042.90844                  24007971.2654
 -16066883.70444 -12519636.75844  22292203.2544   22292202.4984
 -19169869.393 4 -14937546.016 4  20703610.438    20703609.824
 -19352231.93644 -15079646.79144  20886997.4924   20886997.4474
 -17741265.67344 -13824349.40844  20697384.5344   20697383.2634
 95  2 22  2 45  0.0000000  0  7G 9G 7G 2G 5G12G24G 4
 -20403097.03544 -15898503.66844  21141116.4994   21141115.8744
   9050598.61144   7052420.70444  22653143.8344   22653143.5494
  16181741.79844                  24024088.8524
 -16143795.56444 -12579568.06044  22277567.6704   22277566.5844
 -19149772.360 4 -14921885.995 4  20707434.878    20707434.154
 -19412016.53744 -15126232.16644  20875620.9874   20875620.7964
 -17721274.07244 -13808771.53044  20701188.7244   20701187.4244
 95  2 22  2 45 30.0000000  0  7G 9G 7G 2G 5G12G24G 4
 -20400937.97244 -15896821.28344  21141527.7364   21141526.7124
   9119745.88644   7106301.70144  22666302.3134   22666301.7364
  16266714.53944                  24040258.9034
 -16220553.32844 -12639379.28844  22262961.2154   22262960.2134
 -19129097.680 4 -14905775.858 4  20711369.143    20711368.355
 -19471305.45344 -15172431.30044  20864338.6754   20864338.6314
 -17700693.37444 -13792734.61244  20705105.0984   20705103.7734
 95  2 22  2 46  0.0000000  0  7G 9G 7G 2G 5G12G24G 4
 -20398156.80444 -15894654.13844  21142056.9224   21142055.8834
   9188950.41844   7160227.31144  22679471.6614   22679471.5744
  16351944.11644                  24056476.8624
 -16297172.21144 -12699082.29044  22248381.1704   22248380.0484
 -19107854.617 4 -14889222.824 4  20715411.589    20715410.892
 -19530087.76544 -15218235.67644  20853152.4984   20853152.6654
 -17679543.67044 -13776254.31844  20709129.5784   20709128.4084
 95  2 22  2 46 30.0000000  0  7G 9G 7G 2G 5G12G24G 4
 -20394761.04944 -15892008.09444  21142703.0004   21142702.0984
   9258212.46044   7214197.73444  22692651.8374   22692650.6254
  16437414.48244                  24072741.7774
 -16373672.91844 -12758693.21844  22233823.5814   22233822.5604
 -19086048.180 4 -14872230.797 4  20719561.227    20719560.470
 -19588359.68844 -15263642.34644  20842063.6234   20842063.7854
 -17657837.04344 -13759340.04944  20713260.4154   20713258.9824
 95  2 22  2 47  0.0000000  0  7G 9G 7G 2G 5G12G24G 4
 -20390766.16444 -15888895.19744  21143463.1424   21143462.5624
   9327539.60044   7268218.88544  22705844.1694   22705843.8904
  16523118.52144                  24089050.8944
 -16450074.78544 -12818227.11744  22219284.5494   22219283.4524
 -19063681.038 4 -14854801.860 4  20723817.571    20723816.867
 -19646130.24744 -15308658.34644  20831070.3774   20831070.1734
 -17635583.99244 -13741999.99844  20717495.1724   20717493.6214
 95  2 22  2 47 30.0000000  0  7G 9G 7G 2G 5G12G24G 4
 -20386208.33644 -15885343.64144  21144330.5024   21144329.9644
   9396925.58844   7322285.87844  22719047.7264   22719046.5594
  16609018.16944                  24105397.6054
 -16526394.65244 -12877697.13044  22204761.3074   22204760.3894
 -19040777.437 4 -14836954.901 4  20728176.017    20728175.392
 -19703419.51644 -15353299.31344  20820168.7904   20820168.5584
 -17612797.50944 -13724244.29044  20721831.0094   20721829.7634
 95  2 22  2 48  0.0000000  0  7G 9G 7G 2G 5G12G24G 4
 -20381129.37944 -15881386.01144  21145297.2434   21145296.4594
   9466350.26344   7376383.01844  22732259.0824   22732258.4614
  16695094.17344                  24121777.2054
 -16602647.28044 -12937114.74244  22190250.9804   22190250.1654
 -19017353.145 4 -14818702.212 4  20732633.467    20732632.877
 -19760247.79644 -15397581.07244  20809354.8724   20809354.6384
 -17589479.50444 -13706074.40844  20726268.3034   20726266.8804
 95  2 22  2 48 30.0000000  0  7G 9G 7G 2G 5G12G24G 4
 -20375543.56244 -15877033.42144  21146360.3244   21146359.3124
   9535797.66944   7430497.87144  22745474.4894   22745473.9704
  16781345.73444                  24138190.2104
 -16678838.31544 -12996484.36444  22175752.3604   22175751.3434
 -18993412.043 4 -14800046.816 4  20737189.234    20737188.748
 -19816634.08844 -15441518.41844  20798624.8134   20798624.4214
 -17565630.82844 -13687491.01744  20730806.6174   20730805.3124
 95  2 22  2 49  0.0000000  0  7G 9G 7G 2G 5G12G24G 4
 -20369466.89544 -15872298.35544  21147516.6814   21147515.6254
   9605264.63644   7484627.96244  22758693.6084   22758692.9424
  16867763.73544                  24154634.9214
 -16754963.87244 -13055802.96544  22161266.1204   22161265.2444
 -18968957.779 4 -14780991.549 4  20741842.740    20741842.201
 -19872585.66444 -15485117.02844  20787977.4614   20787977.2044
 -17541237.68644 -13668483.37644  20735448.3944   20735447.0804
 95  2 22  2 49 30.0000000  0  7G 7G 2G 5G 9G12G24G 4
   9674759.23844   7538779.58244  22771917.8174   22771917.8324
  16954353.84844                  24171112.1164
 -16830994.26544 -13115047.41044  22146797.7894   22146797.1454
 -20362871.82944 -15867159.34144  21148771.6544   21148770.3284
 -18943971.230 4 -14761521.514 4  20746597.506    20746596.809
 -19928088.46644 -15528365.94644  20777415.5534   20777415.2414
 -17516275.55844 -13649032.35644  20740198.6314   20740197.5034
 95  2 22  2 50  0.0000000  0  6G 9G 7G 5G12G24G 4
 -20355738.78644 -15861601.12544  21150129.0134   21150127.6944
   9744266.69544   7592941.22844  22785144.7704   22785145.3594
 -16906926.28844 -13174215.19744  22132348.3134   22132347.4184
 -18918446.549 4 -14741632.156 4  20751454.648    20751454.040
 -19983142.92944 -15571265.50644  20766938.9964   20766938.7274
 -17490757.27344 -13629147.94544  20745054.7664   20745053.6354
 95  2 22  2 50 30.0000000  0  6G 7G 5G 9G12G24G 4
   9813820.38144   7647138.90344  22798380.6194   22798380.1544
 -16982717.53144 -13233273.28644  22117925.7084   22117924.8514
 -20348012.94844 -15855580.99244  21151599.2044   21151598.2114
 -18892348.127 4 -14721295.726 4  20756421.017    20756420.561
 -20037700.49344 -15613777.87244  20756557.1064   20756556.8454
 -17464656.94944 -13608809.95144  20750021.3394   20750020.1594
 95  2 22  2 51  0.0000000  0  6G 9G 7G 5G12G24G 4
 -20339654.21844 -15849067.69544  21153189.6894   21153188.7274
   9883442.42844   7701389.84444  22811629.3334   22811628.7634
 -17058335.50444 -13292196.36744  22103536.2714   22103535.3134
 -18865654.173 4 -14700495.249 4  20761500.795    20761500.295
 -20091736.63544 -15655883.93444  20746274.3234   20746273.9644
 -17437954.26644 -13588002.72944  20755102.4204   20755101.7394
 95  2 22  2 51 30.0000000  0  6G 7G 5G 9G12G24G 4
   9953116.56144   7755681.38444  22824887.6734   22824887.9644
 -17133784.35744 -13350987.67044  22089178.8564   22089177.8944
 -20330667.01544 -15842064.68044  21154899.7004   21154898.6344
 -18838377.923 4 -14679241.034 4  20766691.288    20766690.760
 -20145259.73444 -15697590.22244  20736089.2494   20736089.0034
 -17410680.03244 -13566750.13544  20760292.6584   20760292.0164
 95  2 22  2 52  0.0000000  0  6G 7G 5G 9G12G24G 4
  10022863.55244   7810029.67844  22838160.0974   22838159.9334
 -17209053.50344 -13409638.93144  22074855.4334   22074854.4504
 -20321048.93344 -15834570.07344  21156729.9724   21156729.0464
 -18810510.246 4 -14657525.966 4  20771994.288    20771993.733
 -20198248.53444 -15738880.17344  20726005.8124   20726005.4394
 -17382829.82844 -13545048.62844  20765592.3894   20765591.2554
 95  2 22  2 52 30.0000000  0  6G 7G 5G 9G12G24G 4
  10092688.69244   7864438.88444  22851447.5094   22851447.1304
 -17284149.66344 -13468155.40144  22060565.1344   22060564.6814
 -20310824.72744 -15826603.15844  21158675.4764   21158674.6944
 -18782062.312 4 -14635358.751 4  20777407.768    20777407.167
 -20250712.39144 -15779761.07544  20716022.2344   20716021.9154
 -17354406.00944 -13522900.18944  20771001.3124   20771000.1904
 95  2 22  2 53  0.0000000  0  6G 7G 5G 9G12G24G 4
  10162597.26244   7918913.09544  22864750.3644   22864749.5694
 -17359064.94444 -13526530.92844  22046309.2664   22046308.1654
 -20299994.81244 -15818164.26544  21160736.4454   21160735.8494
 -18753036.447 4 -14612741.199 4  20782931.207    20782930.561
 -20302656.87044 -15820237.27044  20706137.4204   20706137.3434
 -17325418.48444 -13500312.49044  20776517.4094   20776516.0354
 95  2 22  2 53 30.0000000  0  6G 7G 5G 9G12G24G 4
  10232566.48244   7973434.56644  22878064.8954   22878065.4464
 -17433821.93244 -13584783.10944  22032083.4894   22032082.5704
 -20288593.19344 -15809279.89044  21162906.1064   21162905.4674
 -18723456.731 4 -14589692.076 4  20788559.901    20788559.331
 -20354090.85844 -15860315.68244  20696349.7844   20696349.5024
 -17295899.00844 -13477310.28344  20782134.8014   20782133.3384
 95  2 22  2 54  0.0000000  0  6G 7G 5G 9G12G24G 4
  10302591.24644   8027999.33644  22891390.4154   22891390.8054
 -17508418.16044 -13642910.02044  22017888.2164   22017887.1124
 -20276616.79644 -15799947.63644  21165185.2244   21165184.1304
 -18693326.258 4 -14566213.787 4  20794293.560    20794293.028
 -20405020.73644 -15900001.28744  20686658.0744   20686657.7454
 -17265855.72144 -13453899.91644  20787851.8544   20787850.4504
 95  2 22  2 54 30.0000000  0  7G 7G 5G 9G20G12G24G 4
  10372671.87444   8082607.61844  22904726.2414   22904727.7914
 -17582841.19544 -13700901.98144  22003725.8664   22003725.2154
 -20264052.60144 -15790157.35544  21167576.1784   21167575.3694
         0.06154                  25180130.3464
 -18662638.282 4 -14542301.086 4  20800133.408    20800132.703
 -20455437.71344 -15939287.22844  20677064.1484   20677063.8194
 -17235285.01544 -13430078.57844  20793669.2274   20793667.8434
 95  2 22  2 55  0.0000000  0  7G 7G 5G 9G20G12G24G 4
  10442746.05144   8137210.87244  22918060.8124   22918059.9014
 -17657151.22544 -13758805.88044  21989585.1434   21989584.6044
 -20250951.49144 -15779948.69644  21170069.1274   21170068.1674
    -96995.34644                  25161672.2454
 -18631441.699 4 -14517992.070 4  20806069.923    20806069.298
 -20505378.92344 -15978202.43744  20667560.8894   20667560.5094
 -17204232.76344 -13405882.00844  20799578.2734   20799576.7694
 95  2 22  2 55 30.0000000  0  7G 7G 5G 9G20G12G24G 4
  10512768.04144   8191773.44544  22931385.3604   22931385.3504
 -17731402.00444 -13816663.61444  21975455.8714   21975455.0224
 -20237355.25844 -15769354.23044  21172656.5944   21172655.5074
   -194101.70644                  25143193.7454
 -18599771.728 4 -14493314.178 4  20812096.446    20812095.955
 -20554878.15644 -16016773.24344  20658141.2774   20658140.8064
 -17172729.04844 -13381333.65144  20805573.1864   20805571.6194
 95  2 22  2 56  0.0000000  0  7G 7G 5G 9G20G12G24G 4
  10582767.17744   8246318.22344  22944705.9024   22944706.2344
 -17805578.20444 -13874463.23444  21961340.4614   21961339.8284
 -20223246.24844 -15758360.19944  21175341.4724   21175340.1824
   -291302.01144                  25124697.0654
 -18567601.343 4 -14468246.355 4  20818218.176    20818217.814
 -20603909.56544 -16054979.51244  20648810.9114   20648810.3204
 -17140742.54444 -13356409.09744  20811659.9564   20811658.3834
 95  2 22  2 56 30.0000000  0  7G 7G 5G 9G20G12G24G 4
  10652745.83844   8300847.03044  22958022.2804   22958023.2544
 -17879691.64544 -13932213.95344  21947236.8774   21947236.2404
 -20208639.33344 -15746978.19044  21178120.9664   21178119.8804
   -388616.85744                  25106178.4584
 -18534931.069 4 -14442789.009 4  20824435.162    20824434.841
 -20652463.47244 -16092813.70844  20639571.3854   20639570.8244
 -17108253.62444 -13331093.04744  20817842.3184   20817841.2594
 95  2 22  2 57  0.0000000  0  7G 5G 7G 9G20G12G24G 4
 -17953726.36844 -13989903.32844  21933148.8104   21933148.0014
  10722716.06744   8355369.28144  22971337.2884   22971337.7054
 -20193522.20344 -15735198.61244  21180997.6414   21180996.6804
   -486033.43944                  25087640.6664
 -18501746.084 4 -14416930.588 4  20830750.132    20830749.728
 -20700537.94044 -16130274.31544  20630422.9344   20630422.7524
 -17075235.16544 -13305364.36944  20824125.5104   20824124.1054
 95  2 22  2 57 30.0000000  0  7G 7G 5G 9G20G12G24G 4
  10792684.73544   8409890.32144  22984652.2074   22984651.8594
 -18027656.40844 -14047511.13344  21919080.5374   21919079.6614
 -20177894.37844 -15723021.08844  21183971.7494   21183970.8194
   -583549.37144                  25069084.1404
 -18468047.762 4 -14390672.165 4  20837162.765    20837162.169
 -20748148.03544 -16167373.07444  20621363.1044   20621362.9374
 -17041686.58244 -13279222.61144  20830509.6584   20830508.2894
 95  2 22  2 58  0.0000000  0  7G 5G 7G 9G20G12G24G 4
 -18101430.76744 -14104997.62744  21905041.7384   21905040.6094
  10862690.96644   8464440.61544  22997974.2884   22997973.6334
 -20161726.95644 -15710423.09644  21187048.1894   21187046.9884
   -681137.87044                  25050513.3264
 -18433805.030 4 -14363989.526 4  20843678.916    20843678.327
 -20795258.22044 -16204082.29444  20612398.3854   20612398.1244
 -17007565.19344 -13252634.50844  20837002.6854   20837001.3564
 95  2 22  2 58 30.0000000  0  7G 7G 5G 9G20G12G24G 4
  10932751.45244   8519033.19844  23011306.1354   23011305.6314
 -18175009.50244 -14162331.68844  21891039.9464   21891038.8104
 -20144974.24944 -15697369.03644  21190235.9294   21190234.5684
   -778766.88144                  25031935.0424
 -18398992.758 4 -14336863.086 4  20850303.438    20850302.929
 -20841856.79944 -16240392.86044  20603530.9194   20603530.5344
 -16972843.32944 -13225578.50344  20843610.1334   20843608.5234
 95  2 22  2 59  0.0000000  0  7G 5G 7G 9G20G12G24G 4
 -18248363.13444 -14219490.35544  21877081.1344   21877080.6524
  11002894.48344   8573690.10244  23024654.2374   23024654.3604
 -20127601.33844 -15683831.69944  21193542.1034   21193540.6544
   -876384.58644                  25013359.3764
 -18363585.389 4 -14309272.934 4  20857041.299    20857040.842
 -20887930.06244 -16276294.08944  20594763.4454   20594763.1884
 -16937517.32444 -13198051.74044  20850332.4724   20850331.0004
 95  2 22  2 59 30.0000000  0  7G 7G 5G 9G20G12G24G 4
  11073135.52744   8628423.36844  23038020.5474   23038019.9434
 -18321495.27644 -14276476.42044  21863164.5374   21863163.9484
 -20109595.36644 -15669801.06744  21196968.3264   21196967.2634
   -973995.63844                  24994784.4174
 -18327574.720 4 -14281212.679 4  20863893.928    20863893.459
 -20933454.24344 -16311767.45444  20586100.4244   20586100.2314
 -16901599.66144 -13170063.93944  20857167.3394   20857165.6394
 95  2 22  3  0  0.0000000  0  7G 7G 5G 9G20G12G24G 4
  11143488.32444   8683243.72244  23051408.1574   23051407.3904
 -18394408.54644 -14333291.94444  21849289.6684   21849288.8094
 -20090940.16044 -15655264.54644  21200518.3334   21200517.2354
  -1071596.42944                  24976211.4054
 -18290947.761 4 -14252672.198 4  20870863.807    20870863.286
 -20978414.31644 -16346801.25644  20577544.8274   20577544.5054
 -16865092.89544 -13141617.09944  20864114.2944   20864112.6584
 95  2 22  3  0 30.0000000  0  7G 7G 5G 9G20G12G24G 4
  11213911.14044   8738118.64644  23064809.1084   23064809.7024
 -18467148.92944 -14389972.75144  21835447.7654   21835446.8744
 -20071679.04044 -15640255.88544  21204183.7644   21204182.6364
  -1169212.95244                  24957634.6674
 -18253744.487 4 -14223682.640 4  20877943.386    20877942.737
 -21022859.30844 -16381433.69944  20569087.3254   20569086.7954
 -16828059.33844 -13112759.77244  20871161.4964   20871159.8084
 95  2 22  3  1  0.0000000  0  7G 7G 5G 9G20G12G24G 4
  11284409.27644   8793052.23144  23078224.3064   23078223.2514
 -18539727.12444 -14446527.18044  21821636.7494   21821635.7544
 -20051839.86544 -15624796.79344  21207958.9434   21207957.8534
  -1266855.00544                  24939053.6304
 -18215976.365 4 -14194252.943 4  20885130.464    20885129.841
 -21066782.13344 -16415659.25944  20560729.0284   20560728.5584
 -16790518.41644 -13083507.09744  20878305.4894   20878303.7754
 95  2 22  3  1 30.0000000  0  7G 7G 5G 9G20G12G24G 4
  11354948.18544   8848017.61744  23091647.3734   23091647.9194
 -18612155.55244 -14502964.90244  21807854.0454   21807853.2404
 -20031457.80044 -15608914.66844  21211837.3454   21211836.2154
  -1364568.15444                  24920458.7494
 -18177669.165 4 -14164403.186 4  20892420.041    20892419.475
 -21110186.34044 -16449480.69944  20552469.4194   20552469.1634
 -16752487.84544 -13053872.87544  20885542.3364   20885540.6834
 95  2 22  3  2  0.0000000  0  6G 7G 5G 9G12G24G 4
  11425508.63044   8902999.77644  23105074.6974   23105075.0554
 -18684423.91444 -14559277.89744  21794101.8014   21794100.6204
 -20010554.45644 -15592626.35544  21215815.0814   21215814.6234
 -18138835.394 4 -14134143.115 4  20899809.822    20899809.231
 -21153081.07544 -16482905.15244  20544306.8494   20544306.4474
 -16713975.08744 -13023862.91944  20892871.0514   20892869.5984
 95  2 22  3  2 30.0000000  0  6G 7G 5G 9G12G24G 4
  11496081.50544   8957991.61044  23118503.9954   23118504.5194
 -18756532.46644 -14615466.36144  21780380.0384   21780378.6454
 -19989133.61344 -15575934.79844  21219891.3354   21219890.6314
 -18099485.039 4 -14103480.511 4  20907297.927    20907297.344
 -21195460.22144 -16515927.85044  20536242.3804   20536241.9204
 -16674976.20344 -12993474.16844  20900292.3294   20900290.5744
 95  2 22  3  3  0.0000000  0  6G 7G 5G 9G12G24G 4
  11566681.05244   9013004.23844  23131938.6264   23131938.2674
 -18828454.66444 -14671509.61744  21766693.6684   21766692.4724
 -19967162.32244 -15558814.31744  21224072.3864   21224071.6874
 -18059596.507 4 -14072398.543 4  20914888.470    20914887.937
 -21237289.16344 -16548521.81644  20528282.4074   20528282.2954
 -16635460.89744 -12962683.01344  20907811.8854   20907810.2164
 95  2 22  3  3 30.0000000  0  6G 7G 5G 9G12G24G 4
  11637275.86044   9068013.17844  23145372.1884   23145371.5454
 -18900205.60944 -14727419.43044  21753039.7434   21753038.5394
 -19944642.87744 -15541266.70144  21228357.6824   21228356.7504
 -18019190.149 4 -14040913.076 4  20922577.585    20922577.009
 -21278597.35844 -16580710.00244  20520421.7644   20520421.5814
 -16595454.42244 -12931509.13244  20915424.8244   20915423.3724
 95  2 22  3  4  0.0000000  0  6G 5G 7G 9G12G24G 4
 -18971796.96444 -14783204.88444  21739416.4724   21739415.3914
  11707873.34144   9123024.20044  23158806.4964   23158807.1304
 -19921554.52844 -15523275.78444  21232751.4534   21232750.3184
 -17978262.690 4 -14009021.557 4  20930365.810    20930365.263
 -21319405.67644 -16612508.67944  20512656.2544   20512655.8414
 -16554955.62544 -12899951.62144  20923131.5454   20923129.8024
 95  2 22  3  4 30.0000000  0  7G 7G 5G 9G20G12G24G 4
  11778481.08544   9178043.21144  23172242.7104   23172242.7284
 -19043239.78644 -14838874.60344  21725821.4314   21725819.6954
 -19897886.93044 -15504833.50544  21237255.3524   21237254.2144
        -0.68054                  24808660.6264
 -17936811.923 4 -13976722.265 4  20938253.560    20938253.208
 -21359730.78844 -16643930.82844  20504982.5724   20504982.2844
 -16513960.89944 -12868007.67544  20930932.5674   20930930.9054
 95  2 22  3  5  0.0000000  0  7G 5G 7G 9G20G12G24G 4
 -19114561.11144 -14894449.64844  21712249.2014   21712247.6624
  11849065.53244   9233044.08844  23185674.7284   23185674.4024
 -19873677.35844 -15485968.90844  21241862.1224   21241861.0304
    -98101.11644                  24789992.4814
 -17894864.323 4 -13944035.832 4  20946235.882    20946235.675
 -21399607.06844 -16675003.23644  20497394.2964   20497394.1454
 -16472511.20544 -12835709.20744  20938820.1254   20938818.5214
 95  2 22  3  5 30.0000000  0  7G 7G 5G 9G20G12G24G 4
  11919639.53644   9288036.80644  23199104.7824   23199104.6784
 -19185744.80944 -14949917.44944  21698703.3384   21698701.6404
 -19848932.69944 -15466687.36444  21246570.7044   21246569.5334
   -196261.50944                  24771313.3914
 -17852406.458 4 -13910951.792 4  20954315.353    20954315.020
 -21439025.47244 -16705718.85844  20489893.2284   20489892.9274
 -16430591.04944 -12803044.14344  20946797.1584   20946795.8394
 95  2 22  3  6  0.0000000  0  7G 5G 7G 9G20G12G24G 4
 -19256783.74244 -15005272.44444  21685185.1114   21685183.3534
  11990213.64844   9343029.59744  23212534.6624   23212534.2054
 -19823676.03644 -15447006.85244  21251377.0874   21251376.0774
   -294482.95844                  24752622.6554
 -17809434.885 4 -13877467.462 4  20962492.643    20962492.125
 -21477975.53544 -16736069.54044  20482481.2684   20482480.8784
 -16388191.36544 -12770005.42644  20954865.5394   20954863.9834
 95  2 22  3  6 30.0000000  0  6G 7G 5G 9G12G24G 4
  12060778.38744   9398015.12244  23225962.7254   23225962.0784
 -19327684.00444 -15060519.38844  21671693.2944   21671691.7394
 -19797947.03244 -15426958.28144  21256273.2324   21256272.0384
 -17765964.606 4 -13843594.529 4  20970764.761    20970764.222
 -21516446.71844 -16766047.06744  20475160.3464   20475159.9584
 -16345328.80344 -12736606.02344  20963022.0924   20963020.4954
 95  2 22  3  7  0.0000000  0  6G 7G 5G 9G12G24G 4
  12131355.77744   9453010.49344  23239393.2024   23239392.9524
 -19398407.62444 -15115628.68744  21658234.8684   21658233.6304
 -19771723.06344 -15406524.02444  21261263.5314   21261262.6174
 -17721968.297 4 -13809311.700 4  20979136.965    20979136.330
 -21554392.15644 -16795614.92244  20467939.6174   20467939.2944
 -16301970.63644 -12702820.43444  20971272.9174   20971271.3434
 95  2 22  3  7 30.0000000  0  6G12G 7G 5G24G 9G 4
 -17677428.755 4 -13774605.575 4  20987612.631    20987611.971
  12201978.88544   9508041.45844  23252832.5484   23252833.0204
 -19468935.65544 -15170585.58144  21644813.9314   21644813.0614
 -21591788.27944 -16824754.74244  20460823.4194   20460823.0474
 -19744977.43344 -15385683.27944  21266353.1324   21266351.9744
 -16258088.18344 -12668626.31444  20979623.5064   20979621.9704
 95  2 22  3  8  0.0000000  0  7G12G 7G20G 5G24G 9G 4
 -17632321.123 4 -13739456.780 4  20996196.382    20996195.880
  12272681.10444   9563134.08744  23266286.6564   23266285.4694
         0.04854                  24677753.4804
 -19539241.43544 -15225369.29544  21631435.2424   21631434.5334
 -21628607.65844 -16853445.15244  20453816.9354   20453816.5924
 -19717667.46444 -15364402.78444  21271549.9474   21271548.7674
 -16213655.16044 -12634003.17944  20988078.6884   20988077.1104
 95  2 22  3  8 30.0000000  0  7G12G 7G20G 5G24G 9G 4
 -17586646.794 4 -13703866.402 4  21004887.914    21004887.326
  12343439.54344   9618270.52044  23279751.1844   23279750.8984
    -98379.06144                  24659032.6264
 -19609322.69944 -15279978.06544  21618099.0624   21618098.2644
 -21664853.50044 -16881688.64644  20446919.5554   20446919.3814
 -19689776.32044 -15342669.42644  21276857.3194   21276856.1104
 -16168662.69544 -12598944.11244  20996640.5104   20996638.9054
 95  2 22  3  9  0.0000000  0  7G12G 7G20G 5G24G 9G 4
 -17540406.941 4 -13667835.359 4  21013687.067    21013686.496
  12414249.01944   9673446.72044  23293225.3664   23293225.1204
   -196743.16344                  24640314.2924
 -19679166.49944 -15334401.79244  21604808.1634   21604807.0584
 -21700535.40244 -16909492.70844  20440129.4894   20440129.1624
 -19661290.65344 -15320472.80844  21282277.9334   21282276.9304
 -16123119.90544 -12563456.22244  21005307.0144   21005305.3344
 95  2 22  3  9 30.0000000  0  7G12G 7G20G 5G24G 9G 4
 -17493609.322 4 -13631369.692 4  21022592.407    21022591.922
  12485106.03044   9728659.96544  23306708.9474   23306709.5404
   -295085.26944                  24621600.4254
 -19748771.53544 -15388639.46344  21591562.8114   21591561.3274
 -21735669.99044 -16936870.29544  20433443.6134   20433443.4584
 -19632221.80644 -15297821.76544  21287809.5644   21287808.3924
 -16077056.12544 -12527562.36444  21014072.5744   21014070.9364
 95  2 22  3 10  0.0000000  0  7G12G 7G20G 5G24G 9G 4
 -17446247.211 4 -13594464.160 4  21031605.161    21031604.504
  12555998.61944   9783900.93544  23320199.8744   23320199.7474
   -393405.49544                  24602890.3824
 -19818130.76644 -15442685.60444  21578364.1684   21578362.7904
 -21770255.61544 -16963820.11744  20426862.0274   20426861.8324
 -19602568.14044 -15274715.02444  21293452.5724   21293451.0964
 -16030484.26344 -12491272.59544  21022935.0684   21022933.4764
 95  2 22  3 10 30.0000000  0  8G12G 7G 6G20G 5G24G 9G 4
 -17398338.029 4 -13557132.338 4  21040721.974    21040721.297
  12626918.62444   9839163.27544  23333695.5924   23333693.5164
        -0.52354                  25401515.4364
   -491728.12144                  24584179.9864
 -19887258.13844 -15496551.07644  21565209.7454   21565208.7374
 -21804309.60744 -16990355.67744  20420381.7604   20420381.4324
 -19572351.16844 -15251169.33944  21299202.5484   21299201.0574
 -15983441.43144 -12454615.83344  21031886.9684   21031885.2244
 95  2 22  3 11  0.0000000  0  8G12G 7G 6G20G 5G24G 9G 4
 -17349907.103 4 -13519393.964 4  21049938.024    21049937.398
  12697872.34444   9894451.86244  23347197.6094   23347197.6284
    -74985.71644                  25387245.6134
   -590079.31044                  24565464.2534
 -19956178.69444 -15550255.39644  21552094.6094   21552093.5704
 -21837850.78044 -17016491.64144  20413999.0044   20413998.5804
 -19541604.30144 -15227210.75144  21305053.3664   21305052.2534
 -15935974.12744 -12417628.31944  21040919.6094   21040917.7554
 95  2 22  3 11 30.0000000  0  7G12G 6G20G 5G24G 9G 4
 -17300945.696 4 -13481242.231 4  21059255.098    21059254.417
   -149873.53644                  25372994.4894
   -688464.69544                  24546742.0654
 -20024889.44444 -15603796.23044  21539019.4084   21539018.3434
 -21870862.32244 -17042214.90644  20407716.9864   20407716.6444
 -19510322.95044 -15202835.68144  21311006.1604   21311004.8414
 -15888066.33044 -12380297.56044  21050036.1674   21050034.4024
 95  2 22  3 12  0.0000000  0  7G12G 6G20G 5G24G 9G 4
 -17251552.058 4 -13442753.693 4  21068654.462    21068653.860
   -224770.64044                  25358740.9904
   -786986.08744                  24527994.3064
 -20093494.18144 -15657254.45644  21525964.4084   21525963.3524
 -21903434.79844 -17067596.03844  20401518.7934   20401518.4144
 -19478602.03444 -15178118.09244  21317042.3514   21317041.0414
 -15839797.24144 -12342685.27944  21059221.5614   21059219.8464
 95  2 22  3 12 30.0000000  0  7G12G 6G20G 5G24G 9G 4
 -17201771.924 4 -13403963.989 4  21078127.307    21078126.719
   -299741.63144                  25344474.0424
   -885674.06944   -690135.72744  24509214.8584
 -20162027.20744 -15710656.80144  21512922.9084   21512921.5594
 -21935604.79344 -17092663.55444  20395397.1264   20395396.6204
 -19446486.28044 -15153092.82744  21323153.7114   21323152.4144
 -15791199.96544 -12304817.26644  21068469.3574   21068467.6784
 95  2 22  3 13  0.0000000  0  7G12G 6G20G 5G24G 9G 4
 -17151422.182 4 -13364730.435 4  21087708.561    21087707.979
   -374609.35244                  25330227.2544
   -984334.95644                  24490440.1544
 -20230309.24544 -15763863.57544  21499929.0924   21499927.9544
 -21967184.91544 -17117271.43144  20389387.5714   20389387.1404
 -19413796.69044 -15127620.41844  21329374.4704   21329373.3764
 -15742073.22144 -12266536.68044  21077817.7724   21077816.2124
 95  2 22  3 13 30.0000000  0  7G12G 6G20G 5G24G 9G 4
 -17100519.075 4 -13325065.685 4  21097395.108    21097394.570
   -449390.07944   -350172.67444  25315997.2324
  -1082968.48644   -843871.56944  24471671.1334
 -20298361.72044 -15816891.46644  21486979.1354   21486978.0374
 -21998197.16944 -17141436.81344  20383486.1584   20383485.8264
 -19380539.48244 -15101705.71644  21335703.1524   21335701.7824
 -15692423.20844 -12227848.35444  21087265.7914   21087264.1294
 95  2 22  3 14  0.0000000  0  7G12G 6G20G 5G24G 9G 4
 -17049085.731 4 -13284987.762 4  21107182.529    21107181.915
   -524115.62044                  25301777.1024
  -1181581.95344   -920713.19644  24452905.6304
 -20366209.88744 -15869760.15844  21474068.1644   21474066.9384
 -22028666.52544 -17165179.16044  20377688.0864   20377687.5254
 -19346731.51244 -15075361.85244  21342136.6344   21342135.2484
 -15642273.91244 -12188770.97744  21096808.8794   21096807.3004
 95  2 22  3 14 30.0000000  0  7G12G 6G20G 5G24G 9G 4
 -16997093.208 4 -13244474.115 4  21117076.296    21117075.654
   -598741.68144                  25287576.7694
  -1280151.07944                  24434148.4814
 -20433821.38744 -15922444.43744  21461202.2264   21461201.1124
 -22058559.20944 -17188472.14644  20371999.8094   20371999.0684
 -19312346.09644 -15048568.03244  21348679.9554   21348678.5814
 -15591597.88744 -12149283.15944  21106452.2984   21106451.0264
 95  2 22  3 15  0.0000000  0  7G12G 6G20G 5G24G 9G 4
 -16944569.223 4 -13203546.344 4  21127071.297    21127070.644
   -673277.93944                  25273393.2664
  -1378706.27844  -1074316.44744  24415393.9864
 -20501218.09644 -15974961.34744  21448377.0604   21448375.9474
 -22087907.81844 -17211341.17544  20366415.0084   20366414.1164
 -19277408.12844 -15021343.65244  21355328.3684   21355327.4254
 -15540424.27644 -12109407.61244  21116190.3144   21116188.9684
 95  2 22  3 15 30.0000000  0  7G12G 6G20G 5G24G 9G 4
 -16891519.879 4 -13162209.205 4  21137166.228    21137165.718
   -747727.45444                  25259225.7964
  -1477258.66344                  24396640.0854
 -20568398.95044 -16027310.05644  21435592.9364   21435591.6984
 -22116722.53844 -17233794.18644  20360931.7424   20360930.8554
 -19241919.08944 -14993689.86544  21362081.4784   21362080.9014
 -15488765.20844 -12069153.78744  21126020.6444   21126019.3654
 95  2 22  3 16  0.0000000  0  7G12G 6G20G 5G24G 9G 4
 -16837947.107 4 -13120464.201 4  21147360.814    21147360.378
   -822090.27744                  25245075.1894
  -1575814.94344  -1227907.55844  24377885.1754
 -20635350.95844 -16079480.44444  21422852.3254   21422851.0694
 -22144999.34144 -17255828.03944  20355550.7444   20355550.1014
 -19205897.07444 -14965620.76644  21368936.3904   21368935.4284
 -15436628.90044 -12028528.08944  21135941.8864   21135940.4574
 95  2 22  3 16 30.0000000  0  7G12G 6G20G 5G24G 9G 4
 -16783861.364 4 -13078319.480 4  21157653.047    21157652.661
   -896369.84244                  25230940.2244
  -1674386.17544  -1304716.33244  24359127.7234
 -20702070.38544 -16131469.59944  21410155.9794   21410154.9044
 -22172767.72344 -17277465.72344  20350266.5214   20350265.9844
 -19169365.76144 -14937154.81344  21375888.0404   21375886.8494
 -15384028.80644 -11987541.00244  21145951.3534   21145949.6404
 95  2 22  3 17  0.0000000  0  7G12G 6G20G 5G24G 9G 4
 -16729275.855 4 -13035785.330 4  21168040.381    21168040.015
   -970583.58744   -756296.89944  25216817.6174
  -1772980.18444  -1381542.77844  24340365.7364
 -20768571.20744 -16183288.41444  21397501.3644   21397500.1854
 -22200049.56644 -17298724.28744  20345074.8304   20345074.3944
 -19132337.92144 -14908301.95744  21382934.3134   21382933.5544
 -15330988.21544 -11946210.67444  21156044.5414   21156042.7834
 95  2 22  3 17 30.0000000  0  7G12G 6G20G 5G24G 9G 4
 -16674191.772 4 -12992862.679 4  21178522.594    21178521.983
  -1044743.14344                  25202705.4584
  -1871598.49944  -1458388.18444  24321599.2904   24321602.5064
 -20834857.26944 -16234939.88344  21384887.5274   21384886.0534
 -22226834.71244 -17319595.81544  20339977.7954   20339977.3474
 -19094827.17044 -14879072.80644  21390072.4824   21390071.4514
 -15277513.25944 -11904541.87544  21166220.4584   21166218.6654
 95  2 22  3 18  0.0000000  0  7G12G 6G20G 5G24G 9G 4
 -16618569.900 4 -12949520.970 4  21189107.095    21189106.271
  -1118819.35944                  25188609.6174
  -1970201.01644  -1535221.26844  24302836.1364   24302835.0874
 -20900877.33144 -16286384.07244  21372324.0714   21372322.8864
 -22253079.06444 -17340045.94744  20334983.7104   20334983.2174
 -19056803.71544 -14849444.15044  21397307.9484   21397306.6394
 -15223562.07744 -11862501.99444  21176487.0434   21176485.6474
 95  2 22  3 18 30.0000000  0  7G12G 6G20G 5G24G 9G 4
 -16562340.305 4 -12905705.709 4  21199807.153    21199806.293
  -1192746.63144   -929410.85744  25174541.8194
  -2068726.35444  -1611994.24344  24284087.3784   24284091.0694
 -20966565.63844 -16337569.75744  21359824.1454   21359822.9024
 -22278707.62344 -17360016.24044  20330106.7244   20330106.2404
 -19018187.59844 -14819353.68444  21404656.2304   21404655.0104
 -15169056.41944 -11820030.04944  21186859.0694   21186857.4604
 95  2 22  3 19  0.0000000  0  7G12G 6G20G 5G24G 9G 4
 -16505617.982 4 -12861506.504 4  21210601.029    21210600.238
  -1266638.74744   -986989.03344  25160480.3684
  -2167293.53344  -1688799.82144  24265330.4354   24265325.6194
 -21032042.17244 -16388590.42244  21347364.7304   21347363.2324
 -22303810.79944 -17379577.14244  20325329.7704   20325329.3114
 -18979084.79644 -14788883.97744  21412097.4984   21412096.0984
 -15114106.16044 -11777211.66144  21197315.8094   21197314.1794
 95  2 22  3 19 30.0000000  0  7G12G 6G20G 5G24G 9G 4
 -16448413.021 4 -12816931.216 4  21221486.812    21221486.184
  -1340496.25544  -1044540.30244  25146425.4604
  -2265903.13144  -1765638.37544  24246565.8204   24246567.6124
 -21097307.91244 -16439446.83044  21334945.0044   21334943.5744
 -22328390.92344 -17398730.47544  20320652.2794   20320651.7784
 -18939506.56744 -14758043.81144  21419629.1504   21419627.7674
 -15058716.48744 -11734050.87544  21207856.1554   21207854.6974
 95  2 22  3 20  0.0000000  0  7G12G 6G20G 5G24G 9G 4
 -16390740.210 4 -12771991.373 4  21232461.568    21232460.963
  -1414324.99344  -1102069.14544  25132376.3304   25132376.4774
  -2364564.36944  -1842517.27044  24227791.0084   24227788.8914
 -21162375.34544 -16490148.71744  21322562.8924   21322561.4474
 -22352466.96944 -17417491.01744  20316070.7174   20316070.2614
 -18899455.19644 -14726834.96144  21427250.5414   21427249.3104
 -15002900.94844 -11690558.24644  21218477.4314   21218476.1904
 95  2 22  3 20 30.0000000  0  7G12G 6G20G 5G24G 9G 4
 -16332565.969 4 -12726660.811 4  21243531.835    21243531.135
  -1488075.98644  -1159537.41144  25118342.4234   25118340.1624
  -2463227.17144  -1919397.31444  24209015.7394   24209015.3564
 -21227211.25244 -16540670.19344  21310224.8334   21310223.9594
 -22375998.19344 -17435827.02444  20311592.9094   20311592.4464
 -18858885.72244 -14695222.39144  21434970.5844   21434969.3434
 -14946634.04344 -11646713.90344  21229184.6714   21229183.2264
 95  2 22  3 21  0.0000000  0  7G12G 6G20G 5G24G 9G 4
 -16273892.675 4 -12680941.379 4  21254697.053    21254696.276
  -1561755.30444  -1216949.78944  25104321.3444
  -2561876.11244  -1996266.57944  24190243.4534   24190241.0734
 -21291800.82144 -16590999.71944  21297933.7594   21297932.9364
 -22398987.68044 -17453740.90144  20307218.1914   20307217.5974
 -18817793.05544 -14663202.13844  21442790.3424   21442789.1014
 -14889926.69544 -11602526.35844  21239975.7754   21239974.3814
 95  2 22  3 21 30.0000000  0  7G12G 6G20G 5G24G 9G 4
 -16214728.035 4 -12634839.078 4  21265955.660    21265954.900
  -1635376.70244  -1274317.01044  25090310.8514
  -2660497.65844  -2073114.49544  24171476.0384   24171478.3244
 -21356139.29244 -16641133.58644  21285690.5944   21285689.7054
 -22421432.41644 -17471230.29444  20302947.0304   20302946.5594
 -18776188.55144 -14630783.05044  21450707.4984   21450706.2324
 -14832805.13044 -11558016.04444  21250845.6984   21250844.1744
 95  2 22  3 22  0.0000000  0  7G12G 6G20G 5G24G 9G 4
 -16155049.042 4 -12588335.979 4  21277312.075    21277311.541
  -1708936.42544  -1331636.20844  25076312.0784
  -2759069.15244  -2149923.44844  24152718.5354   24152718.1024
 -21420202.42644 -16691052.90044  21273499.9344   21273498.5464
 -22443304.59844 -17488273.54244  20298784.8834   20298784.4264
 -18734042.72544 -14597942.15744  21458727.5484   21458726.4894
 -14775245.89444 -11513164.69044  21261798.8984   21261797.2344
 95  2 22  3 22 30.0000000  0  7G12G 6G20G 5G24G 9G 4
 -16094851.310 4 -12541428.667 4  21288767.347    21288766.841
  -1782429.93544  -1388903.82644  25062327.4874
  -2857583.22444  -2226687.63644  24133972.1124   24133970.7864
 -21483986.79744 -16740754.99744  21261362.0974   21261360.8604
 -22464607.78144 -17504873.41244  20294731.1354   20294730.4984
 -18691353.33544 -14564677.70444  21466850.9344   21466849.6534
 -14717246.02144 -11467969.98444  21272835.9724   21272834.3214
 95  2 22  3 23  0.0000000  0  7G12G 6G20G 5G24G 9G 4
 -16034152.058 4 -12494130.562 4  21300318.100    21300317.556
  -1855873.77044  -1446132.68544  25048352.1284   25048349.0974
  -2956064.84144  -2303426.47344  24115231.7974   24115231.8584
 -21547527.12544 -16790266.93544  21249270.5914   21249269.8304
 -22485358.65044 -17521042.90844  20290782.5134   20290781.7954
 -18648153.07044 -14531015.16744  21475071.7204   21475070.3154
 -14658820.47644 -11422443.58544  21283953.9264   21283952.2344
 95  2 22  3 23 30.0000000  0  7G12G 6G20G 5G24G 9G 4
 -15972958.454 4 -12446447.250 4  21311962.875    21311962.299
  -1929257.18644  -1503314.50544  25034387.3954   25034388.8274
  -3054520.84444  -2380145.38644  24096496.4924   24096497.4644
 -21610850.13644 -16839609.53344  21237220.7104   21237220.1704
 -22505562.61644 -17536786.24644  20286937.6624   20286937.2134
 -18604464.32344 -14496971.99644  21483385.4274   21483384.0754
 -14599972.50144 -11376588.01644  21295152.1404   21295150.8274
 95  2 22  3 24  0.0000000  0  7G12G 6G20G 5G24G 9G 4
 -15911333.089 4 -12398427.501 4  21323689.784    21323689.199
  -2002629.69444  -1560487.84644  25020424.5924
  -3153035.08244  -2456909.71644  24077749.8334   24077749.6544
 -21674023.29644 -16888835.36844  21225199.5554   21225198.2264
 -22525301.76244 -17552167.38444  20283181.3594   20283181.0544
 -18560353.64444 -14462600.04544  21491779.5304   21491778.2214
 -14540751.61444 -11330441.86644  21306421.6434   21306420.0784
 95  2 22  3 24 30.0000000  0  7G12G 6G20G 5G24G 9G 4
 -15849193.990 4 -12350007.438 4  21335514.476    21335513.791
  -2075887.17244                  25006483.4224
  -3251528.52844  -2533657.82844  24059006.9574   24059006.8554
 -21736956.57044 -16937874.27844  21213223.7224   21213222.3964
 -22544500.78844 -17567127.65144  20279527.8514   20279527.3334
 -18515748.76744 -14427843.00744  21500267.5494   21500266.2094
 -14481085.25144 -11283948.59544  21317775.8414   21317773.9774
 95  2 22  3 25  0.0000000  0  7G12G 6G20G 5G24G 9G 4
 -15786539.265 4 -12301185.589 4  21347437.345    21347436.522
  -2149031.59444  -1674567.11244  24992564.6084
  -3349989.19644  -2610380.37744  24040270.3464   24040271.2694
 -21799631.77544 -16986712.09344  21201296.9534   21201295.8674
 -22563145.24844 -17581655.79044  20275979.8104   20275979.4004
 -18470641.81044 -14392694.73544  21508850.9124   21508849.8894
 -14420975.09544 -11237109.51044  21329214.2764   21329212.8454
 95  2 22  3 25 30.0000000  0  7G12G 6G20G 5G24G 9G 4
 -15723410.543 4 -12251994.390 4  21359450.421    21359449.589
  -2222106.48044                  24978659.4344
  -3448448.06444  -2687101.54744  24021534.0804   24021535.6834
 -21862054.78544 -17035353.39244  21189418.2094   21189416.9374
 -22581287.17944 -17595792.34844  20272527.5234   20272527.2004
 -18425053.82444 -14357171.63844  21517525.9764   21517525.1754
 -14360465.04944 -11189958.82444  21340728.9654   21340727.5404
 95  2 22  3 26  0.0000000  0  7G12G 6G20G 5G24G 9G 4
 -15659826.429 4 -12202448.339 4  21371550.095    21371549.258
  -2295140.99844  -1788418.47944  24964761.6304   24964763.7984
  -3546916.45144  -2763830.11244  24002795.9054   24002796.8774
 -21924223.55844 -17083796.58644  21177587.8424   21177586.4124
 -22598954.30344 -17609558.92744  20269165.5034   20269165.1884
 -18378999.45844 -14321285.12544  21526289.8394   21526288.7724
 -14299578.50244 -11142514.76044  21352315.2444   21352313.5824
 95  2 22  3 26 30.0000000  0  7G12G 6G20G 5G24G 9G 4
 -15595795.859 4 -12152554.403 4  21383734.717    21383733.964
  -2368155.49844  -1845312.85644  24950867.1914   24950863.8434
  -3645368.34044  -2840545.85544  23984060.8314   23984060.6704
 -21986138.99244 -17132042.37244  21165805.8964   21165804.3704
 -22616144.00244 -17622953.48744  20265894.4504   20265894.0504
 -18332479.73644 -14285035.99744  21535142.4404   21535140.9744
 -14238321.45744 -11094781.99844  21363972.1494   21363970.5554
 95  2 22  3 27  0.0000000  0  7G12G 6G20G 5G24G 9G 4
 -15531337.143 4 -12102326.844 4  21396000.834    21396000.196
  -2441164.48944  -1902202.96544  24936973.9944
  -3743800.79344  -2917246.43344  23965329.7394   23965330.6624
 -22047819.56044 -17180105.14444  21154068.5584   21154067.1374
 -22632865.36844 -17635983.11644  20262712.5004   20262712.1704
 -18285512.06844 -14248437.82344  21544080.1664   21544078.5144
 -14176706.29344 -11046770.18444  21375697.1024   21375695.4194
 95  2 22  3 27 30.0000000  0  7G12G 6G20G 5G24G 9G 4
 -15466378.374 4 -12051709.635 4  21408362.219    21408361.518
  -2514089.98844  -1959027.94144  24923097.6094
  -3842152.70344  -2993884.23844  23946614.3654   23946614.0804
 -22109195.23644 -17227930.34044  21142388.9484   21142387.6064
 -22649053.20844 -17648597.00844  20259632.0434   20259631.6914
 -18238041.62044 -14211447.87544  21553113.4824   21553112.0264
 -14114657.97944 -10998420.84844  21387504.4464   21387502.6544
 95  2 22  3 28  0.0000000  0  8G12G16G 6G20G 5G24G 9G 4
 -15400882.229 4 -12000673.695 4  21420825.696    21420824.961
        -0.64054                  24775277.7904
  -2586902.59644  -2015764.98844  24909242.3424
  -3940386.76644  -3070430.23744  23927921.2794   23927923.0274
 -22170232.90844 -17275492.15444  21130773.6234   21130772.6014
 -22664653.81744 -17660753.31344  20256663.4404   20256663.0714
 -18190042.39744 -14174045.89944  21562247.3784   21562246.2154
 -14052135.85144 -10949702.31044  21399402.0104   21399400.6804
 95  2 22  3 28 30.0000000  0  8G12G16G 6G20G 5G24G 9G 4
 -15334911.311 4 -11949267.801 4  21433379.392    21433378.774
    -91893.20844                  24757791.1404
  -2659658.76944  -2072458.06244  24895397.1754   24895398.1984
  -4038573.09444  -3146939.02944  23909237.0864   23909239.1674
 -22230995.30644 -17322839.46844  21119210.8614   21119210.0744
 -22679722.59644 -17672495.20644  20253795.9784   20253795.4844
 -18141569.09344 -14136274.50944  21571471.5574   21571470.5584
 -13989198.71644 -10900660.38644  21411378.5044   21411377.0884
 95  2 22  3 29  0.0000000  0  8G12G16G 6G20G 5G24G 9G 4
 -15268488.755 4 -11897509.979 4  21446019.064    21446018.440
   -183938.02744                  24740274.7404
  -2732379.34744  -2129123.42444  24881558.7174   24881559.9444
  -4136756.06244  -3223445.20744  23890553.3534   23890553.7414
 -22291493.95944 -17369981.27344  21107698.4024   21107697.4654
 -22694293.28244 -17683848.97544  20251023.2484   20251022.7024
 -18092644.89144 -14098151.76344  21580781.4454   21580780.5234
 -13925877.56344 -10851319.22944  21423428.0564   21423426.9614
 95  2 22  3 29 30.0000000  0  8G12G16G 6G20G 5G24G 9G 4
 -15201663.074 4 -11845438.035 4  21458735.624    21458734.921
   -276180.47944                  24722720.5664
  -2805130.01944  -2185812.20644  24867714.6614   24867717.5984
  -4234995.39944  -3299995.31244  23871859.0274   23871859.0554
 -22351769.49244 -17416949.21744  21096228.3764   21096227.3714
 -22708409.78044 -17694848.82944  20248337.0854   20248336.6014
 -18043320.44244 -14059717.13444  21590167.7874   21590166.7554
 -13862215.45744 -10801712.39444  21435542.6354   21435541.0144
 95  2 22  3 30  0.0000000  0  8G12G16G 6G20G 5G24G 9G 4
 -15134425.947 4 -11793045.488 4  21471530.515    21471529.789
   -368609.63844                  24705132.3934
  -2877898.29944  -2242514.71644  24853867.1834   24853868.3874
  -4333272.95244  -3376575.18644  23853157.1254   23853156.9774
 -22411810.87744 -17463734.70544  21084803.0244   21084801.7784
 -22722054.59144 -17705481.14044  20245740.3824   20245739.7944
 -17993582.38844 -14020960.22044  21599632.8334   21599631.6964
 -13798205.68144 -10751834.64644  21447723.4674   21447721.8014
 95  2 22  3 30 30.0000000  0  8G12G16G 6G20G 5G24G 9G 4
 -15066698.001 4 -11740270.483 4  21484418.766    21484418.047
   -461116.04344                  24687529.8134
  -2950591.50044  -2299158.71244  24840034.0534   24840033.9714
  -4431508.71744  -3453122.50244  23834463.2564   23834462.5584
 -22471540.45844 -17510277.22944  21073436.6784   21073435.6514
 -22735153.00644 -17715687.68844  20243247.7574   20243247.2834
 -17943351.28744 -13981819.11444  21609191.0744   21609190.1004
 -13733781.87144 -10701634.27644  21459982.9824   21459981.2774
 95  2 22  3 31  0.0000000  0  8G12G16G 6G20G 5G24G 9G 4
 -14998410.256 4 -11687059.264 4  21497413.486    21497412.794
   -553601.60644                  24669930.4564
  -3023135.75144  -2355686.63944  24826229.2714   24826228.2814
  -4529625.63044  -3529577.20744  23815792.3414   23815792.7124
 -22530887.29644 -17556521.51544  21062143.4144   21062142.2824
 -22747620.20744 -17725402.38344  20240875.3204   20240874.9614
 -17892574.26444 -13942252.61944  21618853.5084   21618852.4144
 -13668882.10544 -10651063.03044  21472332.8494   21472331.2904
 95  2 22  3 31 30.0000000  0  8G12G16G 6G20G 5G24G 9G 4
 -14929585.184 4 -11633429.349 4  21510510.643    21510509.701
   -646085.90744                  24652330.9154
  -3095547.04544  -2412110.97344  24812449.5914   24812449.8524
  -4627643.07244  -3605954.39344  23797140.3464   23797139.1494
 -22589881.23244 -17602490.81244  21050917.2284   21050916.0234
 -22759464.40144 -17734631.61644  20238621.4824   20238621.0894
 -17841274.60244 -13902278.86644  21628615.4514   21628614.3534
 -13603525.85044 -10600136.07544  21484769.7044   21484768.3064
 95  2 22  3 32  0.0000000  0  8G12G16G 6G20G 5G24G 9G 4
 -14860347.472 4 -11579477.900 4  21523686.181    21523685.288
   -738694.85044   -575605.97144  24634707.4244
  -3167935.96444  -2468517.96244  24798673.8714   24798674.3934
  -4725675.31844  -3682343.13144  23778485.7074   23778485.8104
 -22648646.90544 -17648282.23844  21039734.4714   21039733.4514
 -22770818.00544 -17743478.57244  20236461.0634   20236460.4834
 -17789567.95144 -13861987.97344  21638454.8304   21638454.2274
 -13537853.08444 -10548962.48344  21497266.8094   21497265.5464
 95  2 22  3 32 30.0000000  0  8G12G16G 6G20G 5G24G 9G 4
 -14790638.078 4 -11525158.904 4  21536951.280    21536950.688
   -831364.54044                  24617072.8034
  -3240248.60144  -2524865.42344  24784913.1674   24784911.4444
  -4823663.41744  -3758697.44944  23759839.2724   23759839.1964
 -22707125.07044 -17693849.63744  21028606.4334   21028605.2994
 -22781624.61044 -17751899.29344  20234404.5844   20234404.1044
 -17737396.53344 -13821334.92844  21648382.9864   21648382.3394
 -13471798.89144 -10497491.68044  21509836.6104   21509835.0344
 95  2 22  3 33  0.0000000  0  8G12G16G 6G20G 5G24G 9G 4
 -14720452.548 4 -11470468.892 4  21550307.048    21550306.555
   -924106.23044   -720082.37344  24599425.0644
  -3312487.13044  -2581155.14044  24771166.8284   24771163.3214
  -4921600.68344  -3835012.17844  23741202.2274   23741201.1484
 -22765315.59744 -17739192.90244  21017533.1174   21017531.9314
 -22791879.46944 -17759890.08244  20232453.0884   20232452.7924
 -17684756.61744 -13780316.82444  21658400.1224   21658399.5104
 -13405348.85744 -10445712.42844  21522481.6754   21522480.1844
 95  2 22  3 33 30.0000000  0  8G12G16G 6G20G 5G24G 9G 4
 -14649796.117 4 -11415411.949 4  21563752.505    21563752.076
  -1016935.05044   -792416.48944  24581759.9734
  -3384653.65344  -2637388.74944  24757433.8454
  -5019491.91444  -3911291.04444  23722574.2234   23722574.6474
 -22823222.56244 -17784315.20544  21006513.7994   21006512.5004
 -22801599.72644 -17767464.29344  20230603.2984   20230602.7764
 -17631643.42544 -13738929.92944  21668507.4054   21668506.8284
 -13338506.46244 -10393627.44544  21535201.2034   21535199.6454
 95  2 22  3 34  0.0000000  0  8G12G16G 6G20G 5G24G 9G 4
 -14578678.510 4 -11359995.653 4  21577285.721    21577285.244
  -1109848.26844   -864816.35944  24564079.0714
  -3456755.45444  -2693571.96344  24743713.2534   24743713.2334
  -5117336.39944  -3987533.42844  23703954.6934   23703955.1144
 -22880849.54344 -17829219.34344  20995547.9714   20995546.8054
 -22810797.95544 -17774631.73544  20228852.9134   20228852.4144
 -17578077.54444 -13697190.29444  21678700.4154   21678699.4584
 -13271282.47444 -10341245.11544  21547993.4224   21547992.1434
 95  2 22  3 34 30.0000000  0  8G12G16G 6G20G 5G24G 9G 4
 -14507108.550 4 -11304226.872 4  21590905.034    21590904.429
  -1202837.74144                  24546384.0714
  -3528794.39444  -2749706.14844  24730004.7284   24730007.4364
  -5215134.85044  -4063739.98844  23685344.1054   23685342.8084
 -22938200.73444 -17873908.57844  20984634.3474   20984633.2294
 -22819476.78844 -17781394.45344  20227201.4854   20227201.0364
 -17524076.92144 -13655111.89944  21688976.3344   21688975.1844
 -13203674.64344 -10288563.69144  21560858.9314   21560857.2564
 95  2 22  3 35  0.0000000  0  8G12G16G 6G20G 5G24G 9G 4
 -14435074.287 4 -11248096.295 4  21604612.798    21604612.031
  -1295889.76344  -1009783.75044  24528676.6634
  -3600747.78144  -2805773.69044  24716313.0614   24716314.7854
  -5312869.18144  -4139896.57144  23666745.8864   23666743.6984
 -22995247.83244 -17918360.85944  20973778.6984   20973777.4614
 -22827616.00844 -17787736.69044  20225652.6294   20225652.1464
 -17469615.97244 -13612674.81444  21699339.6024   21699338.4144
 -13135675.55844 -10235577.39144  21573798.7424   21573796.9234
 95  2 22  3 35 30.0000000  0  8G12G16G 6G20G 5G24G 9G 4
 -14362595.460 4 -11191619.299 4  21618405.180    21618404.315
  -1389020.02844  -1082352.69244  24510954.5164
  -3672628.63044  -2861784.69244  24702634.4954   24702634.1484
  -5410543.95544  -4216006.77644  23648158.8234   23648157.7854
 -23051994.95244 -17962579.39444  20962980.1544   20962978.7144
 -22835235.78644 -17793674.16944  20224202.6494   20224202.2224
 -17414712.43144 -13569892.84944  21709787.6954   21709786.4544
 -13067299.87744 -10182297.64644  21586810.1054   21586808.3124
 95  2 22  3 36  0.0000000  0  8G12G16G 6G20G 5G24G 9G 4
 -14289671.680 4 -11134795.587 4  21632282.134    21632281.306
  -1482228.08144  -1154982.39744  24493217.7574   24493218.8204
  -3744445.44144  -2917745.82644  24688967.9784   24688967.5024
  -5508146.91744  -4292060.97944  23629585.4694   23629583.7654
 -23108427.14544 -18006552.52944  20952241.2884   20952239.7224
 -22842335.56144 -17799206.45344  20222851.5874   20222851.2034
 -17359361.71344 -13526762.43144  21720320.8094   21720319.3834
 -12998549.51844 -10128725.94644  21599892.7134   21599891.0824
 95  2 22  3 36 30.0000000  0  8G12G16G 6G20G 5G24G 9G 4
 -14216309.663 4 -11077630.390 4  21646242.501    21646241.790
  -1575519.22844  -1227676.79744  24475464.9974
  -3816207.81144  -2973664.52844  24675311.8094   24675308.3204
  -5605689.40044  -4368068.07444  23611023.6444   23611023.7584
 -23164553.66344 -18050287.47544  20941560.8704   20941559.5354
 -22848920.80344 -17804337.80444  20221598.4424   20221598.0574
 -17303551.14144 -13483273.68744  21730941.2904   21730939.9434
 -12929439.51444 -10074874.00344  21613043.9764   21613042.5924
 95  2 22  3 37  0.0000000  0  8G12G16G 6G20G 5G24G 9G 4
 -14142521.367 4 -11020133.026 4  21660283.970    21660283.274
  -1668911.03844                  24457693.6294
  -3887935.14044  -3029555.92244  24661662.2014   24661663.3864
  -5703193.74144  -4444045.45244  23592469.2264   23592467.2454
 -23220388.85844 -18093795.41944  20930935.8044   20930934.4844
 -22854999.12644 -17809074.15344  20220441.8584   20220441.4024
 -17247285.35744 -13439430.23244  21741648.3414   21741646.9704
 -12859989.84544 -10020757.37944  21626259.9214   21626258.4154
 95  2 22  3 37 30.0000000  0  8G12G16G 6G20G 5G24G 9G 4
 -14068299.966 4 -10962298.181 4  21674407.914    21674406.956
  -1762381.34244  -1373283.53744  24439906.8824
  -3959624.82744  -3085417.97844  24648020.1204   24648018.7104
  -5800636.61344  -4519974.94544  23573926.4514   23573926.0004
 -23275935.75544 -18137078.71244  20920365.5614   20920364.1284
 -22860570.15944 -17813415.21144  20219381.7974   20219381.3174
 -17190578.73944 -13395243.26644  21752439.1704   21752437.8814
 -12790200.18144  -9966375.82544  21639540.3144   21639539.0764
 95  2 22  3 38  0.0000000  0  8G12G16G 6G20G 5G24G 9G 4
 -13993639.578 4 -10904121.274 4  21688615.393    21688614.317
  -1855901.25344                  24422109.8174
  -4031264.91044  -3141241.41144  24634387.7354   24634385.6334
  -5898023.14344  -4595860.51444  23555394.6844   23555393.6624
 -23331189.22944 -18180133.36444  20909851.2614   20909849.8934
 -22865617.82844 -17817348.45044  20218421.1534   20218420.5414
 -17133430.12144 -13350711.88544  21763314.1474   21763313.1564
 -12720070.40044  -9911729.24344  21652885.5604   21652884.2104
 95  2 22  3 38 30.0000000  0  8G12G16G 6G20G 5G24G 9G 4
 -13918536.394 4 -10845599.328 4  21702906.950    21702905.976
  -1949447.43144                  24404307.8884
  -4102842.50444  -3197016.09444  24620767.6364   24620767.2674
  -5995340.43944  -4671692.16644  23536875.9834   23536874.7914
 -23386136.55544 -18222949.45944  20899395.0064   20899393.8204
 -22870130.06144 -17820864.46744  20217562.4594   20217561.8964
 -17075846.92744 -13305841.87644  21774271.9214   21774270.8254
 -12649590.04044  -9856809.47844  21666297.6114   21666296.3784
 95  2 22  3 39  0.0000000  0  8G12G16G 6G20G 5G24G 9G 4
 -13842995.238 4 -10786736.103 4  21717281.859    21717280.998
  -2043014.11344                  24386502.1774
  -4174358.52744  -3252742.85044  24607158.5234   24607159.0294
  -6092568.02844  -4747453.88344  23518374.2564   23518374.1624
 -23440767.39144 -18265518.93744  20888998.9704   20888997.6884
 -22874110.09944 -17823965.78644  20216804.8924   20216804.4494
 -17017847.07744 -13260647.20444  21785309.0724   21785307.5074
 -12578753.90444  -9801612.48744  21679777.3084   21679775.9814
 95  2 22  3 39 30.0000000  0  8G12G16G 6G20G 5G24G 9G 4
 -13767003.755 4 -10727521.973 4  21731742.602    21731741.862
  -2136571.82844                  24368698.8184
  -4245801.02344  -3308412.27244  24593562.9944   24593561.2454
  -6189679.34744  -4823125.02044  23499894.5174   23499892.6074
 -23495055.25844 -18307821.16944  20878668.3684   20878666.9284
 -22877549.81244 -17826646.07244  20216150.5434   20216149.9704
 -16959414.98344 -13215115.71644  21796428.4484   21796426.9844
 -12507536.41144  -9746118.33644  21693329.4804   21693328.2124
 95  2 22  3 40  0.0000000  0  8G12G16G 6G20G 5G24G 9G 4
 -13690578.399 4 -10667969.767 4  21746285.991    21746285.385
  -2230133.73844  -1737765.90044  24350895.6514   24350896.7384
  -4317185.73944  -3364036.68444  24579978.7574   24579977.4154
  -6286699.82844  -4898725.37444  23481432.2894   23481430.4884
 -23548996.41944 -18349853.23744  20868403.8044   20868402.5264
 -22880465.22144 -17828917.81244  20215595.7364   20215594.9924
 -16900550.55344 -13169247.34744  21807629.9174   21807628.5094
 -12435945.51044  -9690333.21844  21706952.7684   21706951.1934
 95  2 22  3 40 30.0000000  0  8G12G16G 6G20G 5G24G 9G 4
 -13613713.012 4 -10608074.682 4  21760912.969    21760912.427
  -2323703.93044  -1810677.67144  24333090.3534   24333088.2374
  -4388506.19244  -3419611.03144  24566406.6164   24566404.8304
  -6383612.21944  -4974241.50344  23462990.3404   23462991.0064
 -23602581.25244 -18391607.64444  20858206.9014   20858205.6044
 -22882849.81544 -17830775.93244  20215141.8694   20215141.0954
 -16841244.32644 -13123034.71844  21818915.3894   21818914.7164
 -12363980.69144  -9634256.73744  21720647.3704   21720645.5904
 95  2 22  3 41  0.0000000  0  8G12G16G 6G20G 5G24G 9G 4
 -13536414.008 4 -10547841.713 4  21775622.346    21775621.725
  -2417297.18244  -1883607.43344  24315279.6654
  -4459768.52344  -3475140.08444  24552845.8304   24552846.7164
  -6480439.41244  -5049691.25044  23444564.7104   23444564.9974
 -23655834.31744 -18433103.53344  20848073.2034   20848072.0134
 -22884712.97244 -17832227.73444  20214787.3174   20214786.6714
 -16781494.53344 -13076476.45244  21830285.1474   21830284.6054
 -12291649.73844  -9577894.95644  21734411.5054   21734409.3564
 95  2 22  3 41 30.0000000  0  8G12G16G 6G20G 5G24G 9G 4
 -13458715.833 4 -10487297.701 4  21790407.808    21790407.074
  -2510958.34244  -1956590.18644  24297456.3264   24297453.6464
  -4531000.02244  -3530645.13044  24539291.2924   24539288.2654
  -6577228.29744  -5125111.13544  23426146.4334   23426145.3834
 -23708781.47044 -18474361.05444  20837997.5644   20837996.5764
 -22886091.85144 -17833302.17744  20214524.9134   20214524.2914
 -16721348.02044 -13029609.05144  21841730.5914   21841730.0534
 -12218992.45544  -9521278.89344  21748237.6444   21748235.9004
 95  2 22  3 42  0.0000000  0  8G12G16G 6G20G 5G24G 9G 4
 -13380613.056 4 -10426438.412 4  21805270.302    21805269.513
  -2604698.05944  -2029634.13344  24279618.4114   24279616.5784
  -4602181.40144  -3586111.11044  24525746.1644   24525744.3744
  -6673982.28044  -5200503.82544  23407734.5994   23407734.4394
 -23761411.00844 -18515371.08344  20827982.3984   20827981.3474
 -22886970.49544 -17833986.82444  20214357.7694   20214357.1754
 -16660808.89444 -12982435.72244  21853250.9514   21853250.2644
 -12146033.23644  -9464427.55844  21762121.2674   21762119.2754
 95  2 22  3 42 30.0000000  0  8G12G16G 6G20G 5G24G 9G 4
 -13302114.963 4 -10365271.086 4  21820208.012    21820207.290
  -2698537.55544  -2102755.80744  24261761.9034   24261763.3284
  -4673315.34944  -3641540.13444  24512209.6554   24512209.6354
  -6770701.53844  -5275869.45344  23389329.4804   23389329.1324
 -23813738.93244 -18556146.08644  20818025.0524   20818023.6434
 -22887355.53944 -17834286.85444  20214284.3904   20214283.6674
 -16599892.08644 -12934968.09844  21864843.2404   21864842.0034
 -12072785.48444  -9407351.39044  21776059.9584   21776058.1484
 95  2 22  3 43  0.0000000  0  8G12G16G 6G20G 5G24G 9G 4
 -13223197.654 4 -10303777.095 4  21835225.568    21835224.888
  -2792445.43144  -2175930.74144  24243892.1374   24243889.9484
  -4744385.25844  -3696919.26544  24498685.2204   24498686.4274
  -6867356.23644  -5351184.79444  23370936.6224   23370936.9974
 -23865734.72844 -18596662.28544  20808130.6114   20808128.9164
 -22887232.59944 -17834191.04944  20214307.7904   20214307.1744
 -16538572.39144 -12887186.53244  21876512.0724   21876511.1474
 -11999221.08644  -9350028.48644  21790058.8994   21790057.2584
 95  2 22  3 43 30.0000000  0  8G12G16G 6G20G 5G24G 9G 4
 -13143853.530 4 -10241950.520 4  21850324.390    21850323.640
  -2886397.81644  -2249140.40444  24226013.4054   24226014.7924
  -4815374.33544  -3752235.42144  24485176.1654   24485176.8744
  -6963925.06044  -5426433.19344  23352560.1584   23352559.6534
 -23917367.77944 -18636895.82644  20798304.9414   20798303.3634
 -22886592.91144 -17833692.58344  20214429.6674   20214429.0094
 -16476841.36644 -12839084.45444  21888259.0204   21888258.1374
 -11925334.41844  -9292454.45944  21804118.8854   21804117.4364
 95  2 22  3 44  0.0000000  0  8G12G16G 6G20G 5G24G 9G 4
 -13064090.473 4 -10179797.500 4  21865502.762    21865501.956
  -2980381.15844  -2322374.17344  24208128.7034   24208127.6574
  -4886300.14044  -3807502.25344  24471679.3364   24471680.6644
  -7060403.83444  -5501611.43944  23334200.8554   23334200.7154
 -23968662.14744 -18676865.46044  20788543.8124   20788542.7934
 -22885437.33044 -17832792.12344  20214649.6054   20214648.9614
 -16414686.08644 -12790651.78044  21900086.5654   21900085.6364
 -11851127.28544  -9234630.71544  21818239.8834   21818238.4144
 95  2 22  3 44 30.0000000  0  8G12G16G 6G20G 5G24G 9G 4
 -12983892.290 4 -10117305.421 4  21880763.933    21880763.035
  -3074355.98844  -2395601.30644  24190245.6264   24190244.1854
  -4957145.78744  -3862706.64044  24458197.3784   24458195.8694
  -7156757.33444  -5576692.07244  23315865.5154   23315865.8154
 -24019606.71144 -18716562.52444  20778849.3674   20778848.4804
 -22883767.13244 -17831490.66344  20214967.2944   20214966.7064
 -16352084.44744 -12741871.29844  21911999.4094   21911998.6834
 -11776556.77844  -9176523.82344  21832430.2444   21832428.9244
 95  2 22  3 45  0.0000000  0  8G12G16G 6G20G 5G24G 9G 4
 -12903279.168 4 -10054490.018 4  21896104.115    21896103.219
  -3168320.27244  -2468820.26244  24172365.0364   24172365.2854
  -5027933.63044  -3917865.98044  24444727.1124   24444729.0094
  -7253001.54944  -5651687.53144  23297550.9344   23297549.6954
 -24070209.29844 -18755993.10944  20769220.0104   20769218.9434
 -22881598.23744 -17829800.60544  20215380.1104   20215379.4554
 -16289058.77544 -12692760.39344  21923992.7454   21923991.7394
 -11701643.06744  -9118149.49944  21846685.8884   21846684.8574
 95  2 22  3 45 30.0000000  0  8G12G16G 6G20G 5G24G 9G 4
 -12822240.975 4  -9991343.395 4  21911525.092    21911524.406
  -3262257.51144  -2542018.10844  24154489.3134   24154490.8964
  -5098646.35344  -3972966.79444  24431271.1454   24431271.3874
  -7349117.89644  -5726583.36644  23279260.6594   23279260.4164
 -24120455.08044 -18795145.66544  20759658.6374   20759657.4664
 -22878909.52644 -17827705.49644  20215891.7004   20215890.9144
 -16225605.23544 -12643316.09944  21936067.6474   21936066.9384
 -11626380.08544  -9059503.01644  21861007.8614   21861006.4314
 95  2 22  3 46  0.0000000  0  8G12G16G 6G20G 5G24G 9G 4
 -12740788.917 4  -9927874.283 4  21927024.830    21927024.328
  -3356184.91344  -2615208.29744  24136614.8604   24136613.9494
  -5169304.78744  -4028025.28644  24417825.7384   24417823.6094
  -7445112.37244  -5801384.22544  23260993.3434   23260992.4494
 -24170355.96844 -18834029.47144  20750162.6794   20750161.5924
 -22875711.60044 -17825213.59844  20216500.1114   20216499.5564
 -16161752.75344 -12593560.94044  21948218.6054   21948217.3204
 -11550785.55544  -9000598.19244  21875393.0644   21875391.5594
 95  2 22  3 46 30.0000000  0  8G12G16G 6G20G 5G24G 9G 4
 -12658944.093 4  -9864099.115 4  21942599.453    21942598.911
  -3450130.95844  -2688413.00344  24118737.4024   24118737.1774
  -5239921.93344  -4083051.60844  24404387.8824   24404387.5344
  -7541001.59144  -5876103.08444  23242746.0664   23242745.4284
 -24219911.85244 -18872644.44444  20740732.5874   20740731.4314
 -22872022.48244 -17822338.95244  20217202.1844   20217201.6924
 -16097536.57144 -12543522.38744  21960438.3584   21960437.7224
 -11474883.00144  -8941453.34344  21889837.1754   21889835.7524
 95  2 22  3 47  0.0000000  0  8G12G16G 6G20G 5G24G 9G 4
 -12576720.799 4  -9800029.034 4  21958246.174    21958245.278
  -3544107.68044  -2761641.63344  24100854.5544   24100854.8104
  -5310520.50444  -4138063.48744  24390953.1984   24390952.9554
  -7636802.08444  -5950752.79544  23224515.6484   23224515.2094
 -24269137.69444 -18911002.24244  20731365.2384   20731363.8764
 -22867833.23244 -17819074.59444  20217999.4194   20217998.9374
 -16032978.33444 -12493217.28444  21972723.3694   21972722.6144
 -11398691.76844  -8882083.55444  21904335.9544   21904334.3794
 95  2 22  3 47 30.0000000  0  8G12G16G 6G20G 5G24G 9G 4
 -12494108.163 4  -9735655.568 4  21973966.904    21973965.681
  -3638106.31244  -2834887.31044  24082967.5744   24082968.5964
  -5381084.71544  -4193048.57144  24377525.7384   24377524.0024
  -7732504.03344  -6025325.72344  23206304.3194   23206304.1524
 -24318035.44144 -18949104.38044  20722060.2794   20722059.1664
 -22863132.17544 -17815411.42744  20218893.8974   20218893.3274
 -15968072.41444 -12442641.25244  21985074.5334   21985073.6194
 -11322197.18544  -8822477.39144  21918892.1124   21918890.6054
 95  2 22  3 48  0.0000000  0  8G12G16G 6G20G 5G24G 9G 4
 -12411090.400 4  -9670966.413 4  21989764.651    21989763.442
  -3732105.58344  -2908133.46244  24065080.3394   24065082.2274
  -5451593.37644  -4247990.36644  24364108.4484   24364108.0144
  -7828092.50744  -6099810.21144  23188114.5854   23188112.9984
 -24366587.42344 -18986937.08944  20712821.1784   20712820.1134
 -22857913.97344 -17811345.29144  20219886.9364   20219886.3384
 -15902795.17844 -12391775.88544  21997496.1174   21997495.9854
 -11245376.35344  -8762617.00344  21933510.4254   21933508.7174
 95  2 22  3 48 30.0000000  0  8G12G16G 6G20G 5G24G 9G 4
 -12327673.233 4  -9605966.036 4  22005638.308    22005637.345
  -3826093.18144  -2981370.54144  24047194.9244   24047194.6134
  -5522045.15744  -4302887.84744  24350701.6604   24350700.6104
  -7923564.91944  -6174204.27844  23169946.7514   23169946.1614
 -24414799.90644 -19024505.25844  20703646.7634   20703645.5694
 -22852179.32344 -17806876.72644  20220978.3144   20220977.7754
 -15837128.97444 -12340607.42744  22009992.0534   22009991.8644
 -11168230.18744  -8702503.10944  21948190.8334   21948189.3284
 95  2 22  3 49  0.0000000  0  8G12G16G 6G20G 5G24G 9G 4
 -12243874.619 4  -9540668.416 4  22021584.500    22021583.765
  -3920070.02244  -3054599.25044  24029311.1724   24029312.9224
  -5592464.87844  -4357760.35444  24337300.8684   24337299.2464
  -8018948.68744  -6248529.28244  23151795.7334   23151793.8894
 -24462689.50744 -19061821.83244  20694533.6784   20694532.4344
 -22845949.19544 -17802022.07744  20222163.8384   20222163.2794
 -15771085.11544 -12289144.69744  22022559.9864   22022559.2064
 -11090787.83944  -8642158.42744  21962927.7614   21962926.3424
 95  2 22  3 49 30.0000000  0  8G12G16G 6G20G 5G24G 9G 4
 -12159686.157 4  -9475067.036 4  22037604.934    22037604.351
  -4014027.09644  -3127812.55444  24011431.9804   24011432.1444
  -5662840.43944  -4412598.42644  24323908.8314   24323908.8404
  -8114228.44644  -6322773.21844  23133664.6004   23133664.8544
 -24510218.51444 -19098857.41944  20685489.2634   20685487.9164
 -22839231.78544 -17796787.72544  20223442.1004   20223441.5164
 -15704648.45944 -12237375.89044  22035202.7594   22035201.8394
 -11013058.25644  -8581589.92544  21977719.1714   21977717.4354
 95  2 22  3 50  0.0000000  0  8G12G16G 6G20G 5G24G 9G 4
 -12075123.900 4  -9409174.392 4  22053696.561    22053696.060
  -4107972.85044  -3201016.98144  23993555.0344   23993555.5124
  -5733185.12144  -4467412.46444  24310522.3734   24310522.0894
  -8209408.74744  -6396939.67044  23115552.1714   23115550.6254
 -24557373.88644 -19135601.86444  20676515.7624   20676514.2614
 -22832036.41244 -17791180.93544  20224811.3694   20224810.7724
 -15637825.22044 -12185305.85144  22047918.6984   22047917.2344
 -10935078.87344  -8520826.77344  21992558.0514   21992556.5434
 95  2 22  3 50 30.0000000  0  8G12G16G 6G20G 5G24G 9G 4
 -11990178.228 4  -9342982.981 4  22069861.220    22069860.682
  -4201902.30744  -3274208.74344  23975680.3714   23975680.7784
  -5803486.69444  -4522192.89444  24297144.5484   24297145.0014
  -8304472.80544  -6471015.53644  23097462.0234   23097462.0964
 -24604137.01944 -19172040.66944  20667617.1764   20667615.8554
 -22824334.92244 -17785179.76744  20226276.9254   20226276.3024
 -15570604.38044 -12132925.99844  22060710.1914   22060709.0154
 -10856851.59344  -8459870.45144  22007444.1574   22007442.8254
 95  2 22  3 51  0.0000000  0  8G12G16G 6G20G 5G24G 9G 4
 -11904836.853 4  -9276483.220 4  22086101.237    22086100.675
  -4295807.97744  -3347381.98944  23957810.3014   23957810.0744
  -5873718.12844  -4576918.66644  24283779.9034   24283779.8224
  -8399395.34044  -6544981.12744  23079398.4754   23079398.0594
 -24650479.70744 -19208151.85544  20658798.2894   20658797.1604
 -22816119.24644 -17778777.93644  20227840.3114   20227839.7294
 -15502993.86544 -12080242.50444  22073575.9674   22073574.7054
 -10778358.88244  -8398707.30444  22022380.8254   22022379.3304
 95  2 22  3 51 30.0000000  0  8G12G16G 6G20G 5G24G 9G 4
 -11819117.319 4  -9209688.784 4  22102413.323    22102412.675
  -4389705.28244  -3420548.69044  23939942.4844   23939943.0474
  -5943868.78544  -4631581.50644  24270430.5304   24270430.9504
  -8494175.44844  -6618835.73444  23061362.4484   23061362.3104
 -24696420.57844 -19243949.93744  20650055.9804   20650054.8674
 -22807399.72244 -17771983.49844  20229499.5474   20229498.9384
 -15435013.72344 -12027270.99144  22086512.2634   22086510.7894
 -10699595.11344  -8337332.95144  22037369.0804   22037367.5464
 95  2 22  3 52  0.0000000  0  8G12G16G 6G20G 5G24G 9G 4
 -11732998.163 4  -9142582.960 4  22118801.448    22118800.658
  -4483567.31844  -3493687.92344  23922081.3294   23922081.9364
  -6013904.99144  -4686155.17144  24257103.0704   24257103.4724
  -8588784.74344  -6692557.23944  23043358.7764   23043360.0794
 -24741957.19244 -19279433.01344  20641390.8444   20641389.4434
 -22798141.14844 -17764769.01744  20231261.5134   20231260.9054
 -15366649.22844 -11973999.97244  22099521.6744   22099521.0754
 -10620510.36444  -8275708.46744  22052418.5474   22052416.9394
 95  2 22  3 52 30.0000000  0  8G12G16G 6G20G 5G24G 9G 4
 -11646488.870 4  -9075173.136 4  22135263.770    22135262.892
  -4577389.64144  -3566796.21344  23904227.6304   23904227.9304
  -6083835.34344  -4740646.34544  24243795.5064   24243796.4844
  -8683230.38844  -6766151.23244  23025386.3904   23025388.0114
 -24787114.64344 -19314620.63344  20632797.5884   20632796.2274
 -22788359.70344 -17757147.10644  20233122.7644   20233122.1624
 -15297916.04744 -11920441.66244  22112601.0804   22112600.4614
 -10541087.90144  -8213820.83244  22067532.1774   22067530.3344
 95  2 22  3 53  0.0000000  0  8G12G16G 6G20G 5G24G 9G 4
 -11559614.270 4  -9007478.660 4  22151795.491    22151794.529
  -4671177.98944  -3639878.02044  23886380.5814   23886381.0864
  -6153690.76844  -4795079.13444  24230502.4574   24230502.9934
  -8777552.15944  -6839648.68544  23007437.7974   23007437.8784
 -24831921.70144 -19349535.22444  20624271.1374   20624269.9584
 -22778087.62044 -17749142.88144  20235077.3384   20235076.9854
 -15228843.84944 -11866619.17444  22125745.1124   22125744.9034
 -10461350.90744  -8151688.11244  22082705.5884   22082704.2944
 95  2 22  3 53 30.0000000  0  8G12G16G 6G20G 5G24G 9G 4
 -11472373.351 4  -8939498.742 4  22168396.864    22168395.892
  -4764924.98344  -3712927.61144  23868540.6124   23868542.9364
  -6223488.91644  -4849467.29744  24217220.5584   24217220.9534
  -8871763.35044  -6913059.99744  22989510.2974   22989510.4494
 -24876382.20444 -19384179.76944  20615810.5014   20615809.3484
 -22767318.92544 -17740751.68544  20237126.4984   20237126.1344
 -15159410.42944 -11812515.22544  22138957.8364   22138957.1524
 -10381309.97744  -8089318.55544  22097936.6514   22097935.2534
 95  2 22  3 54  0.0000000  0  8G12G16G 6G20G 5G24G 9G 4
 -11384776.338 4  -8871241.340 4  22185065.961    22185064.994
  -4858639.98544  -3785952.25244  23850707.2554   23850708.3514
  -6293262.11844  -4903835.99344  24203943.4514   24203941.3094
  -8965879.09744  -6986396.93344  22971601.0434   22971600.7364
 -24920501.29844 -19418558.28644  20607414.9424   20607413.6844
 -22756073.91244 -17731989.33344  20239266.4354   20239266.0404
 -15089618.46344 -11758131.89744  22152238.9034   22152237.9624
 -10301003.30644  -8026741.92744  22113218.4114   22113217.3154
 95  2 22  3 54 30.0000000  0  8G12G16G 6G20G 5G24G 9G 4
 -11296821.663 4  -8802705.245 4  22201803.135    22201802.096
  -4952312.91644  -3858944.15144  23832882.0464   23832883.5934
  -6363013.73944  -4958187.91644  24190670.1714   24190667.2604
  -9059905.88644  -7059664.54144  22953708.1734   22953707.2724
 -24964265.55844 -19452660.30544  20599086.9614   20599085.6904
 -22744354.69344 -17722857.47044  20241496.6274   20241496.0674
 -15019464.02944 -11703466.12744  22165588.9874   22165587.9344
 -10220449.43244  -7963972.66944  22128547.3174   22128545.8844
 95  2 22  3 55  0.0000000  0  8G12G16G 6G20G 5G24G 9G 4
 -11208514.665 4  -8733894.611 4  22218607.302    22218606.396
  -5045959.04044  -3931915.12544  23815061.9534   23815061.8904
  -6432743.52644  -5012522.79644  24177400.9574   24177400.0564
  -9153848.07044  -7132866.22044  22935831.2104   22935830.9524
 -25007666.74344 -19486479.40844  20590827.8414   20590826.6244
 -22732165.98744 -17713359.77144  20243815.9474   20243815.4104
 -14948956.13144 -11648524.93144  22179006.1964   22179004.6134
 -10139646.38944  -7901009.25544  22143923.7324   22143922.7194
 95  2 22  3 55 30.0000000  0  8G12G16G 6G20G 5G24G 9G 4
 -11119851.256 4  -8664806.259 4  22235479.391    22235478.632
  -5139567.90544  -4004857.06944  23797248.4924   23797247.5054
  -6502430.83744  -5066824.56544  24164139.7604   24164138.9064
  -9247670.01944  -7205974.21944  22917977.1024   22917977.5414
 -25050689.45844 -19520003.60244  20582641.0384   20582639.5534
 -22719496.39544 -17703487.35444  20246226.7474   20246226.2654
 -14878098.50744 -11593311.21944  22192489.6874   22192488.7364
 -10058577.94644  -7837839.04144  22159350.8354   22159349.4034
 95  2 22  3 56  0.0000000  0  8G12G16G 6G20G 5G24G 9G 4
 -11030828.385 4  -8595437.809 4  22252419.857    22252419.051
  -5233136.06544  -4077767.05744  23779442.8504   23779444.2874
  -6572056.94444  -5121078.68144  24150890.6864   24150890.2174
  -9341346.22244  -7278968.64544  22900150.7874   22900151.4064
 -25093331.24244 -19553230.96244  20574526.6084   20574525.2494
 -22706340.18344 -17693235.75344  20248730.3494   20248729.8424
 -14806900.87044 -11537832.56644  22206037.8804   22206037.6604
  -9977226.15144  -7774448.03844  22174831.6114   22174829.8864
 95  2 22  3 56 30.0000000  0  8G12G16G 6G20G 5G24G 9G 4
 -10941449.998 4  -8525792.330 4  22269428.021    22269427.002
  -5326652.04444  -4150636.82244  23761647.5694   23761646.0524
  -6641616.44044  -5175280.86144  24137654.1984   24137651.9224
  -9434861.01244  -7351837.29444  22882355.6374   22882355.6644
 -25135582.01844 -19586153.64144  20566486.4924   20566485.2214
 -22692684.03144 -17682594.59144  20251329.1254   20251328.4714
 -14735381.43344 -11482103.15244  22219647.5364   22219647.0074
  -9895570.68944  -7710820.41244  22190370.1374   22190368.2684
 95  2 22  3 57  0.0000000  0  8G12G16G 6G20G 5G24G 9G 4
 -10851712.966 4  -8455867.387 4  22286504.416    22286503.380
  -5420101.03944  -4223454.36344  23743865.0494   23743865.0954
  -6711101.99144  -5229425.41944  24124431.6464   24124430.6184
  -9528185.99444  -7424558.05744  22864596.7694   22864596.1904
 -25177431.25344 -19618763.43544  20558522.7774   20558521.5864
 -22678523.27344 -17671560.22944  20254023.6824   20254023.1474
 -14663530.10944 -11426115.12344  22233320.6944   22233320.7884
  -9813607.14344  -7646952.71844  22205967.1554   22205965.4244
 95  2 22  3 57 30.0000000  0  8G12G16G 6G20G 5G24G 9G 4
 -10761624.520 4  -8385668.615 4  22303647.645    22303646.783
  -5513476.89244  -4296214.74744  23726096.4294   23726095.7974
  -6780530.31244  -5283525.39344  24111219.6584   24111219.4674
  -9621318.90144  -7497129.14444  22846874.5554   22846874.0724
 -25218881.48244 -19651062.31444  20550635.0594   20550633.8544
 -22663860.82844 -17660134.94244  20256813.9604   20256813.3454
 -14591341.61844 -11369864.37044  22247058.0454   22247056.9884
  -9731369.86244  -7582871.72444  22221616.5214   22221614.8554
 95  2 22  3 58  0.0000000  0  8G12G16G 6G20G 5G24G 9G 4
 -10671206.472 4  -8315213.010 4  22320853.629    22320852.929
  -5606793.84344  -4368929.22244  23708338.9294   23708338.6594
  -6849933.34744  -5337605.67944  24098012.8524   24098010.8314
  -9714291.63844  -7569575.43244  22829182.1814   22829181.7904
 -25259933.42544 -19683050.84244  20542823.0974   20542821.8854
 -22648723.65244 -17648339.73244  20259694.4524   20259693.9084
 -14518831.75744 -11313363.19344  22260856.2014   22260855.3014
  -9648897.60244  -7518607.63244  22237310.4324   22237308.8474
 95  2 22  3 58 30.0000000  0  8G12G16G 6G20G 5G24G 9G 4
 -10580458.192 4  -8244500.077 4  22338122.509    22338121.586
  -5700030.77844  -4441581.37144  23690595.9734   23690597.7084
  -6919307.56044  -5391663.49144  24084811.3224   24084812.3174
  -9807112.97544  -7641903.72444  22811518.6054   22811518.3324
 -25300564.72144 -19714711.59244  20535091.1454   20535089.8464
 -22633114.13744 -17636176.46644  20262664.8514   20262664.2454
 -14446000.76844 -11256611.79144  22274715.6614   22274714.6504
  -9566204.57544  -7454171.51144  22253046.3904   22253045.1734
 95  2 22  3 59  0.0000000  0  8G12G16G 6G20G 5G24G 9G 4
 -10489384.096 4  -8173533.259 4  22355453.492    22355452.270
  -5793196.55744  -4514178.11544  23672867.0514   23672868.6924
  -6988649.53044  -5445696.20444  24071615.7704   24071614.7994
  -9899800.81644  -7714128.00844  22793880.8854   22793879.4634
 -25340784.01944 -19746051.30544  20527437.8104   20527436.2654
 -22617046.74744 -17623656.41244  20265722.1634   20265721.6434
 -14372837.01244 -11199601.08944  22288638.0984   22288636.9924
  -9483311.12544  -7389579.21044  22268820.2444   22268818.8854
 95  2 22  3 59 30.0000000  0  8G12G16G 6G20G 5G24G 9G 4
 -10397975.110 4  -8102305.487 4  22372848.155    22372846.739
  -5886282.89244  -4586712.91544  23655153.7594   23655152.4744
  -7057951.69544  -5499697.86244  24058427.9764   24058426.7094
  -9992357.75044  -7786250.28644  22776268.1184   22776266.8904
 -25380579.06744 -19777060.43344  20519865.0654   20519863.8254
 -22600505.21944 -17610766.90044  20268869.8874   20268869.3554
 -14299338.18444 -11142329.28744  22302624.1714   22302622.9654
  -9400202.61744  -7324819.33344  22284635.1344   22284633.3964
 95  2 22  4  0  0.0000000  0  8G12G16G 6G20G 5G24G 9G 4
 -10306233.131 4  -8030818.241 4  22390306.041    22390304.781
  -5979284.54544  -4659181.71044  23637456.3604   23637455.2354
  -7127200.50544  -5553657.94344  24045250.6064   24045249.0874
 -10084779.09944  -7858266.89844  22758681.1834   22758680.3614
 -25419947.49044 -19807737.12544  20512373.3444   20512372.2944
 -22583491.39544 -17597509.36944  20272107.5284   20272107.0804
 -14225515.77344 -11084805.33744  22316672.0414   22316671.3564
  -9316860.43544  -7259877.36944  22300494.4944   22300493.4654
 95  2 22  4  0 30.0000000  0  8G12G16G 6G20G 5G24G 9G 4
 -10214149.882 4  -7959065.073 4  22407828.800    22407827.987
  -6072207.50944  -4731589.19544  23619773.2174   23619773.3914
  -7196378.47744  -5607562.83244  24032086.7024   24032084.7054
 -10177049.22944  -7930165.68944  22741122.7314   22741121.6724
 -25458909.57544 -19838097.19444  20504959.1534   20504957.9874
 -22565990.72744 -17583872.47844  20275437.8094   20275437.2874
 -14151365.18744 -11027025.67844  22330782.7294   22330781.6344
  -9233254.37044  -7194729.78144  22316404.5424   22316403.1524
 95  2 22  4  1  0.0000000  0  8G12G16G 6G20G 5G24G 9G 4
 -10121732.675 4  -7887051.690 4  22425415.059    22425414.561
  -6165062.39744  -4803943.64544  23602103.2834   23602102.9654
  -7265497.07744  -5661421.46144  24018933.8254   24018933.7264
 -10269160.33844  -8001940.56844  22723594.5164   22723593.7844
 -25497480.23844 -19868152.25644  20497619.4784   20497618.3584
 -22548005.94044 -17569858.35544  20278860.3974   20278859.7654
 -14076901.30844 -10969001.89444  22344952.8954   22344952.2924
  -9149382.09644  -7129374.76244  22332365.1064   22332363.6684
 95  2 22  4  1 30.0000000  0  8G12G16G 6G20G 5G24G 9G 4
 -10028988.865 4  -7814783.811 4  22443063.544    22443063.171
  -6257852.89444  -4876247.92844  23584445.8924   23584445.3314
  -7334569.44644  -5715244.07144  24005789.4714   24005788.2454
 -10361103.49444  -8073584.56944  22706098.3354   22706097.7794
 -25535649.54044 -19897894.56944  20490356.1104   20490354.8884
 -22529541.95044 -17555470.82644  20282373.9454   20282373.2074
 -14002151.06244 -10910754.97344  22359177.6164   22359176.5844
  -9065241.06544  -7063810.33544  22348376.7084   22348374.6424
 95  2 22  4  2  0.0000000  0  8G12G16G 6G20G 5G24G 9G 4
  -9935918.713 4  -7742261.637 4  22460774.204    22460773.762
  -6350582.57044  -4948504.80844  23566800.2474   23566798.4124
  -7403584.57244  -5769022.06444  23992656.2934   23992655.8444
 -10452862.71144  -8145085.24044  22688636.9164   22688636.3264
 -25573420.87444 -19927326.77744  20483168.3844   20483167.2554
 -22510607.10044 -17540716.39144  20285977.1204   20285976.3324
 -13927121.84144 -10852290.66344  22373454.8064   22373453.8184
  -8980838.24744  -6998041.91244  22364438.1634   22364436.5324
 95  2 22  4  2 30.0000000  0  8G12G16G 6G20G 5G24G 9G 4
  -9842510.997 4  -7669476.414 4  22478549.238    22478548.534
  -6443235.79344  -5020702.11144  23549169.0994   23549169.6314
  -7472535.36844  -5822749.93644  23979535.1954   23979534.4004
 -10544424.43644  -8216432.03144  22671213.1044   22671212.5844
 -25610782.56344 -19956439.78044  20476058.6884   20476057.6494
 -22491191.32344 -17525587.21044  20289671.7114   20289671.0234
 -13851797.54544 -10793596.42344  22387788.3064   22387787.7804
  -8896183.84444  -6932077.44844  22380547.1374   22380545.3914
 95  2 22  4  3  0.0000000  0  8G12G16G 6G20G 5G24G 9G 4
  -9748783.126 4  -7596441.715 4  22496385.327    22496384.248
  -6535802.24244  -5092831.79444  23531554.1024   23531554.6004
  -7541442.30044  -5876443.63944  23966422.2704   23966421.8524
 -10635800.71544  -8287634.31544  22653824.5814   22653824.2054
 -25647724.65644 -19985225.82844  20469028.9024   20469027.6474
 -22471319.05644 -17510102.32144  20293453.3864   20293452.7524
 -13776187.43944 -10734679.46844  22402176.6574   22402176.5174
  -8811317.05144  -6865947.48544  22396696.4334   22396695.3584
 95  2 22  4  3 30.0000000  0  8G12G16G 6G20G 5G24G 9G 4
  -9654750.642 4  -7523169.658 4  22514279.254    22514278.170
  -6628296.28044  -5164905.04944  23513952.8814   23513954.5434
  -7610314.27444  -5930110.07844  23953316.1004   23953315.9974
 -10727014.60544  -8358710.05844  22636467.3004   22636467.4934
 -25684263.09844 -20013697.34044  20462075.9944   20462074.5764
 -22451009.60644 -17494276.77244  20297318.3054   20297317.4004
 -13700290.70644 -10675539.16044  22416619.1774   22416618.5574
  -8726258.09244  -6799667.79044  22412882.5264   22412881.5804
 95  2 22  4  4  0.0000000  0  8G12G16G 6G20G 5G24G 9G 4
  -9560391.453 4  -7449643.027 4  22532235.321    22532234.289
  -6720680.99044  -5236893.14444  23496372.6604   23496374.3564
  -7679118.99844  -5983724.13944  23940223.1884   23940221.7914
 -10818042.55744  -8429640.91344  22619145.5244   22619144.4264
 -25720391.42544 -20041849.28344  20455201.0064   20455199.6674
 -22430242.85744 -17478094.88644  20301269.9474   20301269.3294
 -13624068.18544 -10616144.99844  22431124.0834   22431123.8034
  -8640986.28444  -6733222.22344  22429109.3404   22429107.5804
 95  2 22  4  4 30.0000000  0  8G12G16G 6G20G 5G24G 9G 4
  -9465711.328 4  -7375866.319 4  22550252.281    22550251.267
  -6812946.00444  -5308787.94744  23478815.1184   23478815.6544
  -7747865.53344  -6037292.87344  23927141.2474   23927138.9724
 -10908890.82044  -8500431.75544  22601857.6794   22601856.9874
 -25756108.66344 -20069680.89644  20448404.2554   20448403.1324
 -22409015.97144 -17461554.45344  20305309.3104   20305308.5534
 -13547519.79444 -10556496.91444  22445691.1934   22445689.5834
  -8555494.63144  -6666605.35244  22445378.1384   22445376.9294
 95  2 22  4  5  0.0000000  0  8G12G16G 6G20G 5G24G 9G 4
  -9370724.003 4  -7301850.245 4  22568327.607    22568326.488
  -6905103.86144  -5380599.27144  23461278.1664   23461278.2504
  -7816556.34444  -6090818.15644  23914069.9994   23914068.2534
 -10999569.62044  -8571090.54144  22584601.7944   22584601.0254
 -25791421.20244 -20097197.16044  20441684.3204   20441683.2904
 -22387342.57544 -17444666.09044  20309433.6834   20309432.8564
 -13470662.45144 -10496608.08144  22460316.7404   22460315.3594
  -8469777.59744  -6599812.85644  22461689.6524   22461688.2194
 95  2 22  4  5 30.0000000  0  8G12G16G 6G20G 5G24G 9G 4
  -9275434.228 4  -7227598.493 4  22586460.482    22586459.288
  -6997162.23344  -5452333.03744  23443759.8994   23443760.7944
  -7885196.22744  -6144303.72644  23901008.3044   23901007.2704
 -11090075.28944  -8641614.42244  22567378.9264   22567378.6964
 -25826334.30044 -20124402.17044  20435040.5974   20435039.3824
 -22365219.12844 -17427427.03644  20313643.4994   20313642.9394
 -13393501.12944 -10436482.39544  22474999.9844   22474998.6334
  -8383826.60344  -6532838.05244  22478045.5844   22478044.2694
 95  2 22  4  6  0.0000000  0  8G12G16G 6G20G 5G24G 9G 4
  -9179841.719 4  -7153110.843 4  22604651.190    22604649.850
  -7089111.22644  -5523981.61444  23426262.5804   23426263.6224
  -7953790.92844  -6197754.14144  23887954.9904   23887953.8944
 -11180388.99444  -8711988.73544  22550192.9524   22550193.2304
 -25860829.48344 -20151281.53344  20428476.4934   20428475.0084
 -22342640.25344 -17409833.10044  20317940.0924   20317939.5004
 -13316046.12144 -10376127.86344  22489739.0114   22489738.1324
  -8297637.25344  -6465677.51844  22494446.8544   22494445.4824
 95  2 22  4  6 30.0000000  0  8G12G16G 6G20G 5G24G 9G 4
  -9083949.131 4  -7078389.358 4  22622899.185    22622897.720
  -7180953.81944  -5595547.25244  23408785.7434   23408785.8614
  -8022339.98944  -6251168.98144  23874910.6034   23874908.8534
 -11270508.49644  -8782211.71144  22533043.7894   22533043.7984
 -25894883.15844 -20177816.86644  20421996.2814   20421994.9674
 -22319601.79044 -17391881.04344  20322324.2454   20322323.5714
 -13238300.30644 -10315546.72544  22504533.2884   22504532.0964
  -8211216.94744  -6398337.01844  22510892.0194   22510890.4844
 95  2 22  4  7  0.0000000  0  8G12G16G 6G20G 5G24G 9G 4
  -8987764.616 4  -7003440.395 4  22641202.659    22641201.183
  -7272687.85944  -5667028.31044  23391329.4314   23391329.5154
  -8090852.03544  -6304554.95444  23861872.9114   23861872.9074
 -11360439.64644  -8852287.91844  22515930.3864   22515930.7334
 -25928489.56444 -20204003.67944  20415601.0994   20415599.8154
 -22296119.76344 -17373583.35244  20326792.7904   20326792.0504
 -13160262.46144 -10254738.03544  22519383.1874   22519381.7524
  -8124583.72744  -6330830.61444  22527377.7994   22527376.8994
 95  2 22  4  7 30.0000000  0  8G12G16G 6G20G 5G24G 9G 4
  -8891299.770 4  -6928272.994 4  22659559.278    22659558.006
  -7364310.05344  -5738422.20644  23373894.2164   23373894.5774
  -8159342.90444  -6357924.46244  23848839.2794   23848839.6414
 -11450187.51044  -8922221.30544  22498851.9344   22498851.5224
 -25961656.07744 -20229847.71944  20409289.7474   20409288.6814
 -22272195.44044 -17354941.01644  20331345.3124   20331344.7334
 -13081949.29744 -10193714.81244  22534286.1144   22534285.2904
  -8037757.50144  -6263173.81744  22543900.3644   22543899.1224
 95  2 22  4  8  0.0000000  0  8G12G16G 6G20G 5G24G 9G 4
  -8794558.025 4  -6852889.828 4  22677968.501    22677967.425
  -7455823.66444  -5809731.49944  23356479.8944   23356478.9744
  -8227790.06444  -6411259.90344  23835814.2584   23835814.1314
 -11539742.96344  -8992004.77044  22481810.4154   22481810.5614
 -25994384.14744 -20255350.11344  20403061.9344   20403060.7534
 -22247835.46344 -17335959.20644  20335980.8314   20335980.2934
 -13003371.40844 -10132485.30644  22549239.0794   22549238.6684
  -7950743.94644  -6195371.05544  22560458.2884   22560456.3134
 95  2 22  4  8 30.0000000  0  8G12G16G 6G20G 5G24G 9G 4
  -8697518.431 4  -6777274.573 4  22696434.320    22696433.419
  -7547196.72644  -5880931.26544  23339091.9084   23339091.9634
  -8296161.56744  -6464536.38244  23822803.8754   23822802.9534
 -11629081.01544  -9061618.82044  22464809.9454   22464808.7454
 -26026659.90444 -20280500.05944  20396919.8834   20396918.6454
 -22223015.01044 -17316618.58744  20340704.0504   20340703.4394
 -12924514.05144 -10071038.03444  22564244.9704   22564244.7964
  -7863524.51344  -6127407.85744  22577055.4784   22577054.0694
 95  2 22  4  9  0.0000000  0  8G12G16G 6G20G 5G24G 9G 4
  -8600186.325 4  -6701431.387 4  22714955.880    22714955.020
  -7638426.16544  -5952019.12144  23321731.3364   23321731.3864
  -8364476.38744  -6517768.68444  23809804.1364   23809805.4954
 -11718200.96844  -9131062.93144  22447850.9494   22447850.1064
 -26058496.29844 -20305307.64044  20390861.6604   20390860.5144
 -22197734.57244 -17296919.54144  20345514.7294   20345514.1484
 -12845390.82644 -10009383.58944  22579301.1284   22579300.8864
  -7776100.18844  -6059285.01244  22593691.8174   22593690.2384
 95  2 22  4  9 30.0000000  0  8G12G16G 6G20G 5G24G 9G 4
  -8502575.886 4  -6625371.316 4  22733530.522    22733529.691
  -7729538.32444  -6023015.59844  23304393.2214   23304393.6774
  -8432742.41944  -6570962.97844  23796813.7064   23796814.3354
 -11807110.97744  -9200343.44744  22430931.8164   22430930.8994
 -26089908.98144 -20329785.05644  20384884.0134   20384882.6094
 -22171990.27144 -17276859.04244  20350413.5974   20350413.1594
 -12766023.12844  -9947538.64344  22594404.3434   22594404.4054
  -7688481.31344  -5991010.57044  22610365.1474   22610362.5984
 95  2 22  4 10  0.0000000  0  8G12G16G 6G20G 5G24G 9G 4
  -8404679.745 4  -6549088.619 4  22752159.624    22752158.823
  -7820524.79344  -6093914.12344  23287079.1444   23287079.3344
  -8500952.85044  -6624113.95044  23783833.5454   23783833.9704
 -11895801.84044  -9269453.20444  22414054.6384   22414053.5274
 -26120877.19444 -20353916.12944  20378991.0104   20378989.9444
 -22145781.75944 -17256436.81944  20355400.8924   20355400.5524
 -12686395.02844  -9885490.79944  22609557.2544   22609556.9214
  -7600660.07044  -5922578.43844  22627076.9524   22627074.0004
 95  2 22  4 10 30.0000000  0  8G12G16G 6G20G 5G24G 9G 4
  -8306505.671 4  -6472589.353 4  22770841.659    22770840.701
  -7911374.12544  -6164705.80144  23269791.0124   23269792.0874
  -8569139.40344  -6677246.30644  23770857.9854   23770857.5724
 -11984295.65544  -9338409.40944  22397214.8634   22397214.4294
 -26151406.23344 -20377704.98744  20373181.4814   20373180.5404
 -22119099.80044 -17235645.67744  20360478.2774   20360477.7094
 -12606511.54944  -9823243.95744  22624758.5954   22624757.8424
  -7512652.92844  -5854001.44844  22643824.0904   22643821.8104
 95  2 22  4 11  0.0000000  0  8G12G16G 6G20G 5G24G 9G 4
  -8208055.435 4  -6395874.899 4  22789576.183    22789575.104
  -8002086.75844  -6235390.94844  23252528.8734   23252529.9374
  -8637295.16044  -6730354.68444  23757888.3574   23757889.4834
 -12072606.44244  -9407222.99344  22380409.7204   22380409.4624
 -26181493.16244 -20401149.34444  20367456.0734   20367455.2594
 -22091948.88744 -17214489.12244  20365644.8474   20365644.2294
 -12526367.80644  -9760794.31644  22640009.5364   22640008.8004
  -7424459.65644  -5785279.41944  22660606.5584   22660604.2414
 95  2 22  4 11 30.0000000  0  8G12G16G 6G20G 5G24G 9G 4
  -8109323.528 4  -6318940.960 4  22808364.281    22808363.232
  -8092649.68544  -6305959.46644  23235295.3734   23235295.8244
  -8705391.47744  -6783416.72044  23744930.1544   23744929.7334
 -12160721.44144  -9475884.02444  22363641.6694   22363641.5174
 -26211124.22444 -20424238.48244  20361817.4584   20361816.6034
 -22064332.38344 -17192969.76944  20370900.1394   20370899.5594
 -12445964.73644  -9698142.59144  22655309.9904   22655308.6754
  -7336080.71344  -5716412.71244  22677424.7094   22677423.4844
 95  2 22  4 12  0.0000000  0  8G12G16G 6G20G 5G24G 9G 4
  -8010310.194 4  -6241787.726 4  22827205.818    22827204.957
  -8183042.84344  -6376395.70044  23218094.5184   23218094.6244
  -8773429.34344  -6836433.23644  23731983.0344   23731983.1414
 -12248626.18044  -9544381.21544  22346913.9104   22346913.4124
 -26240297.80644 -20446971.14344  20356266.0324   20356264.8024
 -22036261.81844 -17171096.59744  20376241.9374   20376241.4164
 -12365312.31044  -9635296.55444  22670657.6134   22670656.7804
  -7247511.06644  -5647397.40244  22694278.8404   22694277.6504
 95  2 22  4 12 30.0000000  0  8G12G16G 6G20G 5G24G 9G 4
  -7911010.397 4  -6164411.278 4  22846101.839    22846101.239
  -8273267.72344  -6446700.78744  23200925.1564   23200924.7244
  -8841398.83544  -6889396.46344  23719048.6774   23719047.2414
 -12336301.07744  -9612699.31344  22330229.8964   22330229.4874
 -26269019.40944 -20469351.61444  20350800.4214   20350799.1644
 -22007733.80644 -17148866.97644  20381670.7304   20381670.0734
 -12284412.25144  -9572257.55344  22686052.1334   22686051.6504
  -7158737.97344  -5578223.56444  22711171.7244   22711170.7404
 95  2 22  4 13  0.0000000  0  8G12G16G 6G20G 5G24G 9G 4
  -7811432.770 4  -6086818.341 4  22865050.758    22865050.309
  -8363343.10344  -6516889.35244  23183784.0484   23183783.8204
  -8909298.60144  -6942305.35144  23706127.6464   23706127.6524
 -12423735.46744  -9680830.00044  22313591.8094   22313591.3944
 -26297284.53544 -20491376.38944  20345421.7564   20345420.6014
 -21978781.15044 -17126306.46144  20387180.1844   20387179.3764
 -12203267.47644  -9509027.87544  22701493.4484   22701493.6374
  -7069752.42344  -5508884.18144  22728105.1194   22728103.8834
 95  2 22  4 13 30.0000000  0  8G12G16G 6G20G 5G24G 9G 4
  -7711584.499 4  -6009014.513 4  22884051.242    22884050.808
  -8453281.83944  -6586971.48644  23166669.1754   23166670.4114
  -8977142.58344  -6995170.77344  23693217.2514   23693216.8544
 -12510907.54644  -9748756.28644  22297003.6224   22297003.4284
 -26325086.16344 -20513039.99444  20340131.3484   20340130.1924
 -21949415.56544 -17103424.18644  20392768.2504   20392767.3654
 -12121887.53244  -9445614.94644  22716979.9434   22716979.6164
  -6980565.24644  -5439387.67544  22745076.7774   22745076.1774
 95  2 22  4 14  0.0000000  0  8G12G16G 6G20G 5G24G 9G 4
  -7611480.948 4  -5931011.762 4  22903100.398    22903099.832
  -8543093.79544  -6656954.82344  23149578.4984   23149579.4664
  -9044946.63144  -7048005.09844  23680314.6134   23680314.2724
 -12597832.76344  -9816490.21144  22280462.3954   22280461.8814
 -26352442.84744 -20534356.89644  20334925.6124   20334924.4764
 -21919649.95544 -17080230.19944  20398432.5484   20398431.5874
 -12040270.06344  -9382016.92944  22732511.3174   22732510.8324
  -6891184.95144  -5369740.69144  22762085.2424   22762084.6124
 95  2 22  4 14 30.0000000  0  8G12G16G 6G20G 5G24G 9G 4
  -7511122.722 4  -5852810.565 4  22922197.982    22922197.302
  -8632765.19244  -6726828.64144  23132514.8394   23132515.4184
  -9112707.86544  -7100806.02144  23667420.1314   23667418.3664
 -12684520.76544  -9884039.30044  22263966.2894   22263965.5504
 -26379346.55844 -20555320.83244  20329806.0134   20329804.5854
 -21889480.46844 -17056721.50344  20404173.6414   20404172.8764
 -11958399.49044  -9318221.68744  22748090.5864   22748089.6154
  -6801617.79044  -5299948.09744  22779129.4254   22779128.3994
 95  2 22  4 15  0.0000000  0  8G12G16G 6G20G 5G24G 9G 4
  -7410507.316 4  -5774408.964 4  22941344.569    22941343.893
  -8722264.13744  -6796568.07444  23115484.0274   23115485.0464
  -9180413.48444  -7153563.63244  23654536.1834   23654536.4864
 -12770971.62444  -9951403.59744  22247515.2194   22247514.8364
 -26405774.58244 -20575914.10344  20324776.8904   20324775.3494
 -21858900.25444 -17032892.76044  20409992.8094   20409992.1034
 -11876268.55644  -9254223.57044  22763719.2624   22763717.7364
  -6711871.71044  -5230016.08544  22796207.6374   22796206.9084
 95  2 22  4 15 30.0000000  0  8G12G16G 6G20G 5G24G 9G 4
  -7309650.186 4  -5695819.011 4  22960537.073    22960536.542
  -8811580.83844  -6866165.48444  23098487.6484   23098488.0564
  -9248074.54844  -7206286.53144  23641660.9054   23641661.2324
 -12857200.88144 -10018595.22244  22231106.2184   22231105.7354
 -26431749.47644 -20596154.28544  20319834.1424   20319832.6444
 -21827907.43744 -17008742.50944  20415890.5414   20415889.9284
 -11793898.78444  -9190039.35044  22779393.6714   22779391.9234
  -6621980.34844  -5159970.87844  22813313.4154   22813312.6174
 95  2 22  4 16  0.0000000  0  8G12G16G 6G20G 5G24G 9G 4
  -7208577.918 4  -5617061.418 4  22979770.451    22979769.973
  -8900711.11244  -6935617.64044  23081526.5314   23081526.8624
  -9315715.79544  -7258993.97844  23628789.0634   23628788.4994
 -12943243.03644 -10085641.04944  22214733.0964   22214732.9234
 -26457298.18944 -20616062.37844  20314972.4024   20314970.8484
 -21796514.77544 -16984280.69344  20421864.4034   20421863.7744
 -11711315.61944  -9125688.84444  22795108.9954   22795107.5154
  -6531968.98644  -5089832.16244  22830441.9804   22830440.9364
 95  2 22  4 16 30.0000000  0  8G12G16G 6G20G 5G24G 9G 4
  -7107254.457 4  -5538108.090 4  22999051.673    22999050.923
  -8989615.35844  -7004893.64044  23064608.7604   23064609.3274
  -9383302.12044  -7311658.63744  23615927.7874   23615928.0594
 -13029047.64644 -10152501.77444  22198405.0154   22198404.4434
 -26482367.11744 -20635596.60944  20310201.8874   20310200.4694
 -21764680.48344 -16959474.74844  20427922.2964   20427921.6714
 -11628501.98844  -9061158.75744  22810868.1034   22810867.1804
  -6441806.05544  -5019575.34244  22847599.3824   22847598.3714
 95  2 22  4 17  0.0000000  0  8G12G16G 6G20G 5G24G 9G 4
  -7005690.317 4  -5458967.219 4  23018378.812    23018377.764
  -9078306.04644  -7074003.26244  23047731.4784   23047731.0534
  -9450834.79144  -7364281.46544  23603076.8984   23603075.8784
 -13114609.41344 -10219173.27844  22182122.9574   22182122.3814
 -26506965.14244 -20654763.90444  20305521.1674   20305519.8044
 -21732410.71444 -16934329.47044  20434062.9274   20434062.3174
 -11545481.74844  -8996467.67944  22826666.4764   22826666.2564
  -6351503.88844  -4949210.02544  22864783.1094   22864782.1094
 95  2 22  4 17 30.0000000  0  8G12G16G 6G20G 5G24G 9G 4
  -6903898.984 4  -5379649.308 4  23037749.142    23037747.962
  -9166809.33144  -7142966.84144  23030889.6824   23030890.4484
  -9518336.03944  -7416879.82244  23590232.0814   23590231.2844
 -13199934.60444 -10285660.42544  22165886.0154   22165885.7894
 -26531114.45544 -20673581.55344  20300925.4534   20300924.3754
 -21699715.39444 -16908852.59444  20440284.6294   20440283.9234
 -11462266.16944  -8931624.38944  22842501.8764   22842502.0914
  -6261070.60044  -4878742.52944  22881992.0954   22881990.7224
 95  2 22  4 18  0.0000000  0  8G12G16G 6G20G 5G24G 9G 4
  -6801860.791 4  -5300139.036 4  23057166.502    23057165.411
  -9255119.74044  -7211780.13444  23014084.7634   23014085.5404
  -9585784.03744  -7469436.69844  23577397.2024   23577396.8434
 -13284988.69744 -10351936.32944  22149700.7524   22149700.4144
 -26554786.18144 -20692027.05844  20296420.8474   20296419.5494
 -21666582.66144 -16883034.87944  20446589.6754   20446588.8604
 -11378830.35444  -8866609.48644  22858378.7064   22858378.6014
  -6170467.59844  -4808142.79244  22899233.3534   22899232.3564
 95  2 22  4 18 30.0000000  0  8G12G16G 6G20G 5G24G 9G 4
  -6699583.017 4  -5220442.081 4  23076629.336    23076628.595
  -9343263.88644  -7280463.85644  22997311.6214   22997312.8134
  -9653176.43144  -7521950.22844  23564572.8404   23564573.2244
 -13369779.24244 -10418006.87144  22133565.7824   22133565.5954
 -26577989.23044 -20710107.35944  20292005.4744   20292004.2034
 -21633028.92744 -16856889.10944  20452974.7124   20452974.0904
 -11295177.11544  -8801425.15344  22874297.2764   22874297.2614
  -6079693.34044  -4737409.60644  22916507.2124   22916505.9804
 95  2 22  4 19  0.0000000  0  8G12G16G 6G20G 5G24G 9G 4
  -6597073.606 4  -5140564.636 4  23096136.142    23096135.696
  -9431245.37544  -7349020.84444  22980569.2234   22980569.5354
  -9720520.07044  -7574425.77644  23551757.6924   23551756.4724
 -13454317.75244 -10483881.02344  22117478.7374   22117478.3664
 -26600742.10144 -20727836.86944  20287675.8254   20287674.6234
 -21599067.78644 -16830425.88044  20459437.1054   20459436.5294
 -11211294.90944  -8736062.40444  22890259.7394   22890258.9544
  -5988747.73444  -4666542.90244  22933813.8234   22933811.4824
 95  2 22  4 19 30.0000000  0  8G12G16G 6G20G 5G24G 9G 4
  -6494340.040 4  -5060512.532 4  23115685.554    23115685.287
  -9519076.51644  -7417460.67344  22963855.4594   22963855.8484
  -9787824.85144  -7626871.05744  23538949.8134   23538948.2224
 -13538608.74244 -10549562.30344  22101438.9514   22101437.6004
 -26623050.67844 -20745220.17944  20283430.6294   20283429.4044
 -21564712.57044 -16803655.58144  20465974.6784   20465974.1504
 -11127181.07244  -8670519.16144  22906266.3584   22906265.4464
  -5897635.99844  -4595546.74644  22951151.9414   22951150.8034
 95  2 22  4 20  0.0000000  0  8G12G16G 6G20G 5G24G 9G 4
  -6391383.291 4  -4980286.518 4  23135277.465    23135277.107
  -9606744.18144  -7485773.13144  22947172.8984   22947173.3224
  -9855083.31744  -7679280.22744  23526150.9444   23526150.8254
 -13622655.55344 -10615053.31344  22085445.3544   22085444.7304
 -26644902.77944 -20762247.79344  20279272.3584   20279271.1954
 -21529958.31144 -16776574.34044  20472588.3824   20472587.7124
 -11042841.75344  -8604800.23444  22922316.0574   22922314.4084
  -5806347.04244  -4524412.50144  22968523.5984   22968522.5414
 95  2 22  4 20 30.0000000  0  8G12G16G 6G20G 5G24G 9G 4
  -6288212.120 4  -4899893.419 4  23154910.277    23154909.673
  -9694236.09744  -7553948.62944  22930523.7454   22930523.4434
  -9922311.03444  -7731665.44444  23513357.8994   23513357.3014
 -13706475.76044 -10680367.75344  22069494.7654   22069494.2634
 -26666294.52544 -20778916.69044  20275201.6434   20275200.2854
 -21494802.71244 -16749180.36644  20479278.2174   20479277.6174
 -10958283.81844  -8538910.95944  22938407.1244   22938406.0584
  -5714898.54644  -4453153.94044  22985925.6854   22985923.6814
 95  2 22  4 21  0.0000000  0  7G12G16G 6G 5G24G 9G 4
  -6184824.321 4  -4819331.509 4  23174584.401    23174583.581
  -9781526.73744  -7621967.28344  22913912.8844   22913913.4494
  -9989513.46344  -7784030.96644  23500569.8654   23500567.8994
 -26687215.66744 -20795218.87844  20271220.5764   20271219.0974
 -21459242.24544 -16721470.91044  20486045.1504   20486044.6044
 -10873512.91844  -8472855.73544  22954538.1424   22954537.2004
  -5623294.40544  -4381774.09744  23003357.4744   23003355.5524
 95  2 22  4 21 30.0000000  0  7G12G16G 6G 5G24G 9G 4
  -6081227.062 4  -4738606.384 4  23194298.446    23194297.652
  -9868618.98344  -7689831.36444  22897339.6904   22897339.9064
 -10056691.93344  -7836377.81044  23487786.3584   23487784.3924
 -26707657.03044 -20811147.21044  20267330.6104   20267329.3464
 -21423277.84744 -16693446.70244  20492888.9354   20492888.3144
 -10788555.99244  -8406655.55444  22970704.4904   22970704.4184
  -5531542.43244  -4310279.06844  23020817.2604   23020814.8924
 95  2 22  4 22  0.0000000  0  7G12G16G 6G 5G24G 9G 4
  -5977416.734 4  -4657715.231 4  23214053.043    23214052.350
  -9955495.57344  -7757527.40944  22880807.5294   22880807.2134
 -10123838.25644  -7888699.59544  23475008.5814   23475006.5764
 -26727602.19844 -20826688.90144  20263535.2024   20263534.0354
 -21386906.02044 -16665105.02044  20499810.3824   20499809.7354
 -10703424.19444  -8340319.10544  22986904.1114   22986904.0054
  -5439644.69944  -4238670.44144  23038304.8884   23038303.1784
 95  2 22  4 22 30.0000000  0  8G12G16G 6G20G 5G24G 9G 4
  -5873412.041 4  -4576672.627 4  23233844.676    23233843.864
 -10042171.02544  -7825066.72844  22864313.6824   22864314.1904
 -10190958.92544  -7941001.38644  23462235.5464   23462234.9844
        -1.18954        -1.11254  22006162.6794   22006162.5774
 -26747069.00344 -20841857.84344  20259830.7574   20259829.7664
 -21350153.39744 -16636466.61144  20506804.1854   20506803.3954
 -10618144.30744  -8273867.25144  23003132.3474   23003131.9424
  -5347635.05744  -4166974.62044  23055813.6784   23055811.5344
 95  2 22  4 23  0.0000000  0  8G12G16G 6G20G 5G24G 9G 4
  -5769208.398 4  -4495474.997 4  23253674.000    23253672.932
 -10128636.46944  -7892442.37644  22847860.0004   22847860.3824
 -10258031.01944  -7993265.33944  23449471.9144   23449470.7164
    -82554.42044    -64328.61344  21990453.4264   21990452.7624
 -26766053.69144 -20856651.11244  20256218.0944   20256216.8694
 -21313013.16044 -16607526.16444  20513871.7014   20513871.0454
 -10532723.60144  -8207305.67044  23019387.3924   23019387.0864
  -5255507.09644  -4095186.59144  23073344.8044   23073343.9574
 95  2 22  4 23 30.0000000  0  8G12G16G 6G20G 5G24G 9G 4
  -5664813.672 4  -4414128.476 4  23273539.596    23273538.120
 -10214888.25544  -7959651.55144  22831447.0664   22831447.6504
 -10325056.57544  -8045493.02444  23436717.4124   23436716.7124
   -164834.79144   -128443.17944  21974795.9894   21974795.0974
 -26784552.13744 -20871065.49144  20252697.8794   20252696.8214
 -21275479.53644 -16578279.18144  20521013.9114   20521013.2494
 -10447170.42144  -8140640.87544  23035667.8314   23035667.3234
  -5163277.20344  -4023319.14644  23090895.4624   23090893.8124
 95  2 22  4 24  0.0000000  0  8G12G16G 6G20G 5G24G 9G 4
  -5560186.137 4  -4332600.553 4  23293449.435    23293447.799
 -10300858.21844  -8026641.12544  22815087.4604   22815087.1304
 -10391998.49144  -8097655.51944  23423979.0064   23423979.5954
   -246794.50044   -192307.87744  21959199.2544   21959198.3344
 -26802517.02444 -20885064.11044  20249279.3714   20249278.2294
 -21237500.96344 -16548685.48344  20528241.0294   20528240.2734
 -10361427.28444  -8073828.05844  23051984.4194   23051984.1484
  -5070907.20644  -3951342.51344  23108472.9394   23108472.3084
 95  2 22  4 24 30.0000000  0  8G12G16G 6G20G 5G24G 9G 4
  -5455350.238 4  -4250910.268 4  23313399.010    23313397.559
 -10386553.28544  -8093416.49444  22798780.0424   22798780.8094
 -10458881.18644  -8149771.89244  23411251.8114   23411251.1674
   -328448.68244   -255934.50544  21943660.8074   21943659.8994
 -26819969.29744 -20898663.28544  20245958.3164   20245957.0284
 -21199099.91644 -16518762.59044  20535548.6364   20535547.8754
 -10275495.01044  -8006867.86144  23068336.9284   23068337.1974
  -4978407.45144  -3879264.78744  23126074.9074   23126072.9484
 95  2 22  4 25  0.0000000  0  8G12G16G 6G20G 5G24G 9G 4
  -5350306.126 4  -4169057.740 4  23333388.349    23333386.960
 -10471970.82144  -8159975.60844  22782525.3894   22782526.1324
 -10525708.83644  -8201845.36544  23398535.0224   23398533.6674
   -409796.01944   -319322.03044  21928181.0254   21928180.7544
 -26836907.88744 -20911862.19144  20242734.9974   20242733.8544
 -21160277.50344 -16488511.35544  20542936.2034   20542935.3484
 -10189363.46044  -7939752.38144  23084727.0274   23084727.1944
  -4885776.73744  -3807085.01744  23143701.9854   23143700.3164
 95  2 22  4 25 30.0000000  0  8G12G16G 6G20G 5G24G 9G 4
  -5245050.224 4  -4087040.172 4  23353417.933    23353416.560
 -10557119.58144  -8226325.29444  22766321.9004   22766322.3574
 -10592476.48844  -8253872.09344  23385829.5834   23385827.9154
   -490841.83344   -382474.60544  21912758.6804   21912757.8264
 -26853325.47844 -20924655.12644  20239610.9904   20239609.8354
 -21121036.01644 -16457933.56944  20550403.7234   20550402.8354
 -10103021.87644  -7872473.25244  23101157.2484   23101157.2194
  -4793000.82544  -3734792.09544  23161356.8114   23161355.8274
 95  2 22  4 26  0.0000000  0  8G12G16G 6G20G 5G24G 9G 4
  -5139591.033 4  -4004864.191 4  23373486.075    23373484.730
 -10642023.11844  -8292483.89944  22750165.3324   22750165.7174
 -10659181.41244  -8305849.93944  23373135.4994   23373134.7974
   -571598.71044   -445402.03244  21897391.4084   21897390.9324
 -26869238.17844 -20937054.63744  20236582.6344   20236581.4484
 -21081399.23144 -16427047.75944  20557946.4474   20557945.5174
 -10016473.42844  -7805032.91644  23117626.6934   23117627.1334
  -4700061.30344  -3662371.70544  23179042.8224   23179040.8714
 95  2 22  4 26 30.0000000  0  8G12G16G 6G20G 5G24G 9G 4
  -5033932.793 4  -3922533.098 4  23393592.049    23393590.608
 -10726711.22244  -8358474.62944  22734050.0234   22734050.6034
 -10725820.54544  -8357776.50644  23360454.4674   23360454.1604
   -652071.57344   -508108.14944  21882077.8154   21882077.3144
 -26884647.28744 -20949061.73644  20233650.4944   20233649.2674
 -21041390.60344 -16395872.20244  20565559.8404   20565558.7224
  -9929734.30444  -7737444.01944  23134132.6434   23134133.7214
  -4606959.50744  -3589824.86144  23196759.5434   23196758.9524
 95  2 22  4 27  0.0000000  0  8G12G16G 6G20G 5G24G 9G 4
  -4928088.829 4  -3840057.283 4  23413733.360    23413731.929
 -10811211.09944  -8424318.68544  22717970.5424   22717971.0044
 -10792404.06144  -8409659.74744  23347783.8794   23347783.3904
   -732273.92844   -570603.47744  21866815.8504   21866815.3914
 -26899569.56544 -20960689.48844  20230810.8984   20230809.6394
 -21001020.05044 -16364414.62744  20573242.0254   20573241.0364
  -9842839.17744  -7669733.54744  23150668.2204   23150668.1354
  -4513713.18944  -3517165.40544  23214503.8524   23214502.0434
 95  2 22  4 27 30.0000000  0  8G12G16G 6G20G 5G24G 9G 4
  -4822075.606 4  -3757449.583 4  23433906.841    23433905.666
 -10895520.67744  -8490014.45444  22701926.9184   22701925.8864
 -10858949.88644  -8461513.61444  23335120.7964   23335120.2734
   -812223.41744   -632901.76644  21851601.8114   21851601.2804
 -26914017.57544 -20971947.68744  20228061.5364   20228060.3054
 -20960301.90644 -16332686.20244  20580990.3264   20580989.6874
  -9755803.41544  -7601913.49344  23167230.9154   23167230.1074
  -4420343.70144  -3444409.95744  23232271.3554   23232270.3344
 95  2 22  4 28  0.0000000  0  8G12G16G 6G20G 5G24G 9G 4
  -4715900.675 4  -3674715.884 4  23454111.177    23454110.326
 -10979607.64444  -8555536.75644  22685925.7684   22685926.5084
 -10925464.57244  -8513343.22944  23322463.6734   23322461.9194
   -891906.45444   -694992.43544  21836438.6104   21836437.8674
 -26927994.21744 -20982838.58844  20225401.8744   20225400.6344
 -20919243.44344 -16300692.59544  20588803.3594   20588802.9044
  -9668628.09444  -7533984.68844  23183819.9984   23183820.1654
  -4326877.80044  -3371579.38544  23250057.3354   23250055.8374
 95  2 22  4 28 30.0000000  0  8G12G16G 6G20G 5G24G 9G 4
  -4609562.937 4  -3591855.332 4  23474346.668    23474345.943
 -11063452.53944  -8620870.42244  22669970.6034   22669971.2944
 -10991946.42744  -8565147.25244  23309812.7724   23309811.8654
   -971303.93844   -756860.59644  21821329.6524   21821329.0444
 -26941490.26344 -20993354.99444  20222833.6244   20222832.4764
 -20877827.97144 -16268420.79344  20596684.6114   20596683.9274
  -9581322.99744  -7465954.74944  23200433.7184   23200433.5944
  -4233338.90844  -3298691.93944  23267857.2234   23267855.0004
 95  2 22  4 29  0.0000000  0  8G12G16G 6G20G 5G24G 9G 4
  -4503061.385 4  -3508867.140 4  23494613.419    23494612.684
 -11147025.99744  -8685992.58444  22654066.9844   22654067.8864
 -11058393.46144  -8616924.14244  23297168.2414   23297167.0784
  -1050397.91444   -818492.25744  21806278.7524   21806278.0344
 -26954505.47944 -21003496.72844  20220357.0214   20220355.8124
 -20836026.19644 -16235847.97944  20604639.3474   20604638.3734
  -9493887.12344  -7397822.90944  23217072.3764   23217071.8224
  -4139730.27344  -3225750.14344  23285670.5844   23285669.1964
 95  2 22  4 29 30.0000000  0  8G12G16G 6G20G 5G24G 9G 4
  -4396387.799 4  -3425744.889 4  23514912.985    23514911.931
 -11230308.55944  -8750888.07344  22638218.6654   22638219.6864
 -11124794.26144  -8668665.01044  23284532.3624   23284531.8114
  -1129154.55244   -879861.05944  21791291.9694   21791290.9984
 -26967017.87344 -21013246.65344  20217975.7314   20217974.5754
 -20793824.77344 -16202963.75444  20612669.9024   20612669.0424
  -9406305.14144  -7329577.21544  23233738.5344   23233738.0244
  -4046035.45044  -3152741.18944  23303500.2354   23303498.8164
 95  2 22  4 30  0.0000000  0  8G12G16G 6G20G 5G24G 9G 4
  -4289541.549 4  -3342488.092 4  23535245.388    23535244.162
 -11313313.05944  -8815566.89144  22622423.4044   22622424.1084
 -11191152.70644  -8720372.86244  23271904.7934   23271903.5324
  -1207555.49744   -940952.69644  21776372.7884   21776372.0774
 -26979026.01544 -21022603.65144  20215690.8694   20215689.9424
 -20751216.04544 -16169762.14644  20620777.9854   20620777.2164
  -9318580.67744  -7261220.49844  23250432.0944   23250432.1494
  -3952228.55344  -3079644.91444  23321350.9674   23321349.0904
 95  2 22  4 30 30.0000000  0  8G12G16G 6G20G 5G24G 9G 4
  -4182520.199 4  -3259094.842 4  23555610.940    23555609.751
 -11396058.86244  -8880044.12544  22606677.5524   22606678.5614
 -11257469.31344  -8772048.12644  23259285.0284   23259283.7064
  -1285606.98744  -1001772.03544  21761520.0814   21761519.5034
 -26990527.45044 -21031565.81244  20213502.2614   20213501.0794
 -20708195.54644 -16136239.67644  20628964.5974   20628963.9604
  -9230717.60444  -7192755.78344  23267151.7524   23267151.3214
  -3858294.62744  -3006449.64244  23339225.8204   23339225.2074
 95  2 22  4 31  0.0000000  0  8G12G16G 6G20G 5G24G 9G 4
  -4075354.527 4  -3175589.131 4  23576003.907    23576002.717
 -11478571.27344  -8944339.50344  22590976.0644   22590976.3934
 -11323779.84144  -8823718.64944  23246666.7164   23246666.0544
  -1363341.20544  -1062344.14144  21746727.5004   21746726.8584
 -27001549.97344 -21040154.79544  20211404.6674   20211403.5324
 -20664809.14344 -16102432.08944  20637220.7444   20637219.9214
  -9142722.79644  -7124188.41544  23283896.6014   23283895.4004
  -3764246.39744  -2933165.31644  23357122.6054   23357120.2064
 95  2 22  4 31 30.0000000  0  8G12G16G 6G20G 5G24G 9G 4
  -3968026.023 4  -3091956.542 4  23596427.633    23596426.593
 -11560829.03144  -9008436.44244  22575322.9524   22575323.0144
 -11390051.03344  -8875358.52544  23234055.7624   23234055.3774
  -1440750.48744  -1122663.05844  21731996.8874   21731996.4314
 -27012069.38544 -21048351.74244  20209402.9474   20209401.7004
 -20621066.19544 -16068346.67344  20645544.6424   20645543.9244
  -9054566.59044  -7055495.28944  23300671.8834   23300670.9184
  -3670070.77944  -2859781.73344  23375043.6154   23375041.8544
 95  2 22  4 32  0.0000000  0  8G12G16G 6G20G 5G24G 9G 4
  -3860527.288 4  -3008191.308 4  23616883.510    23616882.816
 -11642816.40544  -9072322.68244  22559721.2074   22559721.6064
 -11456271.82544  -8926959.11544  23221454.2214   23221453.4204
  -1517850.18644  -1182740.74044  21717325.2104   21717324.7964
 -27022066.15544 -21056141.43844  20207500.6484   20207499.3724
 -20576961.22144 -16033979.15944  20653937.4594   20653936.9514
  -8966242.06944  -6986671.00544  23317479.7574   23317479.5474
  -3575778.73644  -2786307.42244  23392986.6764   23392985.4744
 95  2 22  4 32 30.0000000  0  8G12G16G 6G20G 5G24G 9G 4
  -3752885.642 4  -2924314.725 4  23637366.672    23637366.311
 -11724548.81444  -9136010.26444  22544167.9164   22544168.2814
 -11522452.38444  -8978528.37144  23208860.6054   23208859.9564
  -1594668.09244  -1242598.84244  21702707.2784   21702706.7494
 -27031561.59644 -21063540.48644  20205693.6154   20205692.4024
 -20532526.30744 -15999354.54844  20662393.1384   20662392.6204
  -8877772.77644  -6917733.91144  23334315.0714   23334313.7214
  -3481419.39744  -2712780.67144  23410942.3824   23410941.4244
 95  2 22  4 33  0.0000000  0  8G12G16G 6G20G 5G24G 9G 4
  -3645104.679 4  -2840329.586 4  23657876.617    23657876.342
 -11806020.76244  -9199494.87744  22528664.1924   22528664.7374
 -11588588.49744  -9030062.99044  23196275.2654   23196274.0544
  -1671196.40444  -1302231.28844  21688144.5174   21688143.9754
 -27040554.06544 -21070547.60944  20203982.3754   20203981.1634
 -20487764.17744 -15964474.96544  20670911.2194   20670910.6494
  -8789171.54744  -6848694.00244  23351175.5334   23351175.2254
  -3386995.43644  -2639203.57144  23428910.6704   23428909.2064
 95  2 22  4 33 30.0000000  0  8G12G16G 6G20G 5G24G 9G 4
  -3537173.387 4  -2756227.307 4  23678415.549    23678415.060
 -11887210.22344  -9262759.37144  22513214.4334   22513214.9294
 -11654652.51744  -9081541.42644  23183703.5554   23183702.9894
  -1747420.02044  -1361626.30544  21673639.8044   21673638.7884
 -27049023.37444 -21077147.07344  20202370.7734   20202369.6784
 -20442653.11844 -15929323.48844  20679495.4834   20679494.7544
  -8700455.58344  -6779564.70144  23368057.5934   23368057.0684
  -3292499.83844  -2565570.63644  23446892.9624   23446891.1074
 95  2 22  4 34  0.0000000  0  8G12G16G 6G20G 5G24G 9G 4
  -3429097.260 4  -2672012.168 4  23698982.110    23698981.432
 -11968122.74644  -9325808.07844  22497817.1794   22497817.5624
 -11720657.92344  -9132974.18944  23171143.2504   23171142.3674
  -1823329.10144  -1420776.23744  21659194.8914   21659194.3274
 -27056974.18144 -21083342.51144  20200857.8774   20200856.5634
 -20397186.43044 -15893894.89744  20688147.5604   20688146.8624
  -8611643.98144  -6710360.85644  23384957.6634   23384957.7744
  -3197920.51344  -2491872.47244  23464890.8744   23464889.3714
 95  2 22  4 34 30.0000000  0  8G12G16G 6G20G 5G24G 9G 4
  -3320878.769 4  -2587686.086 4  23719575.619    23719574.899
 -12048748.03544  -9388632.97744  22482474.6874   22482475.1884
 -11786598.14144  -9184356.16144  23158595.1804   23158594.6594
  -1898903.27644  -1479665.19544  21644813.5254   21644812.8694
 -27064426.66844 -21089149.64544  20199439.8614   20199438.6324
 -20351372.17044 -15858195.46844  20696865.7014   20696864.9244
  -8522743.72144  -6641087.93144  23401874.6144   23401874.2144
  -3103252.74744  -2418105.38844  23482905.6444   23482903.7734
